<?xml version="1.0" encoding="UTF-8" standalone="no" ?>
<gpx xmlns="http://www.topografix.com/GPX/1/1" xmlns:xsi="http://www.w3.org/2001/XMLSchema-instance" xsi:schemaLocation="http://www.topografix.com/GPX/1/1 http://www.topografix.com/GPX/1/1/gpx.xsd" version="1.1" creator="VisuGPX - https://www.visugpx.com">
  <metadata>
    <name>sortie équestre compains</name>
    <desc><![CDATA[sortie équestre copains !]]></desc>
  </metadata>
  <trk>
    <name><![CDATA[2014-09-07T08:38:42Z]]></name>
    <trkseg>
      <trkpt lat="45.45808" lon="3.24936">
        <ele>396.667</ele>
        <time>2014-09-07T08:38:43Z</time>
      </trkpt>
      <trkpt lat="45.4688" lon="3.2334">
        <ele>417.377</ele>
        <time>2014-09-07T09:19:42Z</time>
      </trkpt>
      <trkpt lat="45.46921" lon="3.23323">
        <ele>417.429</ele>
        <time>2014-09-07T09:19:47Z</time>
      </trkpt>
      <trkpt lat="45.46929" lon="3.23318">
        <ele>417.189</ele>
        <time>2014-09-07T09:19:48Z</time>
      </trkpt>
      <trkpt lat="45.46967" lon="3.23283">
        <ele>415.054</ele>
        <time>2014-09-07T09:19:53Z</time>
      </trkpt>
      <trkpt lat="45.47017" lon="3.2323">
        <ele>413.189</ele>
        <time>2014-09-07T09:19:59Z</time>
      </trkpt>
      <trkpt lat="45.47076" lon="3.23168">
        <ele>413.13</ele>
        <time>2014-09-07T09:20:06Z</time>
      </trkpt>
      <trkpt lat="45.47099" lon="3.23143">
        <ele>412.155</ele>
        <time>2014-09-07T09:20:09Z</time>
      </trkpt>
      <trkpt lat="45.4711" lon="3.23127">
        <ele>411.85</ele>
        <time>2014-09-07T09:20:11Z</time>
      </trkpt>
      <trkpt lat="45.4714" lon="3.23093">
        <ele>411.393</ele>
        <time>2014-09-07T09:20:17Z</time>
      </trkpt>
      <trkpt lat="45.47161" lon="3.2307">
        <ele>411.235</ele>
        <time>2014-09-07T09:20:22Z</time>
      </trkpt>
      <trkpt lat="45.47168" lon="3.23059">
        <ele>411.383</ele>
        <time>2014-09-07T09:20:25Z</time>
      </trkpt>
      <trkpt lat="45.47168" lon="3.23034">
        <ele>411.903</ele>
        <time>2014-09-07T09:20:29Z</time>
      </trkpt>
      <trkpt lat="45.47144" lon="3.2297">
        <ele>413.22</ele>
        <time>2014-09-07T09:20:35Z</time>
      </trkpt>
      <trkpt lat="45.47113" lon="3.22907">
        <ele>414.055</ele>
        <time>2014-09-07T09:20:40Z</time>
      </trkpt>
      <trkpt lat="45.47102" lon="3.22879">
        <ele>414.244</ele>
        <time>2014-09-07T09:20:42Z</time>
      </trkpt>
      <trkpt lat="45.47089" lon="3.22815">
        <ele>414.802</ele>
        <time>2014-09-07T09:20:46Z</time>
      </trkpt>
      <trkpt lat="45.47087" lon="3.22746">
        <ele>414.891</ele>
        <time>2014-09-07T09:20:51Z</time>
      </trkpt>
      <trkpt lat="45.47087" lon="3.22656">
        <ele>415.236</ele>
        <time>2014-09-07T09:20:57Z</time>
      </trkpt>
      <trkpt lat="45.47088" lon="3.22578">
        <ele>416.024</ele>
        <time>2014-09-07T09:21:02Z</time>
      </trkpt>
      <trkpt lat="45.47103" lon="3.22504">
        <ele>416.836</ele>
        <time>2014-09-07T09:21:07Z</time>
      </trkpt>
      <trkpt lat="45.47128" lon="3.22425">
        <ele>417.923</ele>
        <time>2014-09-07T09:21:12Z</time>
      </trkpt>
      <trkpt lat="45.47153" lon="3.22348">
        <ele>418.376</ele>
        <time>2014-09-07T09:21:17Z</time>
      </trkpt>
      <trkpt lat="45.47162" lon="3.22315">
        <ele>418.486</ele>
        <time>2014-09-07T09:21:20Z</time>
      </trkpt>
      <trkpt lat="45.47164" lon="3.22306">
        <ele>418.631</ele>
        <time>2014-09-07T09:21:21Z</time>
      </trkpt>
      <trkpt lat="45.47184" lon="3.22278">
        <ele>418.929</ele>
        <time>2014-09-07T09:21:26Z</time>
      </trkpt>
      <trkpt lat="45.47223" lon="3.22246">
        <ele>419.999</ele>
        <time>2014-09-07T09:21:31Z</time>
      </trkpt>
      <trkpt lat="45.47256" lon="3.22218">
        <ele>421.155</ele>
        <time>2014-09-07T09:21:34Z</time>
      </trkpt>
      <trkpt lat="45.4731" lon="3.22172">
        <ele>422.857</ele>
        <time>2014-09-07T09:21:38Z</time>
      </trkpt>
      <trkpt lat="45.47381" lon="3.22115">
        <ele>424.421</ele>
        <time>2014-09-07T09:21:43Z</time>
      </trkpt>
      <trkpt lat="45.47434" lon="3.2209">
        <ele>425.413</ele>
        <time>2014-09-07T09:21:47Z</time>
      </trkpt>
      <trkpt lat="45.47505" lon="3.22062">
        <ele>425.301</ele>
        <time>2014-09-07T09:21:53Z</time>
      </trkpt>
      <trkpt lat="45.47556" lon="3.22045">
        <ele>426.174</ele>
        <time>2014-09-07T09:21:58Z</time>
      </trkpt>
      <trkpt lat="45.47583" lon="3.22038">
        <ele>426.649</ele>
        <time>2014-09-07T09:22:02Z</time>
      </trkpt>
      <trkpt lat="45.47588" lon="3.22039">
        <ele>426.564</ele>
        <time>2014-09-07T09:22:03Z</time>
      </trkpt>
      <trkpt lat="45.47593" lon="3.22055">
        <ele>426.618</ele>
        <time>2014-09-07T09:22:08Z</time>
      </trkpt>
      <trkpt lat="45.47591" lon="3.22065">
        <ele>426.685</ele>
        <time>2014-09-07T09:22:11Z</time>
      </trkpt>
      <trkpt lat="45.47591" lon="3.22069">
        <ele>426.917</ele>
        <time>2014-09-07T09:22:14Z</time>
      </trkpt>
      <trkpt lat="45.47585" lon="3.22049">
        <ele>426.284</ele>
        <time>2014-09-07T09:29:05Z</time>
      </trkpt>
      <trkpt lat="45.47584" lon="3.22043">
        <ele>425.97</ele>
        <time>2014-09-07T09:29:10Z</time>
      </trkpt>
      <trkpt lat="45.47581" lon="3.22041">
        <ele>425.767</ele>
        <time>2014-09-07T09:29:15Z</time>
      </trkpt>
      <trkpt lat="45.47597" lon="3.22035">
        <ele>425.962</ele>
        <time>2014-09-07T09:29:41Z</time>
      </trkpt>
      <trkpt lat="45.47623" lon="3.2203">
        <ele>426.051</ele>
        <time>2014-09-07T09:29:45Z</time>
      </trkpt>
      <trkpt lat="45.47679" lon="3.22027">
        <ele>426.705</ele>
        <time>2014-09-07T09:29:52Z</time>
      </trkpt>
      <trkpt lat="45.47761" lon="3.2203">
        <ele>428.566</ele>
        <time>2014-09-07T09:30:01Z</time>
      </trkpt>
      <trkpt lat="45.47824" lon="3.2204">
        <ele>429.432</ele>
        <time>2014-09-07T09:30:08Z</time>
      </trkpt>
      <trkpt lat="45.47894" lon="3.22054">
        <ele>430.569</ele>
        <time>2014-09-07T09:30:16Z</time>
      </trkpt>
      <trkpt lat="45.47935" lon="3.22073">
        <ele>431.443</ele>
        <time>2014-09-07T09:30:21Z</time>
      </trkpt>
      <trkpt lat="45.47978" lon="3.22079">
        <ele>433.034</ele>
        <time>2014-09-07T09:30:26Z</time>
      </trkpt>
      <trkpt lat="45.4802" lon="3.22071">
        <ele>433.451</ele>
        <time>2014-09-07T09:30:31Z</time>
      </trkpt>
      <trkpt lat="45.48049" lon="3.22078">
        <ele>432.694</ele>
        <time>2014-09-07T09:30:35Z</time>
      </trkpt>
      <trkpt lat="45.48097" lon="3.2209">
        <ele>433.079</ele>
        <time>2014-09-07T09:30:40Z</time>
      </trkpt>
      <trkpt lat="45.4816" lon="3.22088">
        <ele>435.217</ele>
        <time>2014-09-07T09:30:46Z</time>
      </trkpt>
      <trkpt lat="45.48234" lon="3.22086">
        <ele>437.841</ele>
        <time>2014-09-07T09:30:53Z</time>
      </trkpt>
      <trkpt lat="45.48283" lon="3.22099">
        <ele>439.157</ele>
        <time>2014-09-07T09:30:57Z</time>
      </trkpt>
      <trkpt lat="45.4833" lon="3.22106">
        <ele>440.381</ele>
        <time>2014-09-07T09:31:01Z</time>
      </trkpt>
      <trkpt lat="45.4835" lon="3.22103">
        <ele>440.513</ele>
        <time>2014-09-07T09:31:03Z</time>
      </trkpt>
      <trkpt lat="45.48372" lon="3.22089">
        <ele>439.912</ele>
        <time>2014-09-07T09:31:07Z</time>
      </trkpt>
      <trkpt lat="45.48373" lon="3.22084">
        <ele>439.597</ele>
        <time>2014-09-07T09:31:08Z</time>
      </trkpt>
      <trkpt lat="45.48378" lon="3.2207">
        <ele>437.582</ele>
        <time>2014-09-07T09:31:14Z</time>
      </trkpt>
      <trkpt lat="45.48378" lon="3.2207">
        <ele>437.15</ele>
        <time>2014-09-07T09:31:16Z</time>
      </trkpt>
      <trkpt lat="45.48372" lon="3.22075">
        <ele>435.875</ele>
        <time>2014-09-07T09:36:12Z</time>
      </trkpt>
      <trkpt lat="45.48371" lon="3.22075">
        <ele>435.85</ele>
        <time>2014-09-07T09:36:14Z</time>
      </trkpt>
      <trkpt lat="45.48392" lon="3.22074">
        <ele>435.855</ele>
        <time>2014-09-07T09:36:20Z</time>
      </trkpt>
      <trkpt lat="45.484" lon="3.22072">
        <ele>435.977</ele>
        <time>2014-09-07T09:36:21Z</time>
      </trkpt>
      <trkpt lat="45.48422" lon="3.22062">
        <ele>436.406</ele>
        <time>2014-09-07T09:36:24Z</time>
      </trkpt>
      <trkpt lat="45.48438" lon="3.22062">
        <ele>437.174</ele>
        <time>2014-09-07T09:36:27Z</time>
      </trkpt>
      <trkpt lat="45.48466" lon="3.22057">
        <ele>439.419</ele>
        <time>2014-09-07T09:36:31Z</time>
      </trkpt>
      <trkpt lat="45.48514" lon="3.2204">
        <ele>442.138</ele>
        <time>2014-09-07T09:36:36Z</time>
      </trkpt>
      <trkpt lat="45.48531" lon="3.22023">
        <ele>443.126</ele>
        <time>2014-09-07T09:36:39Z</time>
      </trkpt>
      <trkpt lat="45.48534" lon="3.22011">
        <ele>443.513</ele>
        <time>2014-09-07T09:36:40Z</time>
      </trkpt>
      <trkpt lat="45.48552" lon="3.21929">
        <ele>444.999</ele>
        <time>2014-09-07T09:36:45Z</time>
      </trkpt>
      <trkpt lat="45.48577" lon="3.21821">
        <ele>445.541</ele>
        <time>2014-09-07T09:36:52Z</time>
      </trkpt>
      <trkpt lat="45.48605" lon="3.21703">
        <ele>445.78</ele>
        <time>2014-09-07T09:36:59Z</time>
      </trkpt>
      <trkpt lat="45.48621" lon="3.21638">
        <ele>445.948</ele>
        <time>2014-09-07T09:37:03Z</time>
      </trkpt>
      <trkpt lat="45.48628" lon="3.21604">
        <ele>445.345</ele>
        <time>2014-09-07T09:37:06Z</time>
      </trkpt>
      <trkpt lat="45.48616" lon="3.21578">
        <ele>443.759</ele>
        <time>2014-09-07T09:37:10Z</time>
      </trkpt>
      <trkpt lat="45.48575" lon="3.21547">
        <ele>442.181</ele>
        <time>2014-09-07T09:37:15Z</time>
      </trkpt>
      <trkpt lat="45.48537" lon="3.21519">
        <ele>439.618</ele>
        <time>2014-09-07T09:37:19Z</time>
      </trkpt>
      <trkpt lat="45.48505" lon="3.21498">
        <ele>435.181</ele>
        <time>2014-09-07T09:37:23Z</time>
      </trkpt>
      <trkpt lat="45.48496" lon="3.21474">
        <ele>431.433</ele>
        <time>2014-09-07T09:37:27Z</time>
      </trkpt>
      <trkpt lat="45.48507" lon="3.21455">
        <ele>430.429</ele>
        <time>2014-09-07T09:37:29Z</time>
      </trkpt>
      <trkpt lat="45.48558" lon="3.21377">
        <ele>430.722</ele>
        <time>2014-09-07T09:37:36Z</time>
      </trkpt>
      <trkpt lat="45.48593" lon="3.21312">
        <ele>431.659</ele>
        <time>2014-09-07T09:37:41Z</time>
      </trkpt>
      <trkpt lat="45.48635" lon="3.21222">
        <ele>432.873</ele>
        <time>2014-09-07T09:37:47Z</time>
      </trkpt>
      <trkpt lat="45.48682" lon="3.21168">
        <ele>433.504</ele>
        <time>2014-09-07T09:37:52Z</time>
      </trkpt>
      <trkpt lat="45.4869" lon="3.21159">
        <ele>433.635</ele>
        <time>2014-09-07T09:37:53Z</time>
      </trkpt>
      <trkpt lat="45.48718" lon="3.21109">
        <ele>433.961</ele>
        <time>2014-09-07T09:37:57Z</time>
      </trkpt>
      <trkpt lat="45.48735" lon="3.21068">
        <ele>434.231</ele>
        <time>2014-09-07T09:38:00Z</time>
      </trkpt>
      <trkpt lat="45.48745" lon="3.21009">
        <ele>434.558</ele>
        <time>2014-09-07T09:38:04Z</time>
      </trkpt>
      <trkpt lat="45.48745" lon="3.20993">
        <ele>434.69</ele>
        <time>2014-09-07T09:38:05Z</time>
      </trkpt>
      <trkpt lat="45.48737" lon="3.20913">
        <ele>435.246</ele>
        <time>2014-09-07T09:38:10Z</time>
      </trkpt>
      <trkpt lat="45.48736" lon="3.20899">
        <ele>435.314</ele>
        <time>2014-09-07T09:38:11Z</time>
      </trkpt>
      <trkpt lat="45.48749" lon="3.20853">
        <ele>435.349</ele>
        <time>2014-09-07T09:38:15Z</time>
      </trkpt>
      <trkpt lat="45.48755" lon="3.20843">
        <ele>435.355</ele>
        <time>2014-09-07T09:38:16Z</time>
      </trkpt>
      <trkpt lat="45.48765" lon="3.20828">
        <ele>435.322</ele>
        <time>2014-09-07T09:38:18Z</time>
      </trkpt>
      <trkpt lat="45.48766" lon="3.20812">
        <ele>435.038</ele>
        <time>2014-09-07T09:38:22Z</time>
      </trkpt>
      <trkpt lat="45.48751" lon="3.20808">
        <ele>434.641</ele>
        <time>2014-09-07T09:38:27Z</time>
      </trkpt>
      <trkpt lat="45.48724" lon="3.2081">
        <ele>435.023</ele>
        <time>2014-09-07T09:38:30Z</time>
      </trkpt>
      <trkpt lat="45.48684" lon="3.20826">
        <ele>435.536</ele>
        <time>2014-09-07T09:38:34Z</time>
      </trkpt>
      <trkpt lat="45.48674" lon="3.20832">
        <ele>435.595</ele>
        <time>2014-09-07T09:38:35Z</time>
      </trkpt>
      <trkpt lat="45.48609" lon="3.2088">
        <ele>435.323</ele>
        <time>2014-09-07T09:38:42Z</time>
      </trkpt>
      <trkpt lat="45.48553" lon="3.20911">
        <ele>436.332</ele>
        <time>2014-09-07T09:38:48Z</time>
      </trkpt>
      <trkpt lat="45.48499" lon="3.2093">
        <ele>437.935</ele>
        <time>2014-09-07T09:38:53Z</time>
      </trkpt>
      <trkpt lat="45.48431" lon="3.20951">
        <ele>439.223</ele>
        <time>2014-09-07T09:38:59Z</time>
      </trkpt>
      <trkpt lat="45.48397" lon="3.20964">
        <ele>437.814</ele>
        <time>2014-09-07T09:39:03Z</time>
      </trkpt>
      <trkpt lat="45.48388" lon="3.20965">
        <ele>435.674</ele>
        <time>2014-09-07T09:39:06Z</time>
      </trkpt>
      <trkpt lat="45.48386" lon="3.20965">
        <ele>433.826</ele>
        <time>2014-09-07T09:39:09Z</time>
      </trkpt>
      <trkpt lat="45.48381" lon="3.20966">
        <ele>433.174</ele>
        <time>2014-09-07T09:39:14Z</time>
      </trkpt>
      <trkpt lat="45.48378" lon="3.20966">
        <ele>433.156</ele>
        <time>2014-09-07T09:39:15Z</time>
      </trkpt>
      <trkpt lat="45.48357" lon="3.20981">
        <ele>433.166</ele>
        <time>2014-09-07T09:39:19Z</time>
      </trkpt>
      <trkpt lat="45.48327" lon="3.21009">
        <ele>433.604</ele>
        <time>2014-09-07T09:39:22Z</time>
      </trkpt>
      <trkpt lat="45.48277" lon="3.21059">
        <ele>434.708</ele>
        <time>2014-09-07T09:39:26Z</time>
      </trkpt>
      <trkpt lat="45.48219" lon="3.21118">
        <ele>436.12</ele>
        <time>2014-09-07T09:39:31Z</time>
      </trkpt>
      <trkpt lat="45.4813" lon="3.21209">
        <ele>438.168</ele>
        <time>2014-09-07T09:39:39Z</time>
      </trkpt>
      <trkpt lat="45.48049" lon="3.21297">
        <ele>438.456</ele>
        <time>2014-09-07T09:39:46Z</time>
      </trkpt>
      <trkpt lat="45.47995" lon="3.21358">
        <ele>437.182</ele>
        <time>2014-09-07T09:39:51Z</time>
      </trkpt>
      <trkpt lat="45.47973" lon="3.21386">
        <ele>435.836</ele>
        <time>2014-09-07T09:39:54Z</time>
      </trkpt>
      <trkpt lat="45.47957" lon="3.21389">
        <ele>434.414</ele>
        <time>2014-09-07T09:39:57Z</time>
      </trkpt>
      <trkpt lat="45.47946" lon="3.21366">
        <ele>433.584</ele>
        <time>2014-09-07T09:40:00Z</time>
      </trkpt>
      <trkpt lat="45.47929" lon="3.21315">
        <ele>433.596</ele>
        <time>2014-09-07T09:40:04Z</time>
      </trkpt>
      <trkpt lat="45.47908" lon="3.21259">
        <ele>435.037</ele>
        <time>2014-09-07T09:40:07Z</time>
      </trkpt>
      <trkpt lat="45.47869" lon="3.21153">
        <ele>438.151</ele>
        <time>2014-09-07T09:40:12Z</time>
      </trkpt>
      <trkpt lat="45.47833" lon="3.21058">
        <ele>439.552</ele>
        <time>2014-09-07T09:40:17Z</time>
      </trkpt>
      <trkpt lat="45.47788" lon="3.20932">
        <ele>441.558</ele>
        <time>2014-09-07T09:40:24Z</time>
      </trkpt>
      <trkpt lat="45.47773" lon="3.2089">
        <ele>442.142</ele>
        <time>2014-09-07T09:40:27Z</time>
      </trkpt>
      <trkpt lat="45.4777" lon="3.2088">
        <ele>442.26</ele>
        <time>2014-09-07T09:40:28Z</time>
      </trkpt>
      <trkpt lat="45.47754" lon="3.20865">
        <ele>442.292</ele>
        <time>2014-09-07T09:40:31Z</time>
      </trkpt>
      <trkpt lat="45.47746" lon="3.20867">
        <ele>442.444</ele>
        <time>2014-09-07T09:40:32Z</time>
      </trkpt>
      <trkpt lat="45.47689" lon="3.20877">
        <ele>444.115</ele>
        <time>2014-09-07T09:40:37Z</time>
      </trkpt>
      <trkpt lat="45.47591" lon="3.20896">
        <ele>449.553</ele>
        <time>2014-09-07T09:40:45Z</time>
      </trkpt>
      <trkpt lat="45.47558" lon="3.20904">
        <ele>452.383</ele>
        <time>2014-09-07T09:40:48Z</time>
      </trkpt>
      <trkpt lat="45.47538" lon="3.20902">
        <ele>454.833</ele>
        <time>2014-09-07T09:40:51Z</time>
      </trkpt>
      <trkpt lat="45.4753" lon="3.20888">
        <ele>456.008</ele>
        <time>2014-09-07T09:40:53Z</time>
      </trkpt>
      <trkpt lat="45.47506" lon="3.20841">
        <ele>458.138</ele>
        <time>2014-09-07T09:40:57Z</time>
      </trkpt>
      <trkpt lat="45.47492" lon="3.20814">
        <ele>459.294</ele>
        <time>2014-09-07T09:40:59Z</time>
      </trkpt>
      <trkpt lat="45.47466" lon="3.20733">
        <ele>461.566</ele>
        <time>2014-09-07T09:41:04Z</time>
      </trkpt>
      <trkpt lat="45.47438" lon="3.20655">
        <ele>464.391</ele>
        <time>2014-09-07T09:41:09Z</time>
      </trkpt>
      <trkpt lat="45.47412" lon="3.20608">
        <ele>466.561</ele>
        <time>2014-09-07T09:41:13Z</time>
      </trkpt>
      <trkpt lat="45.47384" lon="3.20569">
        <ele>468.887</ele>
        <time>2014-09-07T09:41:17Z</time>
      </trkpt>
      <trkpt lat="45.47372" lon="3.20546">
        <ele>469.887</ele>
        <time>2014-09-07T09:41:19Z</time>
      </trkpt>
      <trkpt lat="45.47354" lon="3.20529">
        <ele>470.831</ele>
        <time>2014-09-07T09:41:22Z</time>
      </trkpt>
      <trkpt lat="45.47346" lon="3.2053">
        <ele>471.137</ele>
        <time>2014-09-07T09:41:23Z</time>
      </trkpt>
      <trkpt lat="45.47328" lon="3.20534">
        <ele>471.93</ele>
        <time>2014-09-07T09:41:25Z</time>
      </trkpt>
      <trkpt lat="45.47308" lon="3.20536">
        <ele>472.858</ele>
        <time>2014-09-07T09:41:27Z</time>
      </trkpt>
      <trkpt lat="45.47261" lon="3.20523">
        <ele>476.037</ele>
        <time>2014-09-07T09:41:32Z</time>
      </trkpt>
      <trkpt lat="45.47235" lon="3.20509">
        <ele>478.933</ele>
        <time>2014-09-07T09:41:35Z</time>
      </trkpt>
      <trkpt lat="45.472" lon="3.20492">
        <ele>482.841</ele>
        <time>2014-09-07T09:41:39Z</time>
      </trkpt>
      <trkpt lat="45.47144" lon="3.20455">
        <ele>487.578</ele>
        <time>2014-09-07T09:41:45Z</time>
      </trkpt>
      <trkpt lat="45.47135" lon="3.20449">
        <ele>488.31</ele>
        <time>2014-09-07T09:41:46Z</time>
      </trkpt>
      <trkpt lat="45.47087" lon="3.20441">
        <ele>492.06</ele>
        <time>2014-09-07T09:41:51Z</time>
      </trkpt>
      <trkpt lat="45.47062" lon="3.20454">
        <ele>493.781</ele>
        <time>2014-09-07T09:41:54Z</time>
      </trkpt>
      <trkpt lat="45.47031" lon="3.2047">
        <ele>498.128</ele>
        <time>2014-09-07T09:41:58Z</time>
      </trkpt>
      <trkpt lat="45.47014" lon="3.20465">
        <ele>501.376</ele>
        <time>2014-09-07T09:42:01Z</time>
      </trkpt>
      <trkpt lat="45.47008" lon="3.20458">
        <ele>502.197</ele>
        <time>2014-09-07T09:42:02Z</time>
      </trkpt>
      <trkpt lat="45.46983" lon="3.20427">
        <ele>504.649</ele>
        <time>2014-09-07T09:42:06Z</time>
      </trkpt>
      <trkpt lat="45.4694" lon="3.20404">
        <ele>508.211</ele>
        <time>2014-09-07T09:42:11Z</time>
      </trkpt>
      <trkpt lat="45.46895" lon="3.20389">
        <ele>513.517</ele>
        <time>2014-09-07T09:42:15Z</time>
      </trkpt>
      <trkpt lat="45.4685" lon="3.20382">
        <ele>519.876</ele>
        <time>2014-09-07T09:42:19Z</time>
      </trkpt>
      <trkpt lat="45.46812" lon="3.20392">
        <ele>524.141</ele>
        <time>2014-09-07T09:42:23Z</time>
      </trkpt>
      <trkpt lat="45.46803" lon="3.20396">
        <ele>525.441</ele>
        <time>2014-09-07T09:42:24Z</time>
      </trkpt>
      <trkpt lat="45.46761" lon="3.20392">
        <ele>531.019</ele>
        <time>2014-09-07T09:42:29Z</time>
      </trkpt>
      <trkpt lat="45.46715" lon="3.20397">
        <ele>536.65</ele>
        <time>2014-09-07T09:42:34Z</time>
      </trkpt>
      <trkpt lat="45.46692" lon="3.2039">
        <ele>539.878</ele>
        <time>2014-09-07T09:42:37Z</time>
      </trkpt>
      <trkpt lat="45.4668" lon="3.20361">
        <ele>542.615</ele>
        <time>2014-09-07T09:42:40Z</time>
      </trkpt>
      <trkpt lat="45.46661" lon="3.20338">
        <ele>545.312</ele>
        <time>2014-09-07T09:42:43Z</time>
      </trkpt>
      <trkpt lat="45.46646" lon="3.20329">
        <ele>546.25</ele>
        <time>2014-09-07T09:42:45Z</time>
      </trkpt>
      <trkpt lat="45.46633" lon="3.2032">
        <ele>548.692</ele>
        <time>2014-09-07T09:42:48Z</time>
      </trkpt>
      <trkpt lat="45.46635" lon="3.203">
        <ele>551.049</ele>
        <time>2014-09-07T09:42:52Z</time>
      </trkpt>
      <trkpt lat="45.46638" lon="3.2029">
        <ele>551.437</ele>
        <time>2014-09-07T09:42:53Z</time>
      </trkpt>
      <trkpt lat="45.46663" lon="3.20233">
        <ele>553.546</ele>
        <time>2014-09-07T09:42:58Z</time>
      </trkpt>
      <trkpt lat="45.46675" lon="3.20213">
        <ele>554.182</ele>
        <time>2014-09-07T09:43:00Z</time>
      </trkpt>
      <trkpt lat="45.46686" lon="3.20176">
        <ele>554.885</ele>
        <time>2014-09-07T09:43:04Z</time>
      </trkpt>
      <trkpt lat="45.46687" lon="3.2012">
        <ele>556.79</ele>
        <time>2014-09-07T09:43:09Z</time>
      </trkpt>
      <trkpt lat="45.46688" lon="3.20015">
        <ele>562.322</ele>
        <time>2014-09-07T09:43:17Z</time>
      </trkpt>
      <trkpt lat="45.46688" lon="3.20002">
        <ele>563.284</ele>
        <time>2014-09-07T09:43:18Z</time>
      </trkpt>
      <trkpt lat="45.46693" lon="3.19979">
        <ele>565.812</ele>
        <time>2014-09-07T09:43:21Z</time>
      </trkpt>
      <trkpt lat="45.46695" lon="3.19975">
        <ele>566.405</ele>
        <time>2014-09-07T09:43:22Z</time>
      </trkpt>
      <trkpt lat="45.46704" lon="3.19959">
        <ele>567.636</ele>
        <time>2014-09-07T09:43:25Z</time>
      </trkpt>
      <trkpt lat="45.46719" lon="3.19931">
        <ele>568.459</ele>
        <time>2014-09-07T09:43:29Z</time>
      </trkpt>
      <trkpt lat="45.46737" lon="3.19915">
        <ele>569.104</ele>
        <time>2014-09-07T09:43:33Z</time>
      </trkpt>
      <trkpt lat="45.46761" lon="3.19886">
        <ele>568.587</ele>
        <time>2014-09-07T09:43:38Z</time>
      </trkpt>
      <trkpt lat="45.46779" lon="3.19859">
        <ele>568.398</ele>
        <time>2014-09-07T09:43:43Z</time>
      </trkpt>
      <trkpt lat="45.4679" lon="3.19844">
        <ele>569.94</ele>
        <time>2014-09-07T09:43:48Z</time>
      </trkpt>
      <trkpt lat="45.46796" lon="3.19834">
        <ele>570.673</ele>
        <time>2014-09-07T09:43:50Z</time>
      </trkpt>
      <trkpt lat="45.46809" lon="3.1982">
        <ele>571.899</ele>
        <time>2014-09-07T09:43:54Z</time>
      </trkpt>
      <trkpt lat="45.4683" lon="3.19812">
        <ele>571.79</ele>
        <time>2014-09-07T09:43:58Z</time>
      </trkpt>
      <trkpt lat="45.46856" lon="3.19815">
        <ele>570.42</ele>
        <time>2014-09-07T09:44:03Z</time>
      </trkpt>
      <trkpt lat="45.46882" lon="3.19811">
        <ele>568.347</ele>
        <time>2014-09-07T09:44:07Z</time>
      </trkpt>
      <trkpt lat="45.46896" lon="3.19798">
        <ele>566.812</ele>
        <time>2014-09-07T09:44:10Z</time>
      </trkpt>
      <trkpt lat="45.46899" lon="3.19793">
        <ele>566.474</ele>
        <time>2014-09-07T09:44:11Z</time>
      </trkpt>
      <trkpt lat="45.46908" lon="3.19769">
        <ele>566.207</ele>
        <time>2014-09-07T09:44:16Z</time>
      </trkpt>
      <trkpt lat="45.46911" lon="3.1975">
        <ele>566.753</ele>
        <time>2014-09-07T09:44:20Z</time>
      </trkpt>
      <trkpt lat="45.46917" lon="3.19738">
        <ele>566.933</ele>
        <time>2014-09-07T09:44:26Z</time>
      </trkpt>
      <trkpt lat="45.46917" lon="3.19738">
        <ele>566.712</ele>
        <time>2014-09-07T09:44:28Z</time>
      </trkpt>
      <trkpt lat="45.46919" lon="3.19736">
        <ele>566.018</ele>
        <time>2014-09-07T09:44:40Z</time>
      </trkpt>
      <trkpt lat="45.46917" lon="3.19731">
        <ele>565.953</ele>
        <time>2014-09-07T09:44:45Z</time>
      </trkpt>
      <trkpt lat="45.46917" lon="3.19731">
        <ele>566.158</ele>
        <time>2014-09-07T09:44:46Z</time>
      </trkpt>
      <trkpt lat="45.46919" lon="3.19731">
        <ele>566.464</ele>
        <time>2014-09-07T09:44:51Z</time>
      </trkpt>
      <trkpt lat="45.4691" lon="3.19753">
        <ele>566.357</ele>
        <time>2014-09-07T09:45:00Z</time>
      </trkpt>
      <trkpt lat="45.46909" lon="3.19781">
        <ele>566.514</ele>
        <time>2014-09-07T09:45:05Z</time>
      </trkpt>
      <trkpt lat="45.46907" lon="3.1979">
        <ele>566.404</ele>
        <time>2014-09-07T09:45:07Z</time>
      </trkpt>
      <trkpt lat="45.46896" lon="3.19802">
        <ele>566.105</ele>
        <time>2014-09-07T09:45:10Z</time>
      </trkpt>
      <trkpt lat="45.46872" lon="3.19809">
        <ele>566.648</ele>
        <time>2014-09-07T09:45:14Z</time>
      </trkpt>
      <trkpt lat="45.46857" lon="3.19808">
        <ele>567.446</ele>
        <time>2014-09-07T09:45:16Z</time>
      </trkpt>
      <trkpt lat="45.46825" lon="3.19816">
        <ele>569.867</ele>
        <time>2014-09-07T09:45:21Z</time>
      </trkpt>
      <trkpt lat="45.46814" lon="3.1982">
        <ele>570.95</ele>
        <time>2014-09-07T09:45:23Z</time>
      </trkpt>
      <trkpt lat="45.46793" lon="3.19836">
        <ele>572.188</ele>
        <time>2014-09-07T09:45:27Z</time>
      </trkpt>
      <trkpt lat="45.46785" lon="3.19851">
        <ele>571.844</ele>
        <time>2014-09-07T09:45:31Z</time>
      </trkpt>
      <trkpt lat="45.46784" lon="3.19851">
        <ele>570.993</ele>
        <time>2014-09-07T09:45:33Z</time>
      </trkpt>
      <trkpt lat="45.4678" lon="3.19852">
        <ele>569.93</ele>
        <time>2014-09-07T09:45:40Z</time>
      </trkpt>
      <trkpt lat="45.46778" lon="3.19849">
        <ele>569.896</ele>
        <time>2014-09-07T09:45:44Z</time>
      </trkpt>
      <trkpt lat="45.46779" lon="3.1985">
        <ele>570.292</ele>
        <time>2014-09-07T09:45:48Z</time>
      </trkpt>
      <trkpt lat="45.46777" lon="3.19834">
        <ele>570.877</ele>
        <time>2014-09-07T09:45:53Z</time>
      </trkpt>
      <trkpt lat="45.46771" lon="3.19799">
        <ele>573.82</ele>
        <time>2014-09-07T09:45:58Z</time>
      </trkpt>
      <trkpt lat="45.46763" lon="3.19768">
        <ele>577.334</ele>
        <time>2014-09-07T09:46:02Z</time>
      </trkpt>
      <trkpt lat="45.46747" lon="3.19732">
        <ele>580.791</ele>
        <time>2014-09-07T09:46:06Z</time>
      </trkpt>
      <trkpt lat="45.46738" lon="3.19712">
        <ele>582.307</ele>
        <time>2014-09-07T09:46:09Z</time>
      </trkpt>
      <trkpt lat="45.46725" lon="3.19691">
        <ele>585.372</ele>
        <time>2014-09-07T09:46:13Z</time>
      </trkpt>
      <trkpt lat="45.46706" lon="3.19671">
        <ele>588.1</ele>
        <time>2014-09-07T09:46:18Z</time>
      </trkpt>
      <trkpt lat="45.46708" lon="3.19654">
        <ele>589.49</ele>
        <time>2014-09-07T09:46:22Z</time>
      </trkpt>
      <trkpt lat="45.46714" lon="3.19638">
        <ele>590.557</ele>
        <time>2014-09-07T09:46:25Z</time>
      </trkpt>
      <trkpt lat="45.46712" lon="3.19612">
        <ele>592.446</ele>
        <time>2014-09-07T09:46:29Z</time>
      </trkpt>
      <trkpt lat="45.46701" lon="3.19585">
        <ele>594.453</ele>
        <time>2014-09-07T09:46:34Z</time>
      </trkpt>
      <trkpt lat="45.467" lon="3.19584">
        <ele>594.893</ele>
        <time>2014-09-07T09:46:35Z</time>
      </trkpt>
      <trkpt lat="45.46695" lon="3.19583">
        <ele>596.003</ele>
        <time>2014-09-07T09:46:38Z</time>
      </trkpt>
      <trkpt lat="45.46689" lon="3.1956">
        <ele>596.995</ele>
        <time>2014-09-07T09:46:46Z</time>
      </trkpt>
      <trkpt lat="45.46685" lon="3.19544">
        <ele>598.05</ele>
        <time>2014-09-07T09:46:50Z</time>
      </trkpt>
      <trkpt lat="45.46688" lon="3.19535">
        <ele>599.964</ele>
        <time>2014-09-07T09:46:56Z</time>
      </trkpt>
      <trkpt lat="45.4669" lon="3.1955">
        <ele>599.969</ele>
        <time>2014-09-07T09:47:54Z</time>
      </trkpt>
      <trkpt lat="45.46693" lon="3.19576">
        <ele>598.477</ele>
        <time>2014-09-07T09:47:59Z</time>
      </trkpt>
      <trkpt lat="45.46693" lon="3.19578">
        <ele>598.096</ele>
        <time>2014-09-07T09:48:01Z</time>
      </trkpt>
      <trkpt lat="45.46697" lon="3.19591">
        <ele>597.36</ele>
        <time>2014-09-07T09:48:04Z</time>
      </trkpt>
      <trkpt lat="45.46712" lon="3.1963">
        <ele>595.24</ele>
        <time>2014-09-07T09:48:10Z</time>
      </trkpt>
      <trkpt lat="45.46711" lon="3.19641">
        <ele>594.528</ele>
        <time>2014-09-07T09:48:12Z</time>
      </trkpt>
      <trkpt lat="45.46696" lon="3.1967">
        <ele>593.166</ele>
        <time>2014-09-07T09:48:16Z</time>
      </trkpt>
      <trkpt lat="45.46698" lon="3.19684">
        <ele>591.646</ele>
        <time>2014-09-07T09:48:19Z</time>
      </trkpt>
      <trkpt lat="45.467" lon="3.19688">
        <ele>591.257</ele>
        <time>2014-09-07T09:48:20Z</time>
      </trkpt>
      <trkpt lat="45.46712" lon="3.19703">
        <ele>589.933</ele>
        <time>2014-09-07T09:48:23Z</time>
      </trkpt>
      <trkpt lat="45.46731" lon="3.19739">
        <ele>587.106</ele>
        <time>2014-09-07T09:48:29Z</time>
      </trkpt>
      <trkpt lat="45.46739" lon="3.1976">
        <ele>585.125</ele>
        <time>2014-09-07T09:48:32Z</time>
      </trkpt>
      <trkpt lat="45.46751" lon="3.19785">
        <ele>582.543</ele>
        <time>2014-09-07T09:48:36Z</time>
      </trkpt>
      <trkpt lat="45.46757" lon="3.19798">
        <ele>581.39</ele>
        <time>2014-09-07T09:48:38Z</time>
      </trkpt>
      <trkpt lat="45.4677" lon="3.19841">
        <ele>578.322</ele>
        <time>2014-09-07T09:48:43Z</time>
      </trkpt>
      <trkpt lat="45.46775" lon="3.19863">
        <ele>574.444</ele>
        <time>2014-09-07T09:48:47Z</time>
      </trkpt>
      <trkpt lat="45.46774" lon="3.19867">
        <ele>573.54</ele>
        <time>2014-09-07T09:48:48Z</time>
      </trkpt>
      <trkpt lat="45.46759" lon="3.1989">
        <ele>570.622</ele>
        <time>2014-09-07T09:48:52Z</time>
      </trkpt>
      <trkpt lat="45.4675" lon="3.19904">
        <ele>569.797</ele>
        <time>2014-09-07T09:48:54Z</time>
      </trkpt>
      <trkpt lat="45.46726" lon="3.19926">
        <ele>569.517</ele>
        <time>2014-09-07T09:48:58Z</time>
      </trkpt>
      <trkpt lat="45.4671" lon="3.19947">
        <ele>570.579</ele>
        <time>2014-09-07T09:49:01Z</time>
      </trkpt>
      <trkpt lat="45.46694" lon="3.19978">
        <ele>571.013</ele>
        <time>2014-09-07T09:49:04Z</time>
      </trkpt>
      <trkpt lat="45.46685" lon="3.20021">
        <ele>570.369</ele>
        <time>2014-09-07T09:49:08Z</time>
      </trkpt>
      <trkpt lat="45.46686" lon="3.20109">
        <ele>566.403</ele>
        <time>2014-09-07T09:49:14Z</time>
      </trkpt>
      <trkpt lat="45.46685" lon="3.20179">
        <ele>561.38</ele>
        <time>2014-09-07T09:49:19Z</time>
      </trkpt>
      <trkpt lat="45.46685" lon="3.20196">
        <ele>558.488</ele>
        <time>2014-09-07T09:49:22Z</time>
      </trkpt>
      <trkpt lat="45.46684" lon="3.20201">
        <ele>557.799</ele>
        <time>2014-09-07T09:49:23Z</time>
      </trkpt>
      <trkpt lat="45.46669" lon="3.20228">
        <ele>556.522</ele>
        <time>2014-09-07T09:49:27Z</time>
      </trkpt>
      <trkpt lat="45.46657" lon="3.2025">
        <ele>556.453</ele>
        <time>2014-09-07T09:49:29Z</time>
      </trkpt>
      <trkpt lat="45.46633" lon="3.20317">
        <ele>556.39</ele>
        <time>2014-09-07T09:49:33Z</time>
      </trkpt>
      <trkpt lat="45.46604" lon="3.20373">
        <ele>555.418</ele>
        <time>2014-09-07T09:49:37Z</time>
      </trkpt>
      <trkpt lat="45.46588" lon="3.20427">
        <ele>552.954</ele>
        <time>2014-09-07T09:49:41Z</time>
      </trkpt>
      <trkpt lat="45.46577" lon="3.20497">
        <ele>551.021</ele>
        <time>2014-09-07T09:49:45Z</time>
      </trkpt>
      <trkpt lat="45.4656" lon="3.20574">
        <ele>551.426</ele>
        <time>2014-09-07T09:49:49Z</time>
      </trkpt>
      <trkpt lat="45.46534" lon="3.20656">
        <ele>553.695</ele>
        <time>2014-09-07T09:49:54Z</time>
      </trkpt>
      <trkpt lat="45.46526" lon="3.2068">
        <ele>555.033</ele>
        <time>2014-09-07T09:49:56Z</time>
      </trkpt>
      <trkpt lat="45.46504" lon="3.20711">
        <ele>557.771</ele>
        <time>2014-09-07T09:50:00Z</time>
      </trkpt>
      <trkpt lat="45.46499" lon="3.20716">
        <ele>558.473</ele>
        <time>2014-09-07T09:50:01Z</time>
      </trkpt>
      <trkpt lat="45.46483" lon="3.20743">
        <ele>561.373</ele>
        <time>2014-09-07T09:50:05Z</time>
      </trkpt>
      <trkpt lat="45.46469" lon="3.20766">
        <ele>564.296</ele>
        <time>2014-09-07T09:50:09Z</time>
      </trkpt>
      <trkpt lat="45.46458" lon="3.20755">
        <ele>565.889</ele>
        <time>2014-09-07T09:50:12Z</time>
      </trkpt>
      <trkpt lat="45.46433" lon="3.20711">
        <ele>568.696</ele>
        <time>2014-09-07T09:50:17Z</time>
      </trkpt>
      <trkpt lat="45.46421" lon="3.20691">
        <ele>569.539</ele>
        <time>2014-09-07T09:50:19Z</time>
      </trkpt>
      <trkpt lat="45.46397" lon="3.20648">
        <ele>573.482</ele>
        <time>2014-09-07T09:50:23Z</time>
      </trkpt>
      <trkpt lat="45.46383" lon="3.20593">
        <ele>577.643</ele>
        <time>2014-09-07T09:50:27Z</time>
      </trkpt>
      <trkpt lat="45.46364" lon="3.20561">
        <ele>580.056</ele>
        <time>2014-09-07T09:50:30Z</time>
      </trkpt>
      <trkpt lat="45.46357" lon="3.20553">
        <ele>580.848</ele>
        <time>2014-09-07T09:50:31Z</time>
      </trkpt>
      <trkpt lat="45.46295" lon="3.20485">
        <ele>586.977</ele>
        <time>2014-09-07T09:50:39Z</time>
      </trkpt>
      <trkpt lat="45.46277" lon="3.20465">
        <ele>588.268</ele>
        <time>2014-09-07T09:50:41Z</time>
      </trkpt>
      <trkpt lat="45.46234" lon="3.20436">
        <ele>590.661</ele>
        <time>2014-09-07T09:50:45Z</time>
      </trkpt>
      <trkpt lat="45.46203" lon="3.20412">
        <ele>592.014</ele>
        <time>2014-09-07T09:50:48Z</time>
      </trkpt>
      <trkpt lat="45.46147" lon="3.20369">
        <ele>596.149</ele>
        <time>2014-09-07T09:50:53Z</time>
      </trkpt>
      <trkpt lat="45.46082" lon="3.20313">
        <ele>600.492</ele>
        <time>2014-09-07T09:50:59Z</time>
      </trkpt>
      <trkpt lat="45.46072" lon="3.20305">
        <ele>601.061</ele>
        <time>2014-09-07T09:51:00Z</time>
      </trkpt>
      <trkpt lat="45.46044" lon="3.2026">
        <ele>603.37</ele>
        <time>2014-09-07T09:51:04Z</time>
      </trkpt>
      <trkpt lat="45.46036" lon="3.20232">
        <ele>604.213</ele>
        <time>2014-09-07T09:51:06Z</time>
      </trkpt>
      <trkpt lat="45.46025" lon="3.20186">
        <ele>605.082</ele>
        <time>2014-09-07T09:51:09Z</time>
      </trkpt>
      <trkpt lat="45.45993" lon="3.20121">
        <ele>606.271</ele>
        <time>2014-09-07T09:51:14Z</time>
      </trkpt>
      <trkpt lat="45.45987" lon="3.2011">
        <ele>606.637</ele>
        <time>2014-09-07T09:51:15Z</time>
      </trkpt>
      <trkpt lat="45.4598" lon="3.20068">
        <ele>608.358</ele>
        <time>2014-09-07T09:51:19Z</time>
      </trkpt>
      <trkpt lat="45.45983" lon="3.20043">
        <ele>609.124</ele>
        <time>2014-09-07T09:51:21Z</time>
      </trkpt>
      <trkpt lat="45.45993" lon="3.1999">
        <ele>611.124</ele>
        <time>2014-09-07T09:51:25Z</time>
      </trkpt>
      <trkpt lat="45.45996" lon="3.19964">
        <ele>612.229</ele>
        <time>2014-09-07T09:51:27Z</time>
      </trkpt>
      <trkpt lat="45.46012" lon="3.19924">
        <ele>615.035</ele>
        <time>2014-09-07T09:51:31Z</time>
      </trkpt>
      <trkpt lat="45.46038" lon="3.19892">
        <ele>617.036</ele>
        <time>2014-09-07T09:51:35Z</time>
      </trkpt>
      <trkpt lat="45.46071" lon="3.19852">
        <ele>619.439</ele>
        <time>2014-09-07T09:51:40Z</time>
      </trkpt>
      <trkpt lat="45.46077" lon="3.19844">
        <ele>619.989</ele>
        <time>2014-09-07T09:51:41Z</time>
      </trkpt>
      <trkpt lat="45.46117" lon="3.19808">
        <ele>622.874</ele>
        <time>2014-09-07T09:51:46Z</time>
      </trkpt>
      <trkpt lat="45.46156" lon="3.19761">
        <ele>625.787</ele>
        <time>2014-09-07T09:51:51Z</time>
      </trkpt>
      <trkpt lat="45.46181" lon="3.19736">
        <ele>627.465</ele>
        <time>2014-09-07T09:51:54Z</time>
      </trkpt>
      <trkpt lat="45.46216" lon="3.19725">
        <ele>629.782</ele>
        <time>2014-09-07T09:51:58Z</time>
      </trkpt>
      <trkpt lat="45.46237" lon="3.19721">
        <ele>630.925</ele>
        <time>2014-09-07T09:52:01Z</time>
      </trkpt>
      <trkpt lat="45.46249" lon="3.19712">
        <ele>631.956</ele>
        <time>2014-09-07T09:52:03Z</time>
      </trkpt>
      <trkpt lat="45.46271" lon="3.197">
        <ele>633.237</ele>
        <time>2014-09-07T09:52:06Z</time>
      </trkpt>
      <trkpt lat="45.46307" lon="3.19692">
        <ele>634.756</ele>
        <time>2014-09-07T09:52:10Z</time>
      </trkpt>
      <trkpt lat="45.46315" lon="3.19686">
        <ele>635.176</ele>
        <time>2014-09-07T09:52:11Z</time>
      </trkpt>
      <trkpt lat="45.46392" lon="3.19642">
        <ele>637.859</ele>
        <time>2014-09-07T09:52:19Z</time>
      </trkpt>
      <trkpt lat="45.46443" lon="3.19612">
        <ele>639.248</ele>
        <time>2014-09-07T09:52:24Z</time>
      </trkpt>
      <trkpt lat="45.46476" lon="3.19575">
        <ele>639.833</ele>
        <time>2014-09-07T09:52:28Z</time>
      </trkpt>
      <trkpt lat="45.46511" lon="3.19516">
        <ele>639.322</ele>
        <time>2014-09-07T09:52:33Z</time>
      </trkpt>
      <trkpt lat="45.46549" lon="3.19482">
        <ele>638.307</ele>
        <time>2014-09-07T09:52:38Z</time>
      </trkpt>
      <trkpt lat="45.46557" lon="3.19477">
        <ele>638.336</ele>
        <time>2014-09-07T09:52:39Z</time>
      </trkpt>
      <trkpt lat="45.46596" lon="3.1944">
        <ele>639.83</ele>
        <time>2014-09-07T09:52:45Z</time>
      </trkpt>
      <trkpt lat="45.46626" lon="3.19397">
        <ele>640.891</ele>
        <time>2014-09-07T09:52:50Z</time>
      </trkpt>
      <trkpt lat="45.46652" lon="3.1935">
        <ele>641.136</ele>
        <time>2014-09-07T09:52:55Z</time>
      </trkpt>
      <trkpt lat="45.46682" lon="3.19313">
        <ele>641.528</ele>
        <time>2014-09-07T09:53:00Z</time>
      </trkpt>
      <trkpt lat="45.46704" lon="3.19299">
        <ele>642.139</ele>
        <time>2014-09-07T09:53:03Z</time>
      </trkpt>
      <trkpt lat="45.46729" lon="3.1928">
        <ele>643.035</ele>
        <time>2014-09-07T09:53:07Z</time>
      </trkpt>
      <trkpt lat="45.46767" lon="3.1925">
        <ele>643.815</ele>
        <time>2014-09-07T09:53:13Z</time>
      </trkpt>
      <trkpt lat="45.46778" lon="3.19237">
        <ele>644.162</ele>
        <time>2014-09-07T09:53:15Z</time>
      </trkpt>
      <trkpt lat="45.46806" lon="3.19209">
        <ele>645.103</ele>
        <time>2014-09-07T09:53:20Z</time>
      </trkpt>
      <trkpt lat="45.46806" lon="3.19209">
        <ele>645.289</ele>
        <time>2014-09-07T09:53:23Z</time>
      </trkpt>
      <trkpt lat="45.46805" lon="3.19203">
        <ele>645.939</ele>
        <time>2014-09-07T09:59:28Z</time>
      </trkpt>
      <trkpt lat="45.46807" lon="3.19207">
        <ele>645.962</ele>
        <time>2014-09-07T09:59:36Z</time>
      </trkpt>
      <trkpt lat="45.4679" lon="3.19226">
        <ele>645.943</ele>
        <time>2014-09-07T09:59:48Z</time>
      </trkpt>
      <trkpt lat="45.46785" lon="3.19231">
        <ele>645.906</ele>
        <time>2014-09-07T09:59:49Z</time>
      </trkpt>
      <trkpt lat="45.46761" lon="3.19257">
        <ele>645.454</ele>
        <time>2014-09-07T09:59:53Z</time>
      </trkpt>
      <trkpt lat="45.46712" lon="3.19294">
        <ele>644.66</ele>
        <time>2014-09-07T09:59:59Z</time>
      </trkpt>
      <trkpt lat="45.46696" lon="3.19304">
        <ele>644.554</ele>
        <time>2014-09-07T10:00:01Z</time>
      </trkpt>
      <trkpt lat="45.46659" lon="3.19339">
        <ele>643.829</ele>
        <time>2014-09-07T10:00:06Z</time>
      </trkpt>
      <trkpt lat="45.46648" lon="3.19358">
        <ele>643.312</ele>
        <time>2014-09-07T10:00:08Z</time>
      </trkpt>
      <trkpt lat="45.46603" lon="3.19431">
        <ele>642.36</ele>
        <time>2014-09-07T10:00:16Z</time>
      </trkpt>
      <trkpt lat="45.46573" lon="3.19465">
        <ele>642.236</ele>
        <time>2014-09-07T10:00:20Z</time>
      </trkpt>
      <trkpt lat="45.46547" lon="3.19486">
        <ele>641.794</ele>
        <time>2014-09-07T10:00:23Z</time>
      </trkpt>
      <trkpt lat="45.46529" lon="3.19498">
        <ele>641.221</ele>
        <time>2014-09-07T10:00:25Z</time>
      </trkpt>
      <trkpt lat="45.46503" lon="3.19526">
        <ele>640.122</ele>
        <time>2014-09-07T10:00:29Z</time>
      </trkpt>
      <trkpt lat="45.465" lon="3.19533">
        <ele>639.874</ele>
        <time>2014-09-07T10:00:30Z</time>
      </trkpt>
      <trkpt lat="45.46489" lon="3.19554">
        <ele>639.051</ele>
        <time>2014-09-07T10:00:35Z</time>
      </trkpt>
      <trkpt lat="45.46487" lon="3.19559">
        <ele>638.949</ele>
        <time>2014-09-07T10:00:39Z</time>
      </trkpt>
      <trkpt lat="45.46485" lon="3.19562">
        <ele>638.973</ele>
        <time>2014-09-07T10:00:40Z</time>
      </trkpt>
      <trkpt lat="45.4646" lon="3.19594">
        <ele>640.12</ele>
        <time>2014-09-07T10:00:45Z</time>
      </trkpt>
      <trkpt lat="45.46453" lon="3.19602">
        <ele>640.398</ele>
        <time>2014-09-07T10:00:46Z</time>
      </trkpt>
      <trkpt lat="45.46416" lon="3.19627">
        <ele>641.363</ele>
        <time>2014-09-07T10:00:50Z</time>
      </trkpt>
      <trkpt lat="45.46373" lon="3.19651">
        <ele>641.498</ele>
        <time>2014-09-07T10:00:53Z</time>
      </trkpt>
      <trkpt lat="45.46317" lon="3.19682">
        <ele>641.104</ele>
        <time>2014-09-07T10:00:57Z</time>
      </trkpt>
      <trkpt lat="45.46305" lon="3.1969">
        <ele>640.852</ele>
        <time>2014-09-07T10:00:58Z</time>
      </trkpt>
      <trkpt lat="45.46261" lon="3.19705">
        <ele>639.104</ele>
        <time>2014-09-07T10:01:02Z</time>
      </trkpt>
      <trkpt lat="45.46252" lon="3.1971">
        <ele>638.628</ele>
        <time>2014-09-07T10:01:03Z</time>
      </trkpt>
      <trkpt lat="45.46229" lon="3.19724">
        <ele>636.931</ele>
        <time>2014-09-07T10:01:06Z</time>
      </trkpt>
      <trkpt lat="45.462" lon="3.19729">
        <ele>634.749</ele>
        <time>2014-09-07T10:01:10Z</time>
      </trkpt>
      <trkpt lat="45.46175" lon="3.1974">
        <ele>633.337</ele>
        <time>2014-09-07T10:01:13Z</time>
      </trkpt>
      <trkpt lat="45.46167" lon="3.19746">
        <ele>632.904</ele>
        <time>2014-09-07T10:01:14Z</time>
      </trkpt>
      <trkpt lat="45.46116" lon="3.19807">
        <ele>630.485</ele>
        <time>2014-09-07T10:01:20Z</time>
      </trkpt>
      <trkpt lat="45.46083" lon="3.19841">
        <ele>628.16</ele>
        <time>2014-09-07T10:01:24Z</time>
      </trkpt>
      <trkpt lat="45.46075" lon="3.19847">
        <ele>627.476</ele>
        <time>2014-09-07T10:01:25Z</time>
      </trkpt>
      <trkpt lat="45.46033" lon="3.19899">
        <ele>623.852</ele>
        <time>2014-09-07T10:01:31Z</time>
      </trkpt>
      <trkpt lat="45.46018" lon="3.19916">
        <ele>622.784</ele>
        <time>2014-09-07T10:01:33Z</time>
      </trkpt>
      <trkpt lat="45.45999" lon="3.19949">
        <ele>621.112</ele>
        <time>2014-09-07T10:01:36Z</time>
      </trkpt>
      <trkpt lat="45.45988" lon="3.20002">
        <ele>618.463</ele>
        <time>2014-09-07T10:01:40Z</time>
      </trkpt>
      <trkpt lat="45.45983" lon="3.20037">
        <ele>616.106</ele>
        <time>2014-09-07T10:01:43Z</time>
      </trkpt>
      <trkpt lat="45.45982" lon="3.20044">
        <ele>616.106</ele>
        <time>2014-09-07T10:01:44Z</time>
      </trkpt>
      <trkpt lat="45.45982" lon="3.20053">
        <ele>613.913</ele>
        <time>2014-09-07T10:01:47Z</time>
      </trkpt>
      <trkpt lat="45.45982" lon="3.20053">
        <ele>612.694</ele>
        <time>2014-09-07T10:01:49Z</time>
      </trkpt>
      <trkpt lat="45.45982" lon="3.20061">
        <ele>611.958</ele>
        <time>2014-09-07T10:02:15Z</time>
      </trkpt>
      <trkpt lat="45.4598" lon="3.20087">
        <ele>611.335</ele>
        <time>2014-09-07T10:02:19Z</time>
      </trkpt>
      <trkpt lat="45.45979" lon="3.20091">
        <ele>611.162</ele>
        <time>2014-09-07T10:02:20Z</time>
      </trkpt>
      <trkpt lat="45.45978" lon="3.20094">
        <ele>610.707</ele>
        <time>2014-09-07T10:02:24Z</time>
      </trkpt>
      <trkpt lat="45.45969" lon="3.20089">
        <ele>611.233</ele>
        <time>2014-09-07T10:02:40Z</time>
      </trkpt>
      <trkpt lat="45.45966" lon="3.20085">
        <ele>611.25</ele>
        <time>2014-09-07T10:02:41Z</time>
      </trkpt>
      <trkpt lat="45.45945" lon="3.20064">
        <ele>611.918</ele>
        <time>2014-09-07T10:02:45Z</time>
      </trkpt>
      <trkpt lat="45.45928" lon="3.20045">
        <ele>613.123</ele>
        <time>2014-09-07T10:02:48Z</time>
      </trkpt>
      <trkpt lat="45.4591" lon="3.2001">
        <ele>614.543</ele>
        <time>2014-09-07T10:02:52Z</time>
      </trkpt>
      <trkpt lat="45.45885" lon="3.19935">
        <ele>616.396</ele>
        <time>2014-09-07T10:02:59Z</time>
      </trkpt>
      <trkpt lat="45.45865" lon="3.19885">
        <ele>616.977</ele>
        <time>2014-09-07T10:03:04Z</time>
      </trkpt>
      <trkpt lat="45.45851" lon="3.19842">
        <ele>615.78</ele>
        <time>2014-09-07T10:03:09Z</time>
      </trkpt>
      <trkpt lat="45.45848" lon="3.19819">
        <ele>614.529</ele>
        <time>2014-09-07T10:03:12Z</time>
      </trkpt>
      <trkpt lat="45.45837" lon="3.19765">
        <ele>609.833</ele>
        <time>2014-09-07T10:03:19Z</time>
      </trkpt>
      <trkpt lat="45.45836" lon="3.19731">
        <ele>605.967</ele>
        <time>2014-09-07T10:03:24Z</time>
      </trkpt>
      <trkpt lat="45.45836" lon="3.19723">
        <ele>605.969</ele>
        <time>2014-09-07T10:03:25Z</time>
      </trkpt>
      <trkpt lat="45.45834" lon="3.19685">
        <ele>600.328</ele>
        <time>2014-09-07T10:03:31Z</time>
      </trkpt>
      <trkpt lat="45.45834" lon="3.19678">
        <ele>596.863</ele>
        <time>2014-09-07T10:03:35Z</time>
      </trkpt>
      <trkpt lat="45.45834" lon="3.19678">
        <ele>595.93</ele>
        <time>2014-09-07T10:03:36Z</time>
      </trkpt>
      <trkpt lat="45.45835" lon="3.19673">
        <ele>594.864</ele>
        <time>2014-09-07T10:03:41Z</time>
      </trkpt>
      <trkpt lat="45.45835" lon="3.19667">
        <ele>593.264</ele>
        <time>2014-09-07T10:03:46Z</time>
      </trkpt>
      <trkpt lat="45.45835" lon="3.19653">
        <ele>591.115</ele>
        <time>2014-09-07T10:03:51Z</time>
      </trkpt>
      <trkpt lat="45.45835" lon="3.1965">
        <ele>588.775</ele>
        <time>2014-09-07T10:03:54Z</time>
      </trkpt>
      <trkpt lat="45.45832" lon="3.19634">
        <ele>587.436</ele>
        <time>2014-09-07T10:04:35Z</time>
      </trkpt>
      <trkpt lat="45.45834" lon="3.19606">
        <ele>585.378</ele>
        <time>2014-09-07T10:04:40Z</time>
      </trkpt>
      <trkpt lat="45.45835" lon="3.19566">
        <ele>582.939</ele>
        <time>2014-09-07T10:04:45Z</time>
      </trkpt>
      <trkpt lat="45.45845" lon="3.19508">
        <ele>579.085</ele>
        <time>2014-09-07T10:04:51Z</time>
      </trkpt>
      <trkpt lat="45.45857" lon="3.1946">
        <ele>575.748</ele>
        <time>2014-09-07T10:04:56Z</time>
      </trkpt>
      <trkpt lat="45.45862" lon="3.19419">
        <ele>570.896</ele>
        <time>2014-09-07T10:05:02Z</time>
      </trkpt>
      <trkpt lat="45.45868" lon="3.19404">
        <ele>569.047</ele>
        <time>2014-09-07T10:05:06Z</time>
      </trkpt>
      <trkpt lat="45.45885" lon="3.19395">
        <ele>569.168</ele>
        <time>2014-09-07T10:05:11Z</time>
      </trkpt>
      <trkpt lat="45.4589" lon="3.19393">
        <ele>570.408</ele>
        <time>2014-09-07T10:05:15Z</time>
      </trkpt>
      <trkpt lat="45.45898" lon="3.19388">
        <ele>571.308</ele>
        <time>2014-09-07T10:05:22Z</time>
      </trkpt>
      <trkpt lat="45.45903" lon="3.19385">
        <ele>572.683</ele>
        <time>2014-09-07T10:05:28Z</time>
      </trkpt>
      <trkpt lat="45.45911" lon="3.19383">
        <ele>572.928</ele>
        <time>2014-09-07T10:05:38Z</time>
      </trkpt>
      <trkpt lat="45.45931" lon="3.19374">
        <ele>574.93</ele>
        <time>2014-09-07T10:05:44Z</time>
      </trkpt>
      <trkpt lat="45.45962" lon="3.19361">
        <ele>578.364</ele>
        <time>2014-09-07T10:05:49Z</time>
      </trkpt>
      <trkpt lat="45.46006" lon="3.19345">
        <ele>581.826</ele>
        <time>2014-09-07T10:05:55Z</time>
      </trkpt>
      <trkpt lat="45.46018" lon="3.19342">
        <ele>583.647</ele>
        <time>2014-09-07T10:05:59Z</time>
      </trkpt>
      <trkpt lat="45.4603" lon="3.19336">
        <ele>585.578</ele>
        <time>2014-09-07T10:06:02Z</time>
      </trkpt>
      <trkpt lat="45.46056" lon="3.19315">
        <ele>588.848</ele>
        <time>2014-09-07T10:06:07Z</time>
      </trkpt>
      <trkpt lat="45.46071" lon="3.193">
        <ele>590.213</ele>
        <time>2014-09-07T10:06:11Z</time>
      </trkpt>
      <trkpt lat="45.4609" lon="3.19283">
        <ele>590.182</ele>
        <time>2014-09-07T10:06:16Z</time>
      </trkpt>
      <trkpt lat="45.46114" lon="3.19268">
        <ele>590.267</ele>
        <time>2014-09-07T10:06:22Z</time>
      </trkpt>
      <trkpt lat="45.46156" lon="3.19252">
        <ele>593.666</ele>
        <time>2014-09-07T10:06:30Z</time>
      </trkpt>
      <trkpt lat="45.46181" lon="3.19245">
        <ele>596.98</ele>
        <time>2014-09-07T10:06:35Z</time>
      </trkpt>
      <trkpt lat="45.46207" lon="3.19238">
        <ele>600.667</ele>
        <time>2014-09-07T10:06:39Z</time>
      </trkpt>
      <trkpt lat="45.46222" lon="3.19234">
        <ele>602.494</ele>
        <time>2014-09-07T10:06:41Z</time>
      </trkpt>
      <trkpt lat="45.46268" lon="3.19199">
        <ele>605.971</ele>
        <time>2014-09-07T10:06:47Z</time>
      </trkpt>
      <trkpt lat="45.46303" lon="3.19168">
        <ele>608.815</ele>
        <time>2014-09-07T10:06:52Z</time>
      </trkpt>
      <trkpt lat="45.46347" lon="3.19124">
        <ele>612.656</ele>
        <time>2014-09-07T10:06:58Z</time>
      </trkpt>
      <trkpt lat="45.46375" lon="3.19101">
        <ele>613.474</ele>
        <time>2014-09-07T10:07:02Z</time>
      </trkpt>
      <trkpt lat="45.46388" lon="3.19088">
        <ele>613.284</ele>
        <time>2014-09-07T10:07:05Z</time>
      </trkpt>
      <trkpt lat="45.46402" lon="3.19073">
        <ele>613.215</ele>
        <time>2014-09-07T10:07:08Z</time>
      </trkpt>
      <trkpt lat="45.4643" lon="3.19026">
        <ele>613.719</ele>
        <time>2014-09-07T10:07:14Z</time>
      </trkpt>
      <trkpt lat="45.46462" lon="3.18974">
        <ele>613.972</ele>
        <time>2014-09-07T10:07:20Z</time>
      </trkpt>
      <trkpt lat="45.46488" lon="3.1893">
        <ele>614.373</ele>
        <time>2014-09-07T10:07:25Z</time>
      </trkpt>
      <trkpt lat="45.46492" lon="3.18923">
        <ele>614.324</ele>
        <time>2014-09-07T10:07:26Z</time>
      </trkpt>
      <trkpt lat="45.46498" lon="3.1891">
        <ele>613.802</ele>
        <time>2014-09-07T10:07:30Z</time>
      </trkpt>
      <trkpt lat="45.46509" lon="3.18895">
        <ele>613.196</ele>
        <time>2014-09-07T10:07:36Z</time>
      </trkpt>
      <trkpt lat="45.46521" lon="3.1887">
        <ele>613.396</ele>
        <time>2014-09-07T10:07:40Z</time>
      </trkpt>
      <trkpt lat="45.46537" lon="3.18828">
        <ele>613.624</ele>
        <time>2014-09-07T10:07:46Z</time>
      </trkpt>
      <trkpt lat="45.4656" lon="3.18767">
        <ele>614.785</ele>
        <time>2014-09-07T10:07:52Z</time>
      </trkpt>
      <trkpt lat="45.46582" lon="3.18718">
        <ele>616.287</ele>
        <time>2014-09-07T10:07:57Z</time>
      </trkpt>
      <trkpt lat="45.46606" lon="3.18662">
        <ele>616.72</ele>
        <time>2014-09-07T10:08:02Z</time>
      </trkpt>
      <trkpt lat="45.46629" lon="3.18591">
        <ele>616.427</ele>
        <time>2014-09-07T10:08:07Z</time>
      </trkpt>
      <trkpt lat="45.46651" lon="3.18515">
        <ele>615.523</ele>
        <time>2014-09-07T10:08:12Z</time>
      </trkpt>
      <trkpt lat="45.46657" lon="3.18465">
        <ele>614.851</ele>
        <time>2014-09-07T10:08:16Z</time>
      </trkpt>
      <trkpt lat="45.46657" lon="3.18409">
        <ele>613.754</ele>
        <time>2014-09-07T10:08:21Z</time>
      </trkpt>
      <trkpt lat="45.46655" lon="3.18377">
        <ele>612.095</ele>
        <time>2014-09-07T10:08:25Z</time>
      </trkpt>
      <trkpt lat="45.46654" lon="3.1834">
        <ele>610.804</ele>
        <time>2014-09-07T10:08:31Z</time>
      </trkpt>
      <trkpt lat="45.46654" lon="3.18333">
        <ele>610.977</ele>
        <time>2014-09-07T10:08:35Z</time>
      </trkpt>
      <trkpt lat="45.46666" lon="3.18325">
        <ele>611.651</ele>
        <time>2014-09-07T10:08:45Z</time>
      </trkpt>
      <trkpt lat="45.46681" lon="3.18325">
        <ele>613.178</ele>
        <time>2014-09-07T10:08:48Z</time>
      </trkpt>
      <trkpt lat="45.46715" lon="3.18328">
        <ele>617.094</ele>
        <time>2014-09-07T10:08:54Z</time>
      </trkpt>
      <trkpt lat="45.46753" lon="3.18335">
        <ele>624.6</ele>
        <time>2014-09-07T10:09:01Z</time>
      </trkpt>
      <trkpt lat="45.46776" lon="3.18339">
        <ele>628.123</ele>
        <time>2014-09-07T10:09:05Z</time>
      </trkpt>
      <trkpt lat="45.46785" lon="3.18329">
        <ele>629.876</ele>
        <time>2014-09-07T10:09:07Z</time>
      </trkpt>
      <trkpt lat="45.46808" lon="3.18314">
        <ele>634.376</ele>
        <time>2014-09-07T10:09:12Z</time>
      </trkpt>
      <trkpt lat="45.46827" lon="3.18316">
        <ele>637.581</ele>
        <time>2014-09-07T10:09:15Z</time>
      </trkpt>
      <trkpt lat="45.46862" lon="3.18316">
        <ele>641.029</ele>
        <time>2014-09-07T10:09:19Z</time>
      </trkpt>
      <trkpt lat="45.46886" lon="3.18314">
        <ele>644.641</ele>
        <time>2014-09-07T10:09:22Z</time>
      </trkpt>
      <trkpt lat="45.46902" lon="3.18322">
        <ele>648.005</ele>
        <time>2014-09-07T10:09:26Z</time>
      </trkpt>
      <trkpt lat="45.46903" lon="3.18325">
        <ele>648.572</ele>
        <time>2014-09-07T10:09:27Z</time>
      </trkpt>
      <trkpt lat="45.46918" lon="3.1834">
        <ele>649.18</ele>
        <time>2014-09-07T10:09:32Z</time>
      </trkpt>
      <trkpt lat="45.46923" lon="3.18335">
        <ele>648.224</ele>
        <time>2014-09-07T10:09:35Z</time>
      </trkpt>
      <trkpt lat="45.46925" lon="3.18323">
        <ele>647.22</ele>
        <time>2014-09-07T10:09:38Z</time>
      </trkpt>
      <trkpt lat="45.46926" lon="3.18275">
        <ele>648.53</ele>
        <time>2014-09-07T10:09:43Z</time>
      </trkpt>
      <trkpt lat="45.46924" lon="3.18262">
        <ele>648.542</ele>
        <time>2014-09-07T10:09:44Z</time>
      </trkpt>
      <trkpt lat="45.46925" lon="3.18199">
        <ele>652.775</ele>
        <time>2014-09-07T10:09:49Z</time>
      </trkpt>
      <trkpt lat="45.46922" lon="3.18174">
        <ele>654.662</ele>
        <time>2014-09-07T10:09:51Z</time>
      </trkpt>
      <trkpt lat="45.46916" lon="3.18147">
        <ele>657.839</ele>
        <time>2014-09-07T10:09:55Z</time>
      </trkpt>
      <trkpt lat="45.46919" lon="3.18111">
        <ele>660.187</ele>
        <time>2014-09-07T10:09:59Z</time>
      </trkpt>
      <trkpt lat="45.4693" lon="3.18086">
        <ele>661.57</ele>
        <time>2014-09-07T10:10:02Z</time>
      </trkpt>
      <trkpt lat="45.46938" lon="3.18079">
        <ele>662.241</ele>
        <time>2014-09-07T10:10:04Z</time>
      </trkpt>
      <trkpt lat="45.46948" lon="3.18069">
        <ele>662.882</ele>
        <time>2014-09-07T10:10:07Z</time>
      </trkpt>
      <trkpt lat="45.46957" lon="3.18047">
        <ele>663.312</ele>
        <time>2014-09-07T10:10:11Z</time>
      </trkpt>
      <trkpt lat="45.46959" lon="3.18035">
        <ele>663.671</ele>
        <time>2014-09-07T10:10:13Z</time>
      </trkpt>
      <trkpt lat="45.46969" lon="3.18005">
        <ele>664.805</ele>
        <time>2014-09-07T10:10:18Z</time>
      </trkpt>
      <trkpt lat="45.4697" lon="3.17998">
        <ele>665.007</ele>
        <time>2014-09-07T10:10:19Z</time>
      </trkpt>
      <trkpt lat="45.46974" lon="3.17953">
        <ele>665.895</ele>
        <time>2014-09-07T10:10:25Z</time>
      </trkpt>
      <trkpt lat="45.46977" lon="3.17905">
        <ele>666.484</ele>
        <time>2014-09-07T10:10:29Z</time>
      </trkpt>
      <trkpt lat="45.46984" lon="3.17807">
        <ele>667.294</ele>
        <time>2014-09-07T10:10:36Z</time>
      </trkpt>
      <trkpt lat="45.46986" lon="3.17767">
        <ele>667.292</ele>
        <time>2014-09-07T10:10:39Z</time>
      </trkpt>
      <trkpt lat="45.46998" lon="3.17711">
        <ele>667.593</ele>
        <time>2014-09-07T10:10:44Z</time>
      </trkpt>
      <trkpt lat="45.47016" lon="3.17649">
        <ele>668.031</ele>
        <time>2014-09-07T10:10:50Z</time>
      </trkpt>
      <trkpt lat="45.47042" lon="3.1761">
        <ele>667.679</ele>
        <time>2014-09-07T10:10:55Z</time>
      </trkpt>
      <trkpt lat="45.4708" lon="3.17558">
        <ele>667.939</ele>
        <time>2014-09-07T10:11:02Z</time>
      </trkpt>
      <trkpt lat="45.47119" lon="3.17499">
        <ele>669.336</ele>
        <time>2014-09-07T10:11:09Z</time>
      </trkpt>
      <trkpt lat="45.47125" lon="3.17488">
        <ele>669.525</ele>
        <time>2014-09-07T10:11:10Z</time>
      </trkpt>
      <trkpt lat="45.47138" lon="3.17443">
        <ele>670.833</ele>
        <time>2014-09-07T10:11:14Z</time>
      </trkpt>
      <trkpt lat="45.47138" lon="3.17411">
        <ele>672.506</ele>
        <time>2014-09-07T10:11:17Z</time>
      </trkpt>
      <trkpt lat="45.47149" lon="3.17349">
        <ele>674.576</ele>
        <time>2014-09-07T10:11:22Z</time>
      </trkpt>
      <trkpt lat="45.47158" lon="3.17312">
        <ele>674.666</ele>
        <time>2014-09-07T10:11:25Z</time>
      </trkpt>
      <trkpt lat="45.4718" lon="3.17254">
        <ele>674.665</ele>
        <time>2014-09-07T10:11:30Z</time>
      </trkpt>
      <trkpt lat="45.47189" lon="3.17215">
        <ele>674.636</ele>
        <time>2014-09-07T10:11:33Z</time>
      </trkpt>
      <trkpt lat="45.47214" lon="3.17155">
        <ele>675.031</ele>
        <time>2014-09-07T10:11:38Z</time>
      </trkpt>
      <trkpt lat="45.47219" lon="3.17143">
        <ele>675.107</ele>
        <time>2014-09-07T10:11:39Z</time>
      </trkpt>
      <trkpt lat="45.47223" lon="3.17099">
        <ele>675.51</ele>
        <time>2014-09-07T10:11:43Z</time>
      </trkpt>
      <trkpt lat="45.47231" lon="3.17058">
        <ele>675.723</ele>
        <time>2014-09-07T10:11:47Z</time>
      </trkpt>
      <trkpt lat="45.47245" lon="3.17014">
        <ele>675.737</ele>
        <time>2014-09-07T10:11:52Z</time>
      </trkpt>
      <trkpt lat="45.4725" lon="3.16976">
        <ele>675.695</ele>
        <time>2014-09-07T10:11:57Z</time>
      </trkpt>
      <trkpt lat="45.47258" lon="3.16932">
        <ele>676.706</ele>
        <time>2014-09-07T10:12:02Z</time>
      </trkpt>
      <trkpt lat="45.47264" lon="3.16915">
        <ele>676.932</ele>
        <time>2014-09-07T10:12:04Z</time>
      </trkpt>
      <trkpt lat="45.47262" lon="3.16888">
        <ele>676.774</ele>
        <time>2014-09-07T10:12:08Z</time>
      </trkpt>
      <trkpt lat="45.47259" lon="3.16881">
        <ele>676.272</ele>
        <time>2014-09-07T10:12:09Z</time>
      </trkpt>
      <trkpt lat="45.47252" lon="3.16852">
        <ele>673.966</ele>
        <time>2014-09-07T10:12:12Z</time>
      </trkpt>
      <trkpt lat="45.47255" lon="3.16796">
        <ele>670.752</ele>
        <time>2014-09-07T10:12:16Z</time>
      </trkpt>
      <trkpt lat="45.4726" lon="3.16728">
        <ele>665.519</ele>
        <time>2014-09-07T10:12:21Z</time>
      </trkpt>
      <trkpt lat="45.47265" lon="3.16704">
        <ele>663.49</ele>
        <time>2014-09-07T10:12:23Z</time>
      </trkpt>
      <trkpt lat="45.47294" lon="3.16611">
        <ele>657.53</ele>
        <time>2014-09-07T10:12:30Z</time>
      </trkpt>
      <trkpt lat="45.47302" lon="3.16571">
        <ele>655.979</ele>
        <time>2014-09-07T10:12:33Z</time>
      </trkpt>
      <trkpt lat="45.47316" lon="3.16531">
        <ele>653.991</ele>
        <time>2014-09-07T10:12:37Z</time>
      </trkpt>
      <trkpt lat="45.47329" lon="3.1649">
        <ele>651.933</ele>
        <time>2014-09-07T10:12:41Z</time>
      </trkpt>
      <trkpt lat="45.47341" lon="3.16431">
        <ele>647.161</ele>
        <time>2014-09-07T10:12:46Z</time>
      </trkpt>
      <trkpt lat="45.47346" lon="3.16405">
        <ele>644.896</ele>
        <time>2014-09-07T10:12:48Z</time>
      </trkpt>
      <trkpt lat="45.47372" lon="3.1634">
        <ele>637.351</ele>
        <time>2014-09-07T10:12:54Z</time>
      </trkpt>
      <trkpt lat="45.47377" lon="3.1633">
        <ele>636.059</ele>
        <time>2014-09-07T10:12:55Z</time>
      </trkpt>
      <trkpt lat="45.47392" lon="3.16299">
        <ele>631.949</ele>
        <time>2014-09-07T10:12:58Z</time>
      </trkpt>
      <trkpt lat="45.47406" lon="3.16248">
        <ele>625.174</ele>
        <time>2014-09-07T10:13:03Z</time>
      </trkpt>
      <trkpt lat="45.47411" lon="3.16199">
        <ele>621.227</ele>
        <time>2014-09-07T10:13:07Z</time>
      </trkpt>
      <trkpt lat="45.4741" lon="3.16148">
        <ele>616.891</ele>
        <time>2014-09-07T10:13:11Z</time>
      </trkpt>
      <trkpt lat="45.47403" lon="3.16112">
        <ele>614.321</ele>
        <time>2014-09-07T10:13:14Z</time>
      </trkpt>
      <trkpt lat="45.47377" lon="3.16048">
        <ele>610.432</ele>
        <time>2014-09-07T10:13:20Z</time>
      </trkpt>
      <trkpt lat="45.47365" lon="3.16009">
        <ele>607.786</ele>
        <time>2014-09-07T10:13:24Z</time>
      </trkpt>
      <trkpt lat="45.47365" lon="3.16">
        <ele>607.15</ele>
        <time>2014-09-07T10:13:25Z</time>
      </trkpt>
      <trkpt lat="45.47369" lon="3.15955">
        <ele>604.327</ele>
        <time>2014-09-07T10:13:29Z</time>
      </trkpt>
      <trkpt lat="45.47375" lon="3.15915">
        <ele>602.756</ele>
        <time>2014-09-07T10:13:32Z</time>
      </trkpt>
      <trkpt lat="45.47377" lon="3.15886">
        <ele>600.654</ele>
        <time>2014-09-07T10:13:34Z</time>
      </trkpt>
      <trkpt lat="45.47377" lon="3.15806">
        <ele>591.289</ele>
        <time>2014-09-07T10:13:40Z</time>
      </trkpt>
      <trkpt lat="45.47376" lon="3.15754">
        <ele>584.48</ele>
        <time>2014-09-07T10:13:44Z</time>
      </trkpt>
      <trkpt lat="45.47376" lon="3.15707">
        <ele>578.706</ele>
        <time>2014-09-07T10:13:48Z</time>
      </trkpt>
      <trkpt lat="45.47376" lon="3.15675">
        <ele>575.698</ele>
        <time>2014-09-07T10:13:51Z</time>
      </trkpt>
      <trkpt lat="45.47365" lon="3.15598">
        <ele>573.095</ele>
        <time>2014-09-07T10:13:57Z</time>
      </trkpt>
      <trkpt lat="45.47357" lon="3.15508">
        <ele>571.175</ele>
        <time>2014-09-07T10:14:03Z</time>
      </trkpt>
      <trkpt lat="45.47359" lon="3.1542">
        <ele>570.064</ele>
        <time>2014-09-07T10:14:09Z</time>
      </trkpt>
      <trkpt lat="45.47361" lon="3.1538">
        <ele>570.158</ele>
        <time>2014-09-07T10:14:12Z</time>
      </trkpt>
      <trkpt lat="45.47374" lon="3.15326">
        <ele>570.439</ele>
        <time>2014-09-07T10:14:17Z</time>
      </trkpt>
      <trkpt lat="45.4738" lon="3.15311">
        <ele>570.173</ele>
        <time>2014-09-07T10:14:20Z</time>
      </trkpt>
      <trkpt lat="45.4738" lon="3.15308">
        <ele>569.873</ele>
        <time>2014-09-07T10:14:23Z</time>
      </trkpt>
      <trkpt lat="45.47381" lon="3.15305">
        <ele>569.496</ele>
        <time>2014-09-07T10:15:05Z</time>
      </trkpt>
      <trkpt lat="45.47403" lon="3.15292">
        <ele>570.116</ele>
        <time>2014-09-07T10:15:09Z</time>
      </trkpt>
      <trkpt lat="45.4742" lon="3.15304">
        <ele>570.479</ele>
        <time>2014-09-07T10:15:11Z</time>
      </trkpt>
      <trkpt lat="45.47427" lon="3.15313">
        <ele>570.92</ele>
        <time>2014-09-07T10:15:12Z</time>
      </trkpt>
      <trkpt lat="45.47439" lon="3.15332">
        <ele>572.067</ele>
        <time>2014-09-07T10:15:14Z</time>
      </trkpt>
      <trkpt lat="45.47465" lon="3.15342">
        <ele>573.778</ele>
        <time>2014-09-07T10:15:18Z</time>
      </trkpt>
      <trkpt lat="45.47483" lon="3.15323">
        <ele>574.65</ele>
        <time>2014-09-07T10:15:21Z</time>
      </trkpt>
      <trkpt lat="45.47486" lon="3.15301">
        <ele>575.609</ele>
        <time>2014-09-07T10:15:23Z</time>
      </trkpt>
      <trkpt lat="45.4748" lon="3.15275">
        <ele>576.759</ele>
        <time>2014-09-07T10:15:25Z</time>
      </trkpt>
      <trkpt lat="45.47449" lon="3.1518">
        <ele>581.213</ele>
        <time>2014-09-07T10:15:31Z</time>
      </trkpt>
      <trkpt lat="45.47424" lon="3.15102">
        <ele>585.235</ele>
        <time>2014-09-07T10:15:36Z</time>
      </trkpt>
      <trkpt lat="45.4742" lon="3.15088">
        <ele>585.239</ele>
        <time>2014-09-07T10:15:37Z</time>
      </trkpt>
      <trkpt lat="45.47418" lon="3.15044">
        <ele>587.897</ele>
        <time>2014-09-07T10:15:41Z</time>
      </trkpt>
      <trkpt lat="45.47424" lon="3.15038">
        <ele>589</ele>
        <time>2014-09-07T10:15:43Z</time>
      </trkpt>
      <trkpt lat="45.47437" lon="3.15043">
        <ele>590.37</ele>
        <time>2014-09-07T10:15:46Z</time>
      </trkpt>
      <trkpt lat="45.47453" lon="3.15058">
        <ele>592.568</ele>
        <time>2014-09-07T10:15:49Z</time>
      </trkpt>
      <trkpt lat="45.47479" lon="3.15073">
        <ele>595.65</ele>
        <time>2014-09-07T10:15:52Z</time>
      </trkpt>
      <trkpt lat="45.47508" lon="3.15104">
        <ele>599.82</ele>
        <time>2014-09-07T10:15:56Z</time>
      </trkpt>
      <trkpt lat="45.4752" lon="3.15133">
        <ele>601.297</ele>
        <time>2014-09-07T10:15:59Z</time>
      </trkpt>
      <trkpt lat="45.47542" lon="3.15142">
        <ele>601.856</ele>
        <time>2014-09-07T10:16:02Z</time>
      </trkpt>
      <trkpt lat="45.47565" lon="3.15152">
        <ele>602.97</ele>
        <time>2014-09-07T10:16:05Z</time>
      </trkpt>
      <trkpt lat="45.47576" lon="3.15166">
        <ele>604.076</ele>
        <time>2014-09-07T10:16:07Z</time>
      </trkpt>
      <trkpt lat="45.47591" lon="3.15191">
        <ele>607.273</ele>
        <time>2014-09-07T10:16:13Z</time>
      </trkpt>
      <trkpt lat="45.47614" lon="3.15222">
        <ele>610.598</ele>
        <time>2014-09-07T10:16:22Z</time>
      </trkpt>
      <trkpt lat="45.47637" lon="3.15247">
        <ele>612.677</ele>
        <time>2014-09-07T10:16:29Z</time>
      </trkpt>
      <trkpt lat="45.47665" lon="3.15275">
        <ele>615.019</ele>
        <time>2014-09-07T10:16:35Z</time>
      </trkpt>
      <trkpt lat="45.47688" lon="3.153">
        <ele>617.089</ele>
        <time>2014-09-07T10:16:38Z</time>
      </trkpt>
      <trkpt lat="45.47729" lon="3.15318">
        <ele>619.893</ele>
        <time>2014-09-07T10:16:42Z</time>
      </trkpt>
      <trkpt lat="45.47789" lon="3.15311">
        <ele>623.085</ele>
        <time>2014-09-07T10:16:47Z</time>
      </trkpt>
      <trkpt lat="45.47846" lon="3.15325">
        <ele>626.528</ele>
        <time>2014-09-07T10:16:52Z</time>
      </trkpt>
      <trkpt lat="45.47867" lon="3.15335">
        <ele>626.776</ele>
        <time>2014-09-07T10:16:54Z</time>
      </trkpt>
      <trkpt lat="45.47902" lon="3.15339">
        <ele>626.408</ele>
        <time>2014-09-07T10:16:58Z</time>
      </trkpt>
      <trkpt lat="45.47932" lon="3.15351">
        <ele>625.48</ele>
        <time>2014-09-07T10:17:02Z</time>
      </trkpt>
      <trkpt lat="45.47975" lon="3.15405">
        <ele>626.114</ele>
        <time>2014-09-07T10:17:08Z</time>
      </trkpt>
      <trkpt lat="45.4799" lon="3.15422">
        <ele>626.388</ele>
        <time>2014-09-07T10:17:10Z</time>
      </trkpt>
      <trkpt lat="45.48028" lon="3.15465">
        <ele>624.915</ele>
        <time>2014-09-07T10:17:15Z</time>
      </trkpt>
      <trkpt lat="45.48036" lon="3.15474">
        <ele>624.273</ele>
        <time>2014-09-07T10:17:16Z</time>
      </trkpt>
      <trkpt lat="45.48053" lon="3.15485">
        <ele>623.408</ele>
        <time>2014-09-07T10:17:18Z</time>
      </trkpt>
      <trkpt lat="45.4807" lon="3.1549">
        <ele>621.607</ele>
        <time>2014-09-07T10:17:20Z</time>
      </trkpt>
      <trkpt lat="45.48106" lon="3.15494">
        <ele>619.51</ele>
        <time>2014-09-07T10:17:24Z</time>
      </trkpt>
      <trkpt lat="45.48173" lon="3.15489">
        <ele>622.72</ele>
        <time>2014-09-07T10:17:31Z</time>
      </trkpt>
      <trkpt lat="45.48201" lon="3.15485">
        <ele>624.975</ele>
        <time>2014-09-07T10:17:34Z</time>
      </trkpt>
      <trkpt lat="45.48242" lon="3.15496">
        <ele>628.058</ele>
        <time>2014-09-07T10:17:39Z</time>
      </trkpt>
      <trkpt lat="45.48268" lon="3.15508">
        <ele>628.913</ele>
        <time>2014-09-07T10:17:42Z</time>
      </trkpt>
      <trkpt lat="45.48313" lon="3.1552">
        <ele>629.195</ele>
        <time>2014-09-07T10:17:47Z</time>
      </trkpt>
      <trkpt lat="45.48329" lon="3.15525">
        <ele>629.169</ele>
        <time>2014-09-07T10:17:49Z</time>
      </trkpt>
      <trkpt lat="45.48373" lon="3.15547">
        <ele>629.614</ele>
        <time>2014-09-07T10:17:54Z</time>
      </trkpt>
      <trkpt lat="45.48407" lon="3.15561">
        <ele>630.343</ele>
        <time>2014-09-07T10:17:57Z</time>
      </trkpt>
      <trkpt lat="45.48453" lon="3.15562">
        <ele>631.568</ele>
        <time>2014-09-07T10:18:01Z</time>
      </trkpt>
      <trkpt lat="45.48489" lon="3.15583">
        <ele>632.764</ele>
        <time>2014-09-07T10:18:05Z</time>
      </trkpt>
      <trkpt lat="45.48543" lon="3.15642">
        <ele>631.205</ele>
        <time>2014-09-07T10:18:11Z</time>
      </trkpt>
      <trkpt lat="45.48564" lon="3.15657">
        <ele>629.527</ele>
        <time>2014-09-07T10:18:13Z</time>
      </trkpt>
      <trkpt lat="45.48605" lon="3.15665">
        <ele>626.709</ele>
        <time>2014-09-07T10:18:17Z</time>
      </trkpt>
      <trkpt lat="45.48625" lon="3.15661">
        <ele>625.875</ele>
        <time>2014-09-07T10:18:19Z</time>
      </trkpt>
      <trkpt lat="45.48678" lon="3.1564">
        <ele>626.407</ele>
        <time>2014-09-07T10:18:24Z</time>
      </trkpt>
      <trkpt lat="45.48719" lon="3.15608">
        <ele>627.482</ele>
        <time>2014-09-07T10:18:28Z</time>
      </trkpt>
      <trkpt lat="45.48775" lon="3.15545">
        <ele>628.632</ele>
        <time>2014-09-07T10:18:34Z</time>
      </trkpt>
      <trkpt lat="45.4882" lon="3.15492">
        <ele>628.653</ele>
        <time>2014-09-07T10:18:38Z</time>
      </trkpt>
      <trkpt lat="45.48873" lon="3.15436">
        <ele>627.924</ele>
        <time>2014-09-07T10:18:42Z</time>
      </trkpt>
      <trkpt lat="45.48884" lon="3.15424">
        <ele>627.789</ele>
        <time>2014-09-07T10:18:43Z</time>
      </trkpt>
      <trkpt lat="45.48925" lon="3.1536">
        <ele>627.212</ele>
        <time>2014-09-07T10:18:48Z</time>
      </trkpt>
      <trkpt lat="45.48941" lon="3.15331">
        <ele>627.273</ele>
        <time>2014-09-07T10:18:51Z</time>
      </trkpt>
      <trkpt lat="45.48945" lon="3.15324">
        <ele>627.286</ele>
        <time>2014-09-07T10:18:52Z</time>
      </trkpt>
      <trkpt lat="45.48951" lon="3.15307">
        <ele>627.373</ele>
        <time>2014-09-07T10:18:56Z</time>
      </trkpt>
      <trkpt lat="45.48951" lon="3.15306">
        <ele>627.427</ele>
        <time>2014-09-07T10:18:58Z</time>
      </trkpt>
      <trkpt lat="45.4895" lon="3.15304">
        <ele>627.842</ele>
        <time>2014-09-07T10:21:06Z</time>
      </trkpt>
      <trkpt lat="45.48957" lon="3.15288">
        <ele>627.892</ele>
        <time>2014-09-07T10:21:09Z</time>
      </trkpt>
      <trkpt lat="45.48973" lon="3.15254">
        <ele>628.506</ele>
        <time>2014-09-07T10:21:13Z</time>
      </trkpt>
      <trkpt lat="45.48995" lon="3.15189">
        <ele>630.551</ele>
        <time>2014-09-07T10:21:19Z</time>
      </trkpt>
      <trkpt lat="45.49006" lon="3.15152">
        <ele>631.416</ele>
        <time>2014-09-07T10:21:22Z</time>
      </trkpt>
      <trkpt lat="45.49029" lon="3.15111">
        <ele>632.369</ele>
        <time>2014-09-07T10:21:26Z</time>
      </trkpt>
      <trkpt lat="45.49089" lon="3.15037">
        <ele>633.769</ele>
        <time>2014-09-07T10:21:34Z</time>
      </trkpt>
      <trkpt lat="45.49123" lon="3.14996">
        <ele>632.735</ele>
        <time>2014-09-07T10:21:39Z</time>
      </trkpt>
      <trkpt lat="45.49131" lon="3.14985">
        <ele>631.931</ele>
        <time>2014-09-07T10:21:41Z</time>
      </trkpt>
      <trkpt lat="45.49134" lon="3.1496">
        <ele>630.797</ele>
        <time>2014-09-07T10:21:45Z</time>
      </trkpt>
      <trkpt lat="45.49126" lon="3.14942">
        <ele>631.013</ele>
        <time>2014-09-07T10:21:47Z</time>
      </trkpt>
      <trkpt lat="45.49098" lon="3.14887">
        <ele>634.127</ele>
        <time>2014-09-07T10:21:51Z</time>
      </trkpt>
      <trkpt lat="45.49056" lon="3.14799">
        <ele>641.717</ele>
        <time>2014-09-07T10:21:56Z</time>
      </trkpt>
      <trkpt lat="45.49016" lon="3.1475">
        <ele>646.695</ele>
        <time>2014-09-07T10:22:00Z</time>
      </trkpt>
      <trkpt lat="45.48971" lon="3.14716">
        <ele>652.937</ele>
        <time>2014-09-07T10:22:04Z</time>
      </trkpt>
      <trkpt lat="45.48961" lon="3.14695">
        <ele>656.427</ele>
        <time>2014-09-07T10:22:07Z</time>
      </trkpt>
      <trkpt lat="45.48966" lon="3.1468">
        <ele>658.024</ele>
        <time>2014-09-07T10:22:09Z</time>
      </trkpt>
      <trkpt lat="45.48988" lon="3.14638">
        <ele>660.068</ele>
        <time>2014-09-07T10:22:13Z</time>
      </trkpt>
      <trkpt lat="45.4901" lon="3.14601">
        <ele>661.33</ele>
        <time>2014-09-07T10:22:16Z</time>
      </trkpt>
      <trkpt lat="45.49036" lon="3.14581">
        <ele>661.179</ele>
        <time>2014-09-07T10:22:20Z</time>
      </trkpt>
      <trkpt lat="45.49087" lon="3.14575">
        <ele>659.408</ele>
        <time>2014-09-07T10:22:25Z</time>
      </trkpt>
      <trkpt lat="45.49117" lon="3.14582">
        <ele>657.923</ele>
        <time>2014-09-07T10:22:28Z</time>
      </trkpt>
      <trkpt lat="45.49148" lon="3.14578">
        <ele>655.782</ele>
        <time>2014-09-07T10:22:32Z</time>
      </trkpt>
      <trkpt lat="45.49163" lon="3.14572">
        <ele>655.098</ele>
        <time>2014-09-07T10:22:34Z</time>
      </trkpt>
      <trkpt lat="45.49188" lon="3.14548">
        <ele>654.245</ele>
        <time>2014-09-07T10:22:38Z</time>
      </trkpt>
      <trkpt lat="45.49202" lon="3.14514">
        <ele>653.951</ele>
        <time>2014-09-07T10:22:42Z</time>
      </trkpt>
      <trkpt lat="45.49206" lon="3.14483">
        <ele>654.615</ele>
        <time>2014-09-07T10:22:45Z</time>
      </trkpt>
      <trkpt lat="45.49208" lon="3.14448">
        <ele>655.837</ele>
        <time>2014-09-07T10:22:49Z</time>
      </trkpt>
      <trkpt lat="45.49211" lon="3.14429">
        <ele>656.73</ele>
        <time>2014-09-07T10:22:51Z</time>
      </trkpt>
      <trkpt lat="45.49208" lon="3.14379">
        <ele>658.54</ele>
        <time>2014-09-07T10:22:56Z</time>
      </trkpt>
      <trkpt lat="45.492" lon="3.14353">
        <ele>658.61</ele>
        <time>2014-09-07T10:22:59Z</time>
      </trkpt>
      <trkpt lat="45.49204" lon="3.14337">
        <ele>658.469</ele>
        <time>2014-09-07T10:23:01Z</time>
      </trkpt>
      <trkpt lat="45.4922" lon="3.14318">
        <ele>657.985</ele>
        <time>2014-09-07T10:23:04Z</time>
      </trkpt>
      <trkpt lat="45.49274" lon="3.14263">
        <ele>657.073</ele>
        <time>2014-09-07T10:23:11Z</time>
      </trkpt>
      <trkpt lat="45.49304" lon="3.14235">
        <ele>656.743</ele>
        <time>2014-09-07T10:23:15Z</time>
      </trkpt>
      <trkpt lat="45.49333" lon="3.14208">
        <ele>656.42</ele>
        <time>2014-09-07T10:23:20Z</time>
      </trkpt>
      <trkpt lat="45.49344" lon="3.14197">
        <ele>656.394</ele>
        <time>2014-09-07T10:23:22Z</time>
      </trkpt>
      <trkpt lat="45.49355" lon="3.14179">
        <ele>656.475</ele>
        <time>2014-09-07T10:23:26Z</time>
      </trkpt>
      <trkpt lat="45.49355" lon="3.14169">
        <ele>656.54</ele>
        <time>2014-09-07T10:23:28Z</time>
      </trkpt>
      <trkpt lat="45.49355" lon="3.14123">
        <ele>657.609</ele>
        <time>2014-09-07T10:23:33Z</time>
      </trkpt>
      <trkpt lat="45.49359" lon="3.14054">
        <ele>660.331</ele>
        <time>2014-09-07T10:23:39Z</time>
      </trkpt>
      <trkpt lat="45.49361" lon="3.14009">
        <ele>662.271</ele>
        <time>2014-09-07T10:23:43Z</time>
      </trkpt>
      <trkpt lat="45.49366" lon="3.13979">
        <ele>664.059</ele>
        <time>2014-09-07T10:23:47Z</time>
      </trkpt>
      <trkpt lat="45.49373" lon="3.1392">
        <ele>667.286</ele>
        <time>2014-09-07T10:23:54Z</time>
      </trkpt>
      <trkpt lat="45.49387" lon="3.13862">
        <ele>670.049</ele>
        <time>2014-09-07T10:24:00Z</time>
      </trkpt>
      <trkpt lat="45.49391" lon="3.13818">
        <ele>671.508</ele>
        <time>2014-09-07T10:24:04Z</time>
      </trkpt>
      <trkpt lat="45.49389" lon="3.13774">
        <ele>674.227</ele>
        <time>2014-09-07T10:24:09Z</time>
      </trkpt>
      <trkpt lat="45.49388" lon="3.13765">
        <ele>674.825</ele>
        <time>2014-09-07T10:24:10Z</time>
      </trkpt>
      <trkpt lat="45.49391" lon="3.13707">
        <ele>678.282</ele>
        <time>2014-09-07T10:24:16Z</time>
      </trkpt>
      <trkpt lat="45.49399" lon="3.13649">
        <ele>682.014</ele>
        <time>2014-09-07T10:24:22Z</time>
      </trkpt>
      <trkpt lat="45.49402" lon="3.1363">
        <ele>683.92</ele>
        <time>2014-09-07T10:24:25Z</time>
      </trkpt>
      <trkpt lat="45.49403" lon="3.13612">
        <ele>685.814</ele>
        <time>2014-09-07T10:24:28Z</time>
      </trkpt>
      <trkpt lat="45.49404" lon="3.13568">
        <ele>688.761</ele>
        <time>2014-09-07T10:24:34Z</time>
      </trkpt>
      <trkpt lat="45.49408" lon="3.1352">
        <ele>694.141</ele>
        <time>2014-09-07T10:24:41Z</time>
      </trkpt>
      <trkpt lat="45.4941" lon="3.13471">
        <ele>698.057</ele>
        <time>2014-09-07T10:24:47Z</time>
      </trkpt>
      <trkpt lat="45.49414" lon="3.13407">
        <ele>701.43</ele>
        <time>2014-09-07T10:24:54Z</time>
      </trkpt>
      <trkpt lat="45.49415" lon="3.13399">
        <ele>701.866</ele>
        <time>2014-09-07T10:24:55Z</time>
      </trkpt>
      <trkpt lat="45.49421" lon="3.13384">
        <ele>703.159</ele>
        <time>2014-09-07T10:24:59Z</time>
      </trkpt>
      <trkpt lat="45.49426" lon="3.13381">
        <ele>703.41</ele>
        <time>2014-09-07T10:25:02Z</time>
      </trkpt>
      <trkpt lat="45.4945" lon="3.13381">
        <ele>703.062</ele>
        <time>2014-09-07T10:25:06Z</time>
      </trkpt>
      <trkpt lat="45.49481" lon="3.13388">
        <ele>702.159</ele>
        <time>2014-09-07T10:25:09Z</time>
      </trkpt>
      <trkpt lat="45.49537" lon="3.13407">
        <ele>698.747</ele>
        <time>2014-09-07T10:25:14Z</time>
      </trkpt>
      <trkpt lat="45.49571" lon="3.13394">
        <ele>695.889</ele>
        <time>2014-09-07T10:25:18Z</time>
      </trkpt>
      <trkpt lat="45.49607" lon="3.13372">
        <ele>694.766</ele>
        <time>2014-09-07T10:25:22Z</time>
      </trkpt>
      <trkpt lat="45.49635" lon="3.13373">
        <ele>694.345</ele>
        <time>2014-09-07T10:25:25Z</time>
      </trkpt>
      <trkpt lat="45.49667" lon="3.13359">
        <ele>693.105</ele>
        <time>2014-09-07T10:25:29Z</time>
      </trkpt>
      <trkpt lat="45.49688" lon="3.13332">
        <ele>691.326</ele>
        <time>2014-09-07T10:25:32Z</time>
      </trkpt>
      <trkpt lat="45.49722" lon="3.13323">
        <ele>690.281</ele>
        <time>2014-09-07T10:25:36Z</time>
      </trkpt>
      <trkpt lat="45.49775" lon="3.13321">
        <ele>693.702</ele>
        <time>2014-09-07T10:25:42Z</time>
      </trkpt>
      <trkpt lat="45.49812" lon="3.13336">
        <ele>695.464</ele>
        <time>2014-09-07T10:25:46Z</time>
      </trkpt>
      <trkpt lat="45.4983" lon="3.13352">
        <ele>695.796</ele>
        <time>2014-09-07T10:25:48Z</time>
      </trkpt>
      <trkpt lat="45.49881" lon="3.1339">
        <ele>694.916</ele>
        <time>2014-09-07T10:25:53Z</time>
      </trkpt>
      <trkpt lat="45.49891" lon="3.13398">
        <ele>694.673</ele>
        <time>2014-09-07T10:25:54Z</time>
      </trkpt>
      <trkpt lat="45.49934" lon="3.13454">
        <ele>692.876</ele>
        <time>2014-09-07T10:25:59Z</time>
      </trkpt>
      <trkpt lat="45.49947" lon="3.13476">
        <ele>691.863</ele>
        <time>2014-09-07T10:26:01Z</time>
      </trkpt>
      <trkpt lat="45.49967" lon="3.13526">
        <ele>689.674</ele>
        <time>2014-09-07T10:26:05Z</time>
      </trkpt>
      <trkpt lat="45.50003" lon="3.13583">
        <ele>687.851</ele>
        <time>2014-09-07T10:26:10Z</time>
      </trkpt>
      <trkpt lat="45.50039" lon="3.13613">
        <ele>686.691</ele>
        <time>2014-09-07T10:26:14Z</time>
      </trkpt>
      <trkpt lat="45.50091" lon="3.13639">
        <ele>685.444</ele>
        <time>2014-09-07T10:26:20Z</time>
      </trkpt>
      <trkpt lat="45.50119" lon="3.13647">
        <ele>685.838</ele>
        <time>2014-09-07T10:26:23Z</time>
      </trkpt>
      <trkpt lat="45.50165" lon="3.13684">
        <ele>687.244</ele>
        <time>2014-09-07T10:26:28Z</time>
      </trkpt>
      <trkpt lat="45.50185" lon="3.13701">
        <ele>687.562</ele>
        <time>2014-09-07T10:26:30Z</time>
      </trkpt>
      <trkpt lat="45.50227" lon="3.13718">
        <ele>687.035</ele>
        <time>2014-09-07T10:26:34Z</time>
      </trkpt>
      <trkpt lat="45.50251" lon="3.13726">
        <ele>686.46</ele>
        <time>2014-09-07T10:26:37Z</time>
      </trkpt>
      <trkpt lat="45.50265" lon="3.13722">
        <ele>685.871</ele>
        <time>2014-09-07T10:26:40Z</time>
      </trkpt>
      <trkpt lat="45.50266" lon="3.13706">
        <ele>685.723</ele>
        <time>2014-09-07T10:26:42Z</time>
      </trkpt>
      <trkpt lat="45.50266" lon="3.13695">
        <ele>685.827</ele>
        <time>2014-09-07T10:26:43Z</time>
      </trkpt>
      <trkpt lat="45.50262" lon="3.13625">
        <ele>688.011</ele>
        <time>2014-09-07T10:26:48Z</time>
      </trkpt>
      <trkpt lat="45.50262" lon="3.1361">
        <ele>688.945</ele>
        <time>2014-09-07T10:26:49Z</time>
      </trkpt>
      <trkpt lat="45.50274" lon="3.13532">
        <ele>694.844</ele>
        <time>2014-09-07T10:26:54Z</time>
      </trkpt>
      <trkpt lat="45.50274" lon="3.13464">
        <ele>699.744</ele>
        <time>2014-09-07T10:26:58Z</time>
      </trkpt>
      <trkpt lat="45.50264" lon="3.13401">
        <ele>701.945</ele>
        <time>2014-09-07T10:27:01Z</time>
      </trkpt>
      <trkpt lat="45.50252" lon="3.13321">
        <ele>705.187</ele>
        <time>2014-09-07T10:27:05Z</time>
      </trkpt>
      <trkpt lat="45.50256" lon="3.13261">
        <ele>707.042</ele>
        <time>2014-09-07T10:27:09Z</time>
      </trkpt>
      <trkpt lat="45.50267" lon="3.13222">
        <ele>707.85</ele>
        <time>2014-09-07T10:27:12Z</time>
      </trkpt>
      <trkpt lat="45.50269" lon="3.13188">
        <ele>708.855</ele>
        <time>2014-09-07T10:27:16Z</time>
      </trkpt>
      <trkpt lat="45.50261" lon="3.13175">
        <ele>709.402</ele>
        <time>2014-09-07T10:27:18Z</time>
      </trkpt>
      <trkpt lat="45.50231" lon="3.13129">
        <ele>711.307</ele>
        <time>2014-09-07T10:27:22Z</time>
      </trkpt>
      <trkpt lat="45.50207" lon="3.13075">
        <ele>713.891</ele>
        <time>2014-09-07T10:27:25Z</time>
      </trkpt>
      <trkpt lat="45.502" lon="3.13055">
        <ele>713.895</ele>
        <time>2014-09-07T10:27:26Z</time>
      </trkpt>
      <trkpt lat="45.50177" lon="3.12941">
        <ele>719.065</ele>
        <time>2014-09-07T10:27:31Z</time>
      </trkpt>
      <trkpt lat="45.50153" lon="3.12805">
        <ele>725.008</ele>
        <time>2014-09-07T10:27:37Z</time>
      </trkpt>
      <trkpt lat="45.50137" lon="3.12733">
        <ele>728.447</ele>
        <time>2014-09-07T10:27:41Z</time>
      </trkpt>
      <trkpt lat="45.5012" lon="3.12624">
        <ele>734.598</ele>
        <time>2014-09-07T10:27:47Z</time>
      </trkpt>
      <trkpt lat="45.50114" lon="3.12593">
        <ele>737.058</ele>
        <time>2014-09-07T10:27:49Z</time>
      </trkpt>
      <trkpt lat="45.50096" lon="3.12557">
        <ele>739.36</ele>
        <time>2014-09-07T10:27:52Z</time>
      </trkpt>
      <trkpt lat="45.50061" lon="3.12508">
        <ele>744.083</ele>
        <time>2014-09-07T10:27:56Z</time>
      </trkpt>
      <trkpt lat="45.50054" lon="3.12494">
        <ele>745.144</ele>
        <time>2014-09-07T10:27:57Z</time>
      </trkpt>
      <trkpt lat="45.50024" lon="3.12464">
        <ele>748.504</ele>
        <time>2014-09-07T10:28:00Z</time>
      </trkpt>
      <trkpt lat="45.49962" lon="3.12425">
        <ele>753.039</ele>
        <time>2014-09-07T10:28:05Z</time>
      </trkpt>
      <trkpt lat="45.4995" lon="3.12415">
        <ele>753.928</ele>
        <time>2014-09-07T10:28:06Z</time>
      </trkpt>
      <trkpt lat="45.49894" lon="3.12343">
        <ele>760.406</ele>
        <time>2014-09-07T10:28:12Z</time>
      </trkpt>
      <trkpt lat="45.49886" lon="3.1233">
        <ele>761.608</ele>
        <time>2014-09-07T10:28:13Z</time>
      </trkpt>
      <trkpt lat="45.49864" lon="3.12273">
        <ele>765.394</ele>
        <time>2014-09-07T10:28:17Z</time>
      </trkpt>
      <trkpt lat="45.49858" lon="3.12236">
        <ele>769.556</ele>
        <time>2014-09-07T10:28:21Z</time>
      </trkpt>
      <trkpt lat="45.49855" lon="3.12209">
        <ele>771.991</ele>
        <time>2014-09-07T10:28:24Z</time>
      </trkpt>
      <trkpt lat="45.49853" lon="3.12162">
        <ele>775.981</ele>
        <time>2014-09-07T10:28:28Z</time>
      </trkpt>
      <trkpt lat="45.49854" lon="3.12133">
        <ele>779.57</ele>
        <time>2014-09-07T10:28:31Z</time>
      </trkpt>
      <trkpt lat="45.49855" lon="3.12125">
        <ele>780.615</ele>
        <time>2014-09-07T10:28:32Z</time>
      </trkpt>
      <trkpt lat="45.49851" lon="3.12072">
        <ele>784.767</ele>
        <time>2014-09-07T10:28:37Z</time>
      </trkpt>
      <trkpt lat="45.49846" lon="3.12025">
        <ele>788.21</ele>
        <time>2014-09-07T10:28:41Z</time>
      </trkpt>
      <trkpt lat="45.49844" lon="3.12005">
        <ele>789.146</ele>
        <time>2014-09-07T10:28:43Z</time>
      </trkpt>
      <trkpt lat="45.49841" lon="3.11965">
        <ele>792.338</ele>
        <time>2014-09-07T10:28:47Z</time>
      </trkpt>
      <trkpt lat="45.49839" lon="3.11886">
        <ele>798.612</ele>
        <time>2014-09-07T10:28:55Z</time>
      </trkpt>
      <trkpt lat="45.49839" lon="3.11867">
        <ele>799.988</ele>
        <time>2014-09-07T10:28:57Z</time>
      </trkpt>
      <trkpt lat="45.49837" lon="3.11824">
        <ele>803.06</ele>
        <time>2014-09-07T10:29:02Z</time>
      </trkpt>
      <trkpt lat="45.49838" lon="3.11804">
        <ele>805.385</ele>
        <time>2014-09-07T10:29:06Z</time>
      </trkpt>
      <trkpt lat="45.49838" lon="3.11802">
        <ele>806.504</ele>
        <time>2014-09-07T10:29:09Z</time>
      </trkpt>
      <trkpt lat="45.49838" lon="3.1181">
        <ele>807.174</ele>
        <time>2014-09-07T10:29:58Z</time>
      </trkpt>
      <trkpt lat="45.49841" lon="3.11804">
        <ele>807.075</ele>
        <time>2014-09-07T10:30:10Z</time>
      </trkpt>
      <trkpt lat="45.49837" lon="3.11807">
        <ele>807.49</ele>
        <time>2014-09-07T10:30:14Z</time>
      </trkpt>
      <trkpt lat="45.49837" lon="3.1181">
        <ele>807.558</ele>
        <time>2014-09-07T10:30:15Z</time>
      </trkpt>
      <trkpt lat="45.49838" lon="3.11848">
        <ele>805.806</ele>
        <time>2014-09-07T10:30:24Z</time>
      </trkpt>
      <trkpt lat="45.49838" lon="3.11884">
        <ele>803.385</ele>
        <time>2014-09-07T10:30:30Z</time>
      </trkpt>
      <trkpt lat="45.49838" lon="3.11908">
        <ele>802.109</ele>
        <time>2014-09-07T10:30:33Z</time>
      </trkpt>
      <trkpt lat="45.49839" lon="3.1194">
        <ele>800.219</ele>
        <time>2014-09-07T10:30:37Z</time>
      </trkpt>
      <trkpt lat="45.49843" lon="3.12">
        <ele>796.612</ele>
        <time>2014-09-07T10:30:43Z</time>
      </trkpt>
      <trkpt lat="45.49844" lon="3.12027">
        <ele>794.526</ele>
        <time>2014-09-07T10:30:46Z</time>
      </trkpt>
      <trkpt lat="45.49848" lon="3.12052">
        <ele>793.121</ele>
        <time>2014-09-07T10:30:49Z</time>
      </trkpt>
      <trkpt lat="45.49853" lon="3.12107">
        <ele>790.147</ele>
        <time>2014-09-07T10:30:54Z</time>
      </trkpt>
      <trkpt lat="45.49855" lon="3.12118">
        <ele>789.414</ele>
        <time>2014-09-07T10:30:55Z</time>
      </trkpt>
      <trkpt lat="45.49854" lon="3.12156">
        <ele>786.261</ele>
        <time>2014-09-07T10:30:59Z</time>
      </trkpt>
      <trkpt lat="45.49854" lon="3.12192">
        <ele>782.862</ele>
        <time>2014-09-07T10:31:03Z</time>
      </trkpt>
      <trkpt lat="45.49859" lon="3.12222">
        <ele>779.188</ele>
        <time>2014-09-07T10:31:07Z</time>
      </trkpt>
      <trkpt lat="45.49853" lon="3.12231">
        <ele>775.74</ele>
        <time>2014-09-07T10:31:11Z</time>
      </trkpt>
      <trkpt lat="45.4985" lon="3.12224">
        <ele>774.757</ele>
        <time>2014-09-07T10:31:13Z</time>
      </trkpt>
      <trkpt lat="45.49844" lon="3.12201">
        <ele>774.672</ele>
        <time>2014-09-07T10:31:16Z</time>
      </trkpt>
      <trkpt lat="45.49824" lon="3.12166">
        <ele>777.04</ele>
        <time>2014-09-07T10:31:21Z</time>
      </trkpt>
      <trkpt lat="45.49804" lon="3.12136">
        <ele>780.407</ele>
        <time>2014-09-07T10:31:26Z</time>
      </trkpt>
      <trkpt lat="45.49786" lon="3.12098">
        <ele>783.33</ele>
        <time>2014-09-07T10:31:31Z</time>
      </trkpt>
      <trkpt lat="45.49781" lon="3.12087">
        <ele>783.939</ele>
        <time>2014-09-07T10:31:32Z</time>
      </trkpt>
      <trkpt lat="45.49773" lon="3.12063">
        <ele>785.383</ele>
        <time>2014-09-07T10:31:34Z</time>
      </trkpt>
      <trkpt lat="45.49741" lon="3.11997">
        <ele>789.868</ele>
        <time>2014-09-07T10:31:39Z</time>
      </trkpt>
      <trkpt lat="45.49733" lon="3.11983">
        <ele>789.871</ele>
        <time>2014-09-07T10:31:40Z</time>
      </trkpt>
      <trkpt lat="45.49684" lon="3.11909">
        <ele>795.242</ele>
        <time>2014-09-07T10:31:46Z</time>
      </trkpt>
      <trkpt lat="45.49653" lon="3.11876">
        <ele>798.218</ele>
        <time>2014-09-07T10:31:50Z</time>
      </trkpt>
      <trkpt lat="45.49646" lon="3.1187">
        <ele>798.776</ele>
        <time>2014-09-07T10:31:51Z</time>
      </trkpt>
      <trkpt lat="45.49621" lon="3.1183">
        <ele>801.281</ele>
        <time>2014-09-07T10:31:56Z</time>
      </trkpt>
      <trkpt lat="45.49587" lon="3.11769">
        <ele>806.005</ele>
        <time>2014-09-07T10:32:02Z</time>
      </trkpt>
      <trkpt lat="45.49571" lon="3.11735">
        <ele>808.182</ele>
        <time>2014-09-07T10:32:05Z</time>
      </trkpt>
      <trkpt lat="45.49559" lon="3.11681">
        <ele>812.505</ele>
        <time>2014-09-07T10:32:09Z</time>
      </trkpt>
      <trkpt lat="45.49539" lon="3.11612">
        <ele>816.716</ele>
        <time>2014-09-07T10:32:14Z</time>
      </trkpt>
      <trkpt lat="45.49519" lon="3.11539">
        <ele>819.853</ele>
        <time>2014-09-07T10:32:19Z</time>
      </trkpt>
      <trkpt lat="45.49503" lon="3.11481">
        <ele>822.321</ele>
        <time>2014-09-07T10:32:23Z</time>
      </trkpt>
      <trkpt lat="45.49484" lon="3.11413">
        <ele>826.166</ele>
        <time>2014-09-07T10:32:28Z</time>
      </trkpt>
      <trkpt lat="45.49476" lon="3.11385">
        <ele>826.891</ele>
        <time>2014-09-07T10:32:30Z</time>
      </trkpt>
      <trkpt lat="45.49463" lon="3.11342">
        <ele>828.993</ele>
        <time>2014-09-07T10:32:33Z</time>
      </trkpt>
      <trkpt lat="45.4943" lon="3.11276">
        <ele>832.963</ele>
        <time>2014-09-07T10:32:38Z</time>
      </trkpt>
      <trkpt lat="45.49403" lon="3.11231">
        <ele>836.525</ele>
        <time>2014-09-07T10:32:42Z</time>
      </trkpt>
      <trkpt lat="45.49399" lon="3.11224">
        <ele>837.479</ele>
        <time>2014-09-07T10:32:43Z</time>
      </trkpt>
      <trkpt lat="45.49397" lon="3.11205">
        <ele>840.161</ele>
        <time>2014-09-07T10:32:47Z</time>
      </trkpt>
      <trkpt lat="45.49409" lon="3.11202">
        <ele>841.772</ele>
        <time>2014-09-07T10:32:50Z</time>
      </trkpt>
      <trkpt lat="45.49429" lon="3.11201">
        <ele>843.116</ele>
        <time>2014-09-07T10:32:53Z</time>
      </trkpt>
      <trkpt lat="45.4945" lon="3.11202">
        <ele>844.335</ele>
        <time>2014-09-07T10:32:56Z</time>
      </trkpt>
      <trkpt lat="45.49459" lon="3.11191">
        <ele>845.57</ele>
        <time>2014-09-07T10:32:58Z</time>
      </trkpt>
      <trkpt lat="45.49462" lon="3.11183">
        <ele>846.188</ele>
        <time>2014-09-07T10:32:59Z</time>
      </trkpt>
      <trkpt lat="45.49473" lon="3.11131">
        <ele>849.275</ele>
        <time>2014-09-07T10:33:04Z</time>
      </trkpt>
      <trkpt lat="45.49475" lon="3.1112">
        <ele>849.835</ele>
        <time>2014-09-07T10:33:05Z</time>
      </trkpt>
      <trkpt lat="45.49474" lon="3.11076">
        <ele>851.79</ele>
        <time>2014-09-07T10:33:09Z</time>
      </trkpt>
      <trkpt lat="45.49471" lon="3.11055">
        <ele>852.757</ele>
        <time>2014-09-07T10:33:11Z</time>
      </trkpt>
      <trkpt lat="45.49465" lon="3.11018">
        <ele>855.203</ele>
        <time>2014-09-07T10:33:15Z</time>
      </trkpt>
      <trkpt lat="45.49471" lon="3.10977">
        <ele>858.617</ele>
        <time>2014-09-07T10:33:20Z</time>
      </trkpt>
      <trkpt lat="45.49475" lon="3.1092">
        <ele>861.466</ele>
        <time>2014-09-07T10:33:25Z</time>
      </trkpt>
      <trkpt lat="45.4947" lon="3.10847">
        <ele>866.934</ele>
        <time>2014-09-07T10:33:31Z</time>
      </trkpt>
      <trkpt lat="45.49469" lon="3.10808">
        <ele>870.099</ele>
        <time>2014-09-07T10:33:35Z</time>
      </trkpt>
      <trkpt lat="45.49473" lon="3.10781">
        <ele>872.096</ele>
        <time>2014-09-07T10:33:38Z</time>
      </trkpt>
      <trkpt lat="45.49478" lon="3.10751">
        <ele>873.945</ele>
        <time>2014-09-07T10:33:41Z</time>
      </trkpt>
      <trkpt lat="45.49486" lon="3.10694">
        <ele>876.315</ele>
        <time>2014-09-07T10:33:46Z</time>
      </trkpt>
      <trkpt lat="45.49488" lon="3.10672">
        <ele>877.629</ele>
        <time>2014-09-07T10:33:48Z</time>
      </trkpt>
      <trkpt lat="45.49483" lon="3.10626">
        <ele>881.254</ele>
        <time>2014-09-07T10:33:53Z</time>
      </trkpt>
      <trkpt lat="45.49478" lon="3.10609">
        <ele>882.569</ele>
        <time>2014-09-07T10:33:55Z</time>
      </trkpt>
      <trkpt lat="45.4947" lon="3.10556">
        <ele>885.81</ele>
        <time>2014-09-07T10:34:00Z</time>
      </trkpt>
      <trkpt lat="45.49467" lon="3.10544">
        <ele>886.597</ele>
        <time>2014-09-07T10:34:01Z</time>
      </trkpt>
      <trkpt lat="45.49452" lon="3.10496">
        <ele>890.029</ele>
        <time>2014-09-07T10:34:05Z</time>
      </trkpt>
      <trkpt lat="45.49432" lon="3.10412">
        <ele>895.045</ele>
        <time>2014-09-07T10:34:12Z</time>
      </trkpt>
      <trkpt lat="45.49422" lon="3.1036">
        <ele>898.503</ele>
        <time>2014-09-07T10:34:16Z</time>
      </trkpt>
      <trkpt lat="45.49398" lon="3.10278">
        <ele>903.936</ele>
        <time>2014-09-07T10:34:22Z</time>
      </trkpt>
      <trkpt lat="45.49371" lon="3.10199">
        <ele>908.562</ele>
        <time>2014-09-07T10:34:27Z</time>
      </trkpt>
      <trkpt lat="45.49343" lon="3.1012">
        <ele>914.032</ele>
        <time>2014-09-07T10:34:32Z</time>
      </trkpt>
      <trkpt lat="45.49328" lon="3.10089">
        <ele>916.578</ele>
        <time>2014-09-07T10:34:35Z</time>
      </trkpt>
      <trkpt lat="45.49321" lon="3.10076">
        <ele>917.705</ele>
        <time>2014-09-07T10:34:38Z</time>
      </trkpt>
      <trkpt lat="45.4932" lon="3.10075">
        <ele>918.541</ele>
        <time>2014-09-07T10:34:41Z</time>
      </trkpt>
      <trkpt lat="45.49319" lon="3.10072">
        <ele>922.067</ele>
        <time>2014-09-07T10:45:57Z</time>
      </trkpt>
      <trkpt lat="45.49318" lon="3.10068">
        <ele>922.045</ele>
        <time>2014-09-07T10:45:58Z</time>
      </trkpt>
      <trkpt lat="45.49307" lon="3.10043">
        <ele>922.298</ele>
        <time>2014-09-07T10:46:02Z</time>
      </trkpt>
      <trkpt lat="45.49287" lon="3.09999">
        <ele>923.545</ele>
        <time>2014-09-07T10:46:07Z</time>
      </trkpt>
      <trkpt lat="45.49263" lon="3.09945">
        <ele>925.324</ele>
        <time>2014-09-07T10:46:12Z</time>
      </trkpt>
      <trkpt lat="45.49225" lon="3.09861">
        <ele>928.595</ele>
        <time>2014-09-07T10:46:19Z</time>
      </trkpt>
      <trkpt lat="45.49186" lon="3.09769">
        <ele>931.107</ele>
        <time>2014-09-07T10:46:26Z</time>
      </trkpt>
      <trkpt lat="45.49158" lon="3.09688">
        <ele>933.569</ele>
        <time>2014-09-07T10:46:32Z</time>
      </trkpt>
      <trkpt lat="45.4912" lon="3.09564">
        <ele>937.436</ele>
        <time>2014-09-07T10:46:41Z</time>
      </trkpt>
      <trkpt lat="45.49115" lon="3.0955">
        <ele>937.91</ele>
        <time>2014-09-07T10:46:42Z</time>
      </trkpt>
      <trkpt lat="45.49077" lon="3.09454">
        <ele>941.767</ele>
        <time>2014-09-07T10:46:49Z</time>
      </trkpt>
      <trkpt lat="45.49038" lon="3.09359">
        <ele>945.713</ele>
        <time>2014-09-07T10:46:56Z</time>
      </trkpt>
      <trkpt lat="45.49013" lon="3.09271">
        <ele>949.043</ele>
        <time>2014-09-07T10:47:02Z</time>
      </trkpt>
      <trkpt lat="45.48988" lon="3.09205">
        <ele>952.287</ele>
        <time>2014-09-07T10:47:07Z</time>
      </trkpt>
      <trkpt lat="45.48959" lon="3.09143">
        <ele>955.058</ele>
        <time>2014-09-07T10:47:12Z</time>
      </trkpt>
      <trkpt lat="45.48921" lon="3.09074">
        <ele>957.613</ele>
        <time>2014-09-07T10:47:18Z</time>
      </trkpt>
      <trkpt lat="45.4889" lon="3.09022">
        <ele>960.444</ele>
        <time>2014-09-07T10:47:23Z</time>
      </trkpt>
      <trkpt lat="45.48877" lon="3.09007">
        <ele>961.769</ele>
        <time>2014-09-07T10:47:25Z</time>
      </trkpt>
      <trkpt lat="45.4886" lon="3.08974">
        <ele>964.762</ele>
        <time>2014-09-07T10:47:29Z</time>
      </trkpt>
      <trkpt lat="45.48838" lon="3.08889">
        <ele>970.652</ele>
        <time>2014-09-07T10:47:38Z</time>
      </trkpt>
      <trkpt lat="45.48827" lon="3.08836">
        <ele>973.51</ele>
        <time>2014-09-07T10:47:43Z</time>
      </trkpt>
      <trkpt lat="45.48805" lon="3.08755">
        <ele>977.41</ele>
        <time>2014-09-07T10:47:50Z</time>
      </trkpt>
      <trkpt lat="45.48791" lon="3.08695">
        <ele>980.401</ele>
        <time>2014-09-07T10:47:55Z</time>
      </trkpt>
      <trkpt lat="45.4877" lon="3.08612">
        <ele>983.798</ele>
        <time>2014-09-07T10:48:01Z</time>
      </trkpt>
      <trkpt lat="45.4875" lon="3.08562">
        <ele>985.603</ele>
        <time>2014-09-07T10:48:05Z</time>
      </trkpt>
      <trkpt lat="45.48719" lon="3.08486">
        <ele>989.658</ele>
        <time>2014-09-07T10:48:11Z</time>
      </trkpt>
      <trkpt lat="45.48693" lon="3.0843">
        <ele>992.755</ele>
        <time>2014-09-07T10:48:16Z</time>
      </trkpt>
      <trkpt lat="45.48689" lon="3.08422">
        <ele>993.204</ele>
        <time>2014-09-07T10:48:17Z</time>
      </trkpt>
      <trkpt lat="45.48682" lon="3.08405">
        <ele>994.493</ele>
        <time>2014-09-07T10:48:21Z</time>
      </trkpt>
      <trkpt lat="45.48682" lon="3.08405">
        <ele>994.868</ele>
        <time>2014-09-07T10:48:23Z</time>
      </trkpt>
      <trkpt lat="45.48668" lon="3.08389">
        <ele>995.096</ele>
        <time>2014-09-07T10:48:31Z</time>
      </trkpt>
      <trkpt lat="45.48637" lon="3.08335">
        <ele>997.417</ele>
        <time>2014-09-07T10:48:38Z</time>
      </trkpt>
      <trkpt lat="45.48622" lon="3.0831">
        <ele>999.782</ele>
        <time>2014-09-07T10:48:41Z</time>
      </trkpt>
      <trkpt lat="45.48582" lon="3.08234">
        <ele>1006.739</ele>
        <time>2014-09-07T10:48:49Z</time>
      </trkpt>
      <trkpt lat="45.48554" lon="3.08183">
        <ele>1009.472</ele>
        <time>2014-09-07T10:48:54Z</time>
      </trkpt>
      <trkpt lat="45.48537" lon="3.08152">
        <ele>1011.285</ele>
        <time>2014-09-07T10:48:57Z</time>
      </trkpt>
      <trkpt lat="45.48493" lon="3.08079">
        <ele>1014.823</ele>
        <time>2014-09-07T10:49:04Z</time>
      </trkpt>
      <trkpt lat="45.48436" lon="3.07984">
        <ele>1019.309</ele>
        <time>2014-09-07T10:49:13Z</time>
      </trkpt>
      <trkpt lat="45.48401" lon="3.07928">
        <ele>1022.233</ele>
        <time>2014-09-07T10:49:19Z</time>
      </trkpt>
      <trkpt lat="45.48395" lon="3.07919">
        <ele>1023.402</ele>
        <time>2014-09-07T10:49:20Z</time>
      </trkpt>
      <trkpt lat="45.48362" lon="3.07854">
        <ele>1026.983</ele>
        <time>2014-09-07T10:49:27Z</time>
      </trkpt>
      <trkpt lat="45.48336" lon="3.07799">
        <ele>1030.796</ele>
        <time>2014-09-07T10:49:33Z</time>
      </trkpt>
      <trkpt lat="45.48312" lon="3.07726">
        <ele>1034.876</ele>
        <time>2014-09-07T10:49:40Z</time>
      </trkpt>
      <trkpt lat="45.48308" lon="3.07706">
        <ele>1035.911</ele>
        <time>2014-09-07T10:49:42Z</time>
      </trkpt>
      <trkpt lat="45.48305" lon="3.07661">
        <ele>1038.354</ele>
        <time>2014-09-07T10:49:47Z</time>
      </trkpt>
      <trkpt lat="45.48294" lon="3.07628">
        <ele>1041.385</ele>
        <time>2014-09-07T10:49:52Z</time>
      </trkpt>
      <trkpt lat="45.48277" lon="3.07623">
        <ele>1042.813</ele>
        <time>2014-09-07T10:49:55Z</time>
      </trkpt>
      <trkpt lat="45.48251" lon="3.07613">
        <ele>1045.114</ele>
        <time>2014-09-07T10:50:00Z</time>
      </trkpt>
      <trkpt lat="45.4822" lon="3.07584">
        <ele>1047.7</ele>
        <time>2014-09-07T10:50:05Z</time>
      </trkpt>
      <trkpt lat="45.48201" lon="3.07562">
        <ele>1049.82</ele>
        <time>2014-09-07T10:50:08Z</time>
      </trkpt>
      <trkpt lat="45.4818" lon="3.07549">
        <ele>1051.331</ele>
        <time>2014-09-07T10:50:11Z</time>
      </trkpt>
      <trkpt lat="45.48149" lon="3.07516">
        <ele>1054.741</ele>
        <time>2014-09-07T10:50:16Z</time>
      </trkpt>
      <trkpt lat="45.48136" lon="3.075">
        <ele>1055.536</ele>
        <time>2014-09-07T10:50:18Z</time>
      </trkpt>
      <trkpt lat="45.48096" lon="3.07453">
        <ele>1058.468</ele>
        <time>2014-09-07T10:50:24Z</time>
      </trkpt>
      <trkpt lat="45.48042" lon="3.07395">
        <ele>1062.364</ele>
        <time>2014-09-07T10:50:32Z</time>
      </trkpt>
      <trkpt lat="45.48016" lon="3.07367">
        <ele>1064.549</ele>
        <time>2014-09-07T10:50:36Z</time>
      </trkpt>
      <trkpt lat="45.47983" lon="3.07302">
        <ele>1068.214</ele>
        <time>2014-09-07T10:50:43Z</time>
      </trkpt>
      <trkpt lat="45.47943" lon="3.07231">
        <ele>1073.023</ele>
        <time>2014-09-07T10:50:51Z</time>
      </trkpt>
      <trkpt lat="45.47919" lon="3.07179">
        <ele>1077.268</ele>
        <time>2014-09-07T10:50:57Z</time>
      </trkpt>
      <trkpt lat="45.47902" lon="3.07147">
        <ele>1079.355</ele>
        <time>2014-09-07T10:51:01Z</time>
      </trkpt>
      <trkpt lat="45.47882" lon="3.0712">
        <ele>1081.989</ele>
        <time>2014-09-07T10:51:05Z</time>
      </trkpt>
      <trkpt lat="45.47869" lon="3.07107">
        <ele>1083.06</ele>
        <time>2014-09-07T10:51:07Z</time>
      </trkpt>
      <trkpt lat="45.47841" lon="3.07066">
        <ele>1085.701</ele>
        <time>2014-09-07T10:51:12Z</time>
      </trkpt>
      <trkpt lat="45.47823" lon="3.07017">
        <ele>1088.246</ele>
        <time>2014-09-07T10:51:17Z</time>
      </trkpt>
      <trkpt lat="45.47813" lon="3.06991">
        <ele>1089.746</ele>
        <time>2014-09-07T10:51:20Z</time>
      </trkpt>
      <trkpt lat="45.47795" lon="3.06962">
        <ele>1091.597</ele>
        <time>2014-09-07T10:51:24Z</time>
      </trkpt>
      <trkpt lat="45.47783" lon="3.06941">
        <ele>1092.288</ele>
        <time>2014-09-07T10:51:27Z</time>
      </trkpt>
      <trkpt lat="45.47774" lon="3.06928">
        <ele>1093.313</ele>
        <time>2014-09-07T10:51:30Z</time>
      </trkpt>
      <trkpt lat="45.47756" lon="3.06892">
        <ele>1094.473</ele>
        <time>2014-09-07T10:51:35Z</time>
      </trkpt>
      <trkpt lat="45.47749" lon="3.06875">
        <ele>1095.139</ele>
        <time>2014-09-07T10:51:37Z</time>
      </trkpt>
      <trkpt lat="45.47727" lon="3.06836">
        <ele>1097.425</ele>
        <time>2014-09-07T10:51:43Z</time>
      </trkpt>
      <trkpt lat="45.47696" lon="3.06793">
        <ele>1099.74</ele>
        <time>2014-09-07T10:51:50Z</time>
      </trkpt>
      <trkpt lat="45.47656" lon="3.06743">
        <ele>1101.866</ele>
        <time>2014-09-07T10:51:57Z</time>
      </trkpt>
      <trkpt lat="45.47628" lon="3.06708">
        <ele>1104.182</ele>
        <time>2014-09-07T10:52:02Z</time>
      </trkpt>
      <trkpt lat="45.47598" lon="3.06677">
        <ele>1106.581</ele>
        <time>2014-09-07T10:52:08Z</time>
      </trkpt>
      <trkpt lat="45.4757" lon="3.06645">
        <ele>1108.473</ele>
        <time>2014-09-07T10:52:14Z</time>
      </trkpt>
      <trkpt lat="45.47535" lon="3.06607">
        <ele>1110.809</ele>
        <time>2014-09-07T10:52:20Z</time>
      </trkpt>
      <trkpt lat="45.47506" lon="3.06578">
        <ele>1114.077</ele>
        <time>2014-09-07T10:52:25Z</time>
      </trkpt>
      <trkpt lat="45.47482" lon="3.06558">
        <ele>1116.663</ele>
        <time>2014-09-07T10:52:29Z</time>
      </trkpt>
      <trkpt lat="45.47447" lon="3.06531">
        <ele>1120.274</ele>
        <time>2014-09-07T10:52:34Z</time>
      </trkpt>
      <trkpt lat="45.47421" lon="3.06511">
        <ele>1123.676</ele>
        <time>2014-09-07T10:52:38Z</time>
      </trkpt>
      <trkpt lat="45.47398" lon="3.06496">
        <ele>1125.91</ele>
        <time>2014-09-07T10:52:42Z</time>
      </trkpt>
      <trkpt lat="45.4736" lon="3.06471">
        <ele>1129.621</ele>
        <time>2014-09-07T10:52:47Z</time>
      </trkpt>
      <trkpt lat="45.47318" lon="3.06444">
        <ele>1133.116</ele>
        <time>2014-09-07T10:52:52Z</time>
      </trkpt>
      <trkpt lat="45.47268" lon="3.06389">
        <ele>1137.779</ele>
        <time>2014-09-07T10:52:58Z</time>
      </trkpt>
      <trkpt lat="45.47251" lon="3.06374">
        <ele>1139.13</ele>
        <time>2014-09-07T10:53:00Z</time>
      </trkpt>
      <trkpt lat="45.47215" lon="3.06328">
        <ele>1141.907</ele>
        <time>2014-09-07T10:53:05Z</time>
      </trkpt>
      <trkpt lat="45.472" lon="3.06311">
        <ele>1142.788</ele>
        <time>2014-09-07T10:53:07Z</time>
      </trkpt>
      <trkpt lat="45.47193" lon="3.06303">
        <ele>1144.119</ele>
        <time>2014-09-07T10:53:08Z</time>
      </trkpt>
      <trkpt lat="45.4716" lon="3.06245">
        <ele>1146.828</ele>
        <time>2014-09-07T10:53:14Z</time>
      </trkpt>
      <trkpt lat="45.47132" lon="3.06189">
        <ele>1149.652</ele>
        <time>2014-09-07T10:53:20Z</time>
      </trkpt>
      <trkpt lat="45.47127" lon="3.0618">
        <ele>1149.884</ele>
        <time>2014-09-07T10:53:21Z</time>
      </trkpt>
      <trkpt lat="45.47114" lon="3.06154">
        <ele>1151.016</ele>
        <time>2014-09-07T10:53:24Z</time>
      </trkpt>
      <trkpt lat="45.47074" lon="3.06101">
        <ele>1153.891</ele>
        <time>2014-09-07T10:53:31Z</time>
      </trkpt>
      <trkpt lat="45.47046" lon="3.06058">
        <ele>1155.832</ele>
        <time>2014-09-07T10:53:36Z</time>
      </trkpt>
      <trkpt lat="45.47023" lon="3.06023">
        <ele>1157.486</ele>
        <time>2014-09-07T10:53:40Z</time>
      </trkpt>
      <trkpt lat="45.46988" lon="3.05968">
        <ele>1159.896</ele>
        <time>2014-09-07T10:53:46Z</time>
      </trkpt>
      <trkpt lat="45.4696" lon="3.05926">
        <ele>1161.929</ele>
        <time>2014-09-07T10:53:50Z</time>
      </trkpt>
      <trkpt lat="45.46928" lon="3.05872">
        <ele>1164.161</ele>
        <time>2014-09-07T10:53:54Z</time>
      </trkpt>
      <trkpt lat="45.46891" lon="3.0582">
        <ele>1166.096</ele>
        <time>2014-09-07T10:53:58Z</time>
      </trkpt>
      <trkpt lat="45.46839" lon="3.05754">
        <ele>1169.437</ele>
        <time>2014-09-07T10:54:03Z</time>
      </trkpt>
      <trkpt lat="45.4683" lon="3.05742">
        <ele>1169.663</ele>
        <time>2014-09-07T10:54:04Z</time>
      </trkpt>
      <trkpt lat="45.46799" lon="3.05701">
        <ele>1170.331</ele>
        <time>2014-09-07T10:54:08Z</time>
      </trkpt>
      <trkpt lat="45.46777" lon="3.05663">
        <ele>1169.6</ele>
        <time>2014-09-07T10:54:12Z</time>
      </trkpt>
      <trkpt lat="45.46763" lon="3.0564">
        <ele>1167.58</ele>
        <time>2014-09-07T10:54:16Z</time>
      </trkpt>
      <trkpt lat="45.46759" lon="3.05634">
        <ele>1166.51</ele>
        <time>2014-09-07T10:54:20Z</time>
      </trkpt>
      <trkpt lat="45.46759" lon="3.05634">
        <ele>1166.594</ele>
        <time>2014-09-07T10:54:21Z</time>
      </trkpt>
      <trkpt lat="45.46752" lon="3.05609">
        <ele>1167.301</ele>
        <time>2014-09-07T10:55:27Z</time>
      </trkpt>
      <trkpt lat="45.46736" lon="3.05576">
        <ele>1167.354</ele>
        <time>2014-09-07T10:55:31Z</time>
      </trkpt>
      <trkpt lat="45.46719" lon="3.05532">
        <ele>1167.446</ele>
        <time>2014-09-07T10:55:35Z</time>
      </trkpt>
      <trkpt lat="45.46696" lon="3.05466">
        <ele>1167.521</ele>
        <time>2014-09-07T10:55:40Z</time>
      </trkpt>
      <trkpt lat="45.46668" lon="3.05401">
        <ele>1166.746</ele>
        <time>2014-09-07T10:55:45Z</time>
      </trkpt>
      <trkpt lat="45.46643" lon="3.05316">
        <ele>1165.193</ele>
        <time>2014-09-07T10:55:51Z</time>
      </trkpt>
      <trkpt lat="45.4663" lon="3.05229">
        <ele>1163.747</ele>
        <time>2014-09-07T10:55:57Z</time>
      </trkpt>
      <trkpt lat="45.46613" lon="3.0515">
        <ele>1162.93</ele>
        <time>2014-09-07T10:56:03Z</time>
      </trkpt>
      <trkpt lat="45.46579" lon="3.05047">
        <ele>1159.755</ele>
        <time>2014-09-07T10:56:11Z</time>
      </trkpt>
      <trkpt lat="45.46552" lon="3.04964">
        <ele>1156.628</ele>
        <time>2014-09-07T10:56:17Z</time>
      </trkpt>
      <trkpt lat="45.46537" lon="3.04891">
        <ele>1154.518</ele>
        <time>2014-09-07T10:56:22Z</time>
      </trkpt>
      <trkpt lat="45.46517" lon="3.04824">
        <ele>1152.994</ele>
        <time>2014-09-07T10:56:27Z</time>
      </trkpt>
      <trkpt lat="45.46481" lon="3.0472">
        <ele>1150.59</ele>
        <time>2014-09-07T10:56:35Z</time>
      </trkpt>
      <trkpt lat="45.46449" lon="3.0463">
        <ele>1149.671</ele>
        <time>2014-09-07T10:56:42Z</time>
      </trkpt>
      <trkpt lat="45.46417" lon="3.04546">
        <ele>1148.901</ele>
        <time>2014-09-07T10:56:49Z</time>
      </trkpt>
      <trkpt lat="45.46409" lon="3.04522">
        <ele>1148.706</ele>
        <time>2014-09-07T10:56:51Z</time>
      </trkpt>
      <trkpt lat="45.46386" lon="3.04485">
        <ele>1148.623</ele>
        <time>2014-09-07T10:56:55Z</time>
      </trkpt>
      <trkpt lat="45.46377" lon="3.0448">
        <ele>1148.668</ele>
        <time>2014-09-07T10:56:56Z</time>
      </trkpt>
      <trkpt lat="45.46313" lon="3.04446">
        <ele>1149.971</ele>
        <time>2014-09-07T10:57:02Z</time>
      </trkpt>
      <trkpt lat="45.46264" lon="3.04416">
        <ele>1151.873</ele>
        <time>2014-09-07T10:57:07Z</time>
      </trkpt>
      <trkpt lat="45.46238" lon="3.04401">
        <ele>1152.772</ele>
        <time>2014-09-07T10:57:11Z</time>
      </trkpt>
      <trkpt lat="45.46226" lon="3.04394">
        <ele>1153.446</ele>
        <time>2014-09-07T10:57:15Z</time>
      </trkpt>
      <trkpt lat="45.46217" lon="3.04389">
        <ele>1153.793</ele>
        <time>2014-09-07T10:57:20Z</time>
      </trkpt>
      <trkpt lat="45.46217" lon="3.04389">
        <ele>1153.675</ele>
        <time>2014-09-07T10:57:22Z</time>
      </trkpt>
      <trkpt lat="45.46222" lon="3.04367">
        <ele>1153.535</ele>
        <time>2014-09-07T10:58:51Z</time>
      </trkpt>
      <trkpt lat="45.46245" lon="3.04302">
        <ele>1155.251</ele>
        <time>2014-09-07T10:58:57Z</time>
      </trkpt>
      <trkpt lat="45.46272" lon="3.04219">
        <ele>1157</ele>
        <time>2014-09-07T10:59:03Z</time>
      </trkpt>
      <trkpt lat="45.46316" lon="3.04088">
        <ele>1161.858</ele>
        <time>2014-09-07T10:59:12Z</time>
      </trkpt>
      <trkpt lat="45.46345" lon="3.04006">
        <ele>1163.527</ele>
        <time>2014-09-07T10:59:18Z</time>
      </trkpt>
      <trkpt lat="45.46351" lon="3.03984">
        <ele>1163.255</ele>
        <time>2014-09-07T10:59:20Z</time>
      </trkpt>
      <trkpt lat="45.46354" lon="3.03938">
        <ele>1161.845</ele>
        <time>2014-09-07T10:59:24Z</time>
      </trkpt>
      <trkpt lat="45.46344" lon="3.03852">
        <ele>1158.995</ele>
        <time>2014-09-07T10:59:32Z</time>
      </trkpt>
      <trkpt lat="45.46329" lon="3.0381">
        <ele>1157.488</ele>
        <time>2014-09-07T10:59:36Z</time>
      </trkpt>
      <trkpt lat="45.46307" lon="3.03788">
        <ele>1155.865</ele>
        <time>2014-09-07T10:59:39Z</time>
      </trkpt>
      <trkpt lat="45.46298" lon="3.03783">
        <ele>1155.865</ele>
        <time>2014-09-07T10:59:40Z</time>
      </trkpt>
      <trkpt lat="45.46238" lon="3.03759">
        <ele>1151.358</ele>
        <time>2014-09-07T10:59:46Z</time>
      </trkpt>
      <trkpt lat="45.46175" lon="3.03731">
        <ele>1147.942</ele>
        <time>2014-09-07T10:59:52Z</time>
      </trkpt>
      <trkpt lat="45.46128" lon="3.03703">
        <ele>1144.161</ele>
        <time>2014-09-07T10:59:57Z</time>
      </trkpt>
      <trkpt lat="45.46083" lon="3.0367">
        <ele>1140.518</ele>
        <time>2014-09-07T11:00:02Z</time>
      </trkpt>
      <trkpt lat="45.4603" lon="3.03654">
        <ele>1136.364</ele>
        <time>2014-09-07T11:00:07Z</time>
      </trkpt>
      <trkpt lat="45.45989" lon="3.03628">
        <ele>1133.064</ele>
        <time>2014-09-07T11:00:11Z</time>
      </trkpt>
      <trkpt lat="45.45931" lon="3.0358">
        <ele>1128.204</ele>
        <time>2014-09-07T11:00:17Z</time>
      </trkpt>
      <trkpt lat="45.45923" lon="3.0357">
        <ele>1128.204</ele>
        <time>2014-09-07T11:00:18Z</time>
      </trkpt>
      <trkpt lat="45.45876" lon="3.03513">
        <ele>1124.273</ele>
        <time>2014-09-07T11:00:23Z</time>
      </trkpt>
      <trkpt lat="45.45836" lon="3.03456">
        <ele>1120.8</ele>
        <time>2014-09-07T11:00:27Z</time>
      </trkpt>
      <trkpt lat="45.45796" lon="3.03403">
        <ele>1117.357</ele>
        <time>2014-09-07T11:00:31Z</time>
      </trkpt>
      <trkpt lat="45.45757" lon="3.03332">
        <ele>1112.164</ele>
        <time>2014-09-07T11:00:36Z</time>
      </trkpt>
      <trkpt lat="45.4575" lon="3.0332">
        <ele>1111.008</ele>
        <time>2014-09-07T11:00:37Z</time>
      </trkpt>
      <trkpt lat="45.45746" lon="3.03266">
        <ele>1107.436</ele>
        <time>2014-09-07T11:00:41Z</time>
      </trkpt>
      <trkpt lat="45.4575" lon="3.03252">
        <ele>1106.782</ele>
        <time>2014-09-07T11:00:42Z</time>
      </trkpt>
      <trkpt lat="45.45779" lon="3.03167">
        <ele>1103.037</ele>
        <time>2014-09-07T11:00:49Z</time>
      </trkpt>
      <trkpt lat="45.45784" lon="3.03146">
        <ele>1101.677</ele>
        <time>2014-09-07T11:00:51Z</time>
      </trkpt>
      <trkpt lat="45.45786" lon="3.03103">
        <ele>1098.978</ele>
        <time>2014-09-07T11:00:55Z</time>
      </trkpt>
      <trkpt lat="45.45782" lon="3.03083">
        <ele>1095.878</ele>
        <time>2014-09-07T11:00:59Z</time>
      </trkpt>
      <trkpt lat="45.45781" lon="3.03083">
        <ele>1094.34</ele>
        <time>2014-09-07T11:01:02Z</time>
      </trkpt>
      <trkpt lat="45.45774" lon="3.0308">
        <ele>1093.717</ele>
        <time>2014-09-07T11:01:25Z</time>
      </trkpt>
      <trkpt lat="45.45755" lon="3.03073">
        <ele>1095.19</ele>
        <time>2014-09-07T11:01:30Z</time>
      </trkpt>
      <trkpt lat="45.45725" lon="3.03069">
        <ele>1097.332</ele>
        <time>2014-09-07T11:01:35Z</time>
      </trkpt>
      <trkpt lat="45.45695" lon="3.03067">
        <ele>1100.683</ele>
        <time>2014-09-07T11:01:39Z</time>
      </trkpt>
      <trkpt lat="45.45647" lon="3.03078">
        <ele>1107.723</ele>
        <time>2014-09-07T11:01:45Z</time>
      </trkpt>
      <trkpt lat="45.45639" lon="3.03082">
        <ele>1109.212</ele>
        <time>2014-09-07T11:01:46Z</time>
      </trkpt>
      <trkpt lat="45.45607" lon="3.0308">
        <ele>1114.786</ele>
        <time>2014-09-07T11:01:50Z</time>
      </trkpt>
      <trkpt lat="45.45583" lon="3.03079">
        <ele>1118.424</ele>
        <time>2014-09-07T11:01:53Z</time>
      </trkpt>
      <trkpt lat="45.45569" lon="3.03091">
        <ele>1120.127</ele>
        <time>2014-09-07T11:01:55Z</time>
      </trkpt>
      <trkpt lat="45.45526" lon="3.03132">
        <ele>1122.003</ele>
        <time>2014-09-07T11:02:00Z</time>
      </trkpt>
      <trkpt lat="45.45493" lon="3.03155">
        <ele>1121.701</ele>
        <time>2014-09-07T11:02:03Z</time>
      </trkpt>
      <trkpt lat="45.45441" lon="3.03172">
        <ele>1119.654</ele>
        <time>2014-09-07T11:02:07Z</time>
      </trkpt>
      <trkpt lat="45.45391" lon="3.03174">
        <ele>1117.994</ele>
        <time>2014-09-07T11:02:11Z</time>
      </trkpt>
      <trkpt lat="45.45351" lon="3.03189">
        <ele>1118.383</ele>
        <time>2014-09-07T11:02:15Z</time>
      </trkpt>
      <trkpt lat="45.45305" lon="3.03215">
        <ele>1121.072</ele>
        <time>2014-09-07T11:02:19Z</time>
      </trkpt>
      <trkpt lat="45.45242" lon="3.03245">
        <ele>1123.893</ele>
        <time>2014-09-07T11:02:24Z</time>
      </trkpt>
      <trkpt lat="45.452" lon="3.03267">
        <ele>1124.25</ele>
        <time>2014-09-07T11:02:28Z</time>
      </trkpt>
      <trkpt lat="45.45158" lon="3.03272">
        <ele>1124.997</ele>
        <time>2014-09-07T11:02:32Z</time>
      </trkpt>
      <trkpt lat="45.45136" lon="3.03263">
        <ele>1125.279</ele>
        <time>2014-09-07T11:02:34Z</time>
      </trkpt>
      <trkpt lat="45.45091" lon="3.03232">
        <ele>1125.021</ele>
        <time>2014-09-07T11:02:39Z</time>
      </trkpt>
      <trkpt lat="45.45068" lon="3.03216">
        <ele>1123.862</ele>
        <time>2014-09-07T11:02:43Z</time>
      </trkpt>
      <trkpt lat="45.45057" lon="3.03211">
        <ele>1123.227</ele>
        <time>2014-09-07T11:02:47Z</time>
      </trkpt>
      <trkpt lat="45.45054" lon="3.03211">
        <ele>1123.057</ele>
        <time>2014-09-07T11:02:51Z</time>
      </trkpt>
      <trkpt lat="45.45053" lon="3.03223">
        <ele>1123.596</ele>
        <time>2014-09-07T11:04:01Z</time>
      </trkpt>
      <trkpt lat="45.45053" lon="3.03249">
        <ele>1124.406</ele>
        <time>2014-09-07T11:04:06Z</time>
      </trkpt>
      <trkpt lat="45.45049" lon="3.0329">
        <ele>1125.713</ele>
        <time>2014-09-07T11:04:11Z</time>
      </trkpt>
      <trkpt lat="45.45036" lon="3.03352">
        <ele>1128.072</ele>
        <time>2014-09-07T11:04:17Z</time>
      </trkpt>
      <trkpt lat="45.45012" lon="3.034">
        <ele>1133.65</ele>
        <time>2014-09-07T11:04:22Z</time>
      </trkpt>
      <trkpt lat="45.44996" lon="3.03445">
        <ele>1139.204</ele>
        <time>2014-09-07T11:04:26Z</time>
      </trkpt>
      <trkpt lat="45.44985" lon="3.03511">
        <ele>1145.852</ele>
        <time>2014-09-07T11:04:31Z</time>
      </trkpt>
      <trkpt lat="45.44983" lon="3.03526">
        <ele>1145.857</ele>
        <time>2014-09-07T11:04:32Z</time>
      </trkpt>
      <trkpt lat="45.4497" lon="3.0361">
        <ele>1152.871</ele>
        <time>2014-09-07T11:04:38Z</time>
      </trkpt>
      <trkpt lat="45.44967" lon="3.03639">
        <ele>1154.852</ele>
        <time>2014-09-07T11:04:41Z</time>
      </trkpt>
      <trkpt lat="45.44965" lon="3.03652">
        <ele>1155.938</ele>
        <time>2014-09-07T11:04:44Z</time>
      </trkpt>
      <trkpt lat="45.44963" lon="3.0366">
        <ele>1156.316</ele>
        <time>2014-09-07T11:04:48Z</time>
      </trkpt>
      <trkpt lat="45.44961" lon="3.03679">
        <ele>1156.414</ele>
        <time>2014-09-07T11:04:54Z</time>
      </trkpt>
      <trkpt lat="45.44961" lon="3.03681">
        <ele>1156.424</ele>
        <time>2014-09-07T11:04:57Z</time>
      </trkpt>
      <trkpt lat="45.44962" lon="3.03671">
        <ele>1155.899</ele>
        <time>2014-09-07T11:05:03Z</time>
      </trkpt>
      <trkpt lat="45.44959" lon="3.03669">
        <ele>1155.777</ele>
        <time>2014-09-07T11:05:08Z</time>
      </trkpt>
      <trkpt lat="45.44972" lon="3.03663">
        <ele>1156.501</ele>
        <time>2014-09-07T11:05:17Z</time>
      </trkpt>
      <trkpt lat="45.44981" lon="3.03675">
        <ele>1156.387</ele>
        <time>2014-09-07T11:05:20Z</time>
      </trkpt>
      <trkpt lat="45.44978" lon="3.03685">
        <ele>1156.602</ele>
        <time>2014-09-07T11:05:23Z</time>
      </trkpt>
      <trkpt lat="45.44971" lon="3.0369">
        <ele>1156.455</ele>
        <time>2014-09-07T11:05:25Z</time>
      </trkpt>
      <trkpt lat="45.44938" lon="3.03707">
        <ele>1156.781</ele>
        <time>2014-09-07T11:05:30Z</time>
      </trkpt>
      <trkpt lat="45.449" lon="3.03721">
        <ele>1157.46</ele>
        <time>2014-09-07T11:05:34Z</time>
      </trkpt>
      <trkpt lat="45.44855" lon="3.03721">
        <ele>1158.451</ele>
        <time>2014-09-07T11:05:38Z</time>
      </trkpt>
      <trkpt lat="45.44776" lon="3.03702">
        <ele>1160.743</ele>
        <time>2014-09-07T11:05:45Z</time>
      </trkpt>
      <trkpt lat="45.44719" lon="3.03701">
        <ele>1161.93</ele>
        <time>2014-09-07T11:05:50Z</time>
      </trkpt>
      <trkpt lat="45.44666" lon="3.03723">
        <ele>1163.187</ele>
        <time>2014-09-07T11:05:55Z</time>
      </trkpt>
      <trkpt lat="45.44636" lon="3.0374">
        <ele>1163.621</ele>
        <time>2014-09-07T11:05:59Z</time>
      </trkpt>
      <trkpt lat="45.44621" lon="3.0375">
        <ele>1163.318</ele>
        <time>2014-09-07T11:06:02Z</time>
      </trkpt>
      <trkpt lat="45.44618" lon="3.03751">
        <ele>1163.013</ele>
        <time>2014-09-07T11:06:06Z</time>
      </trkpt>
      <trkpt lat="45.44618" lon="3.03751">
        <ele>1162.68</ele>
        <time>2014-09-07T11:06:07Z</time>
      </trkpt>
      <trkpt lat="45.44611" lon="3.03756">
        <ele>1162.347</ele>
        <time>2014-09-07T11:06:27Z</time>
      </trkpt>
      <trkpt lat="45.44589" lon="3.03768">
        <ele>1162.744</ele>
        <time>2014-09-07T11:06:31Z</time>
      </trkpt>
      <trkpt lat="45.44561" lon="3.03778">
        <ele>1163.057</ele>
        <time>2014-09-07T11:06:35Z</time>
      </trkpt>
      <trkpt lat="45.44521" lon="3.03771">
        <ele>1163.248</ele>
        <time>2014-09-07T11:06:40Z</time>
      </trkpt>
      <trkpt lat="45.44497" lon="3.03752">
        <ele>1163.615</ele>
        <time>2014-09-07T11:06:43Z</time>
      </trkpt>
      <trkpt lat="45.4448" lon="3.03734">
        <ele>1163.909</ele>
        <time>2014-09-07T11:06:45Z</time>
      </trkpt>
      <trkpt lat="45.44439" lon="3.0371">
        <ele>1165.223</ele>
        <time>2014-09-07T11:06:49Z</time>
      </trkpt>
      <trkpt lat="45.44416" lon="3.03702">
        <ele>1165.787</ele>
        <time>2014-09-07T11:06:51Z</time>
      </trkpt>
      <trkpt lat="45.4436" lon="3.03663">
        <ele>1166.605</ele>
        <time>2014-09-07T11:06:56Z</time>
      </trkpt>
      <trkpt lat="45.4428" lon="3.03606">
        <ele>1167.81</ele>
        <time>2014-09-07T11:07:03Z</time>
      </trkpt>
      <trkpt lat="45.44227" lon="3.03591">
        <ele>1167.668</ele>
        <time>2014-09-07T11:07:07Z</time>
      </trkpt>
      <trkpt lat="45.44162" lon="3.03573">
        <ele>1165.85</ele>
        <time>2014-09-07T11:07:12Z</time>
      </trkpt>
      <trkpt lat="45.4412" lon="3.03535">
        <ele>1164.686</ele>
        <time>2014-09-07T11:07:16Z</time>
      </trkpt>
      <trkpt lat="45.44032" lon="3.034">
        <ele>1166.763</ele>
        <time>2014-09-07T11:07:26Z</time>
      </trkpt>
      <trkpt lat="45.43995" lon="3.03352">
        <ele>1168.266</ele>
        <time>2014-09-07T11:07:30Z</time>
      </trkpt>
      <trkpt lat="45.43949" lon="3.03316">
        <ele>1169.224</ele>
        <time>2014-09-07T11:07:34Z</time>
      </trkpt>
      <trkpt lat="45.43863" lon="3.03265">
        <ele>1168.329</ele>
        <time>2014-09-07T11:07:41Z</time>
      </trkpt>
      <trkpt lat="45.4379" lon="3.0325">
        <ele>1165.828</ele>
        <time>2014-09-07T11:07:46Z</time>
      </trkpt>
      <trkpt lat="45.43689" lon="3.03229">
        <ele>1161.932</ele>
        <time>2014-09-07T11:07:53Z</time>
      </trkpt>
      <trkpt lat="45.43626" lon="3.0321">
        <ele>1160.161</ele>
        <time>2014-09-07T11:07:58Z</time>
      </trkpt>
      <trkpt lat="45.43585" lon="3.03172">
        <ele>1158.835</ele>
        <time>2014-09-07T11:08:02Z</time>
      </trkpt>
      <trkpt lat="45.43571" lon="3.03127">
        <ele>1157.912</ele>
        <time>2014-09-07T11:08:05Z</time>
      </trkpt>
      <trkpt lat="45.43569" lon="3.03094">
        <ele>1157.39</ele>
        <time>2014-09-07T11:08:07Z</time>
      </trkpt>
      <trkpt lat="45.43569" lon="3.02986">
        <ele>1156.136</ele>
        <time>2014-09-07T11:08:13Z</time>
      </trkpt>
      <trkpt lat="45.43554" lon="3.02916">
        <ele>1155.656</ele>
        <time>2014-09-07T11:08:17Z</time>
      </trkpt>
      <trkpt lat="45.43529" lon="3.02876">
        <ele>1155.575</ele>
        <time>2014-09-07T11:08:20Z</time>
      </trkpt>
      <trkpt lat="45.43439" lon="3.02778">
        <ele>1153.872</ele>
        <time>2014-09-07T11:08:29Z</time>
      </trkpt>
      <trkpt lat="45.43383" lon="3.02718">
        <ele>1152.583</ele>
        <time>2014-09-07T11:08:34Z</time>
      </trkpt>
      <trkpt lat="45.43325" lon="3.02654">
        <ele>1151.781</ele>
        <time>2014-09-07T11:08:39Z</time>
      </trkpt>
      <trkpt lat="45.43303" lon="3.02605">
        <ele>1151.189</ele>
        <time>2014-09-07T11:08:42Z</time>
      </trkpt>
      <trkpt lat="45.43299" lon="3.02567">
        <ele>1150.777</ele>
        <time>2014-09-07T11:08:44Z</time>
      </trkpt>
      <trkpt lat="45.43296" lon="3.02507">
        <ele>1150.415</ele>
        <time>2014-09-07T11:08:47Z</time>
      </trkpt>
      <trkpt lat="45.43278" lon="3.02431">
        <ele>1149.975</ele>
        <time>2014-09-07T11:08:51Z</time>
      </trkpt>
      <trkpt lat="45.4325" lon="3.02381">
        <ele>1150.083</ele>
        <time>2014-09-07T11:08:54Z</time>
      </trkpt>
      <trkpt lat="45.43209" lon="3.02322">
        <ele>1150.544</ele>
        <time>2014-09-07T11:08:58Z</time>
      </trkpt>
      <trkpt lat="45.43191" lon="3.02276">
        <ele>1150.432</ele>
        <time>2014-09-07T11:09:01Z</time>
      </trkpt>
      <trkpt lat="45.43187" lon="3.02243">
        <ele>1150.081</ele>
        <time>2014-09-07T11:09:03Z</time>
      </trkpt>
      <trkpt lat="45.43167" lon="3.02181">
        <ele>1149.895</ele>
        <time>2014-09-07T11:09:07Z</time>
      </trkpt>
      <trkpt lat="45.43131" lon="3.02128">
        <ele>1150.319</ele>
        <time>2014-09-07T11:09:11Z</time>
      </trkpt>
      <trkpt lat="45.43077" lon="3.02062">
        <ele>1151.321</ele>
        <time>2014-09-07T11:09:16Z</time>
      </trkpt>
      <trkpt lat="45.43016" lon="3.01958">
        <ele>1152.471</ele>
        <time>2014-09-07T11:09:22Z</time>
      </trkpt>
      <trkpt lat="45.42916" lon="3.01788">
        <ele>1152.888</ele>
        <time>2014-09-07T11:09:32Z</time>
      </trkpt>
      <trkpt lat="45.42842" lon="3.01648">
        <ele>1154.327</ele>
        <time>2014-09-07T11:09:40Z</time>
      </trkpt>
      <trkpt lat="45.4279" lon="3.01511">
        <ele>1156.035</ele>
        <time>2014-09-07T11:09:47Z</time>
      </trkpt>
      <trkpt lat="45.42714" lon="3.01297">
        <ele>1158.483</ele>
        <time>2014-09-07T11:09:58Z</time>
      </trkpt>
      <trkpt lat="45.42699" lon="3.01213">
        <ele>1159.089</ele>
        <time>2014-09-07T11:10:02Z</time>
      </trkpt>
      <trkpt lat="45.42673" lon="3.01014">
        <ele>1160.545</ele>
        <time>2014-09-07T11:10:11Z</time>
      </trkpt>
      <trkpt lat="45.42657" lon="3.0089">
        <ele>1161.192</ele>
        <time>2014-09-07T11:10:17Z</time>
      </trkpt>
      <trkpt lat="45.42636" lon="3.00755">
        <ele>1160.924</ele>
        <time>2014-09-07T11:10:24Z</time>
      </trkpt>
      <trkpt lat="45.42613" lon="3.0066">
        <ele>1160.957</ele>
        <time>2014-09-07T11:10:29Z</time>
      </trkpt>
      <trkpt lat="45.42574" lon="3.00549">
        <ele>1160.708</ele>
        <time>2014-09-07T11:10:35Z</time>
      </trkpt>
      <trkpt lat="45.42527" lon="3.00463">
        <ele>1160.587</ele>
        <time>2014-09-07T11:10:40Z</time>
      </trkpt>
      <trkpt lat="45.42471" lon="3.00367">
        <ele>1159.998</ele>
        <time>2014-09-07T11:10:46Z</time>
      </trkpt>
      <trkpt lat="45.42423" lon="3.003">
        <ele>1158.673</ele>
        <time>2014-09-07T11:10:51Z</time>
      </trkpt>
      <trkpt lat="45.42355" lon="3.00224">
        <ele>1158.341</ele>
        <time>2014-09-07T11:10:57Z</time>
      </trkpt>
      <trkpt lat="45.42323" lon="3.00184">
        <ele>1158.302</ele>
        <time>2014-09-07T11:11:00Z</time>
      </trkpt>
      <trkpt lat="45.42299" lon="3.00117">
        <ele>1157.792</ele>
        <time>2014-09-07T11:11:04Z</time>
      </trkpt>
      <trkpt lat="45.42298" lon="3.00081">
        <ele>1157.351</ele>
        <time>2014-09-07T11:11:06Z</time>
      </trkpt>
      <trkpt lat="45.423" lon="3.0003">
        <ele>1156.234</ele>
        <time>2014-09-07T11:11:09Z</time>
      </trkpt>
      <trkpt lat="45.4229" lon="2.99979">
        <ele>1154.415</ele>
        <time>2014-09-07T11:11:13Z</time>
      </trkpt>
      <trkpt lat="45.42279" lon="2.99965">
        <ele>1153.673</ele>
        <time>2014-09-07T11:11:15Z</time>
      </trkpt>
      <trkpt lat="45.42218" lon="2.99916">
        <ele>1150.688</ele>
        <time>2014-09-07T11:11:23Z</time>
      </trkpt>
      <trkpt lat="45.42175" lon="2.99878">
        <ele>1147.681</ele>
        <time>2014-09-07T11:11:29Z</time>
      </trkpt>
      <trkpt lat="45.42154" lon="2.9985">
        <ele>1145.86</ele>
        <time>2014-09-07T11:11:33Z</time>
      </trkpt>
      <trkpt lat="45.42145" lon="2.99828">
        <ele>1145.106</ele>
        <time>2014-09-07T11:11:37Z</time>
      </trkpt>
      <trkpt lat="45.42139" lon="2.99813">
        <ele>1145.505</ele>
        <time>2014-09-07T11:11:42Z</time>
      </trkpt>
      <trkpt lat="45.42136" lon="2.99805">
        <ele>1146.51</ele>
        <time>2014-09-07T11:11:48Z</time>
      </trkpt>
      <trkpt lat="45.42137" lon="2.99805">
        <ele>1146.637</ele>
        <time>2014-09-07T11:11:49Z</time>
      </trkpt>
      <trkpt lat="45.42135" lon="2.99801">
        <ele>1146.542</ele>
        <time>2014-09-07T11:11:58Z</time>
      </trkpt>
      <trkpt lat="45.42138" lon="2.99794">
        <ele>1146.791</ele>
        <time>2014-09-07T11:12:04Z</time>
      </trkpt>
      <trkpt lat="45.42138" lon="2.99794">
        <ele>1146.848</ele>
        <time>2014-09-07T11:12:05Z</time>
      </trkpt>
      <trkpt lat="45.42135" lon="2.99787">
        <ele>1146.615</ele>
        <time>2014-09-07T11:20:56Z</time>
      </trkpt>
      <trkpt lat="45.42131" lon="2.99762">
        <ele>1146.897</ele>
        <time>2014-09-07T11:21:00Z</time>
      </trkpt>
      <trkpt lat="45.42133" lon="2.9971">
        <ele>1148.53</ele>
        <time>2014-09-07T11:21:06Z</time>
      </trkpt>
      <trkpt lat="45.42133" lon="2.99688">
        <ele>1149.341</ele>
        <time>2014-09-07T11:21:08Z</time>
      </trkpt>
      <trkpt lat="45.42138" lon="2.99653">
        <ele>1150.475</ele>
        <time>2014-09-07T11:21:11Z</time>
      </trkpt>
      <trkpt lat="45.42137" lon="2.99574">
        <ele>1152.845</ele>
        <time>2014-09-07T11:21:17Z</time>
      </trkpt>
      <trkpt lat="45.42131" lon="2.99501">
        <ele>1155.386</ele>
        <time>2014-09-07T11:21:23Z</time>
      </trkpt>
      <trkpt lat="45.42127" lon="2.99466">
        <ele>1155.945</ele>
        <time>2014-09-07T11:21:26Z</time>
      </trkpt>
      <trkpt lat="45.42123" lon="2.99441">
        <ele>1156.074</ele>
        <time>2014-09-07T11:21:28Z</time>
      </trkpt>
      <trkpt lat="45.42112" lon="2.99402">
        <ele>1155.006</ele>
        <time>2014-09-07T11:21:32Z</time>
      </trkpt>
      <trkpt lat="45.42105" lon="2.9937">
        <ele>1153.535</ele>
        <time>2014-09-07T11:21:37Z</time>
      </trkpt>
      <trkpt lat="45.42101" lon="2.99346">
        <ele>1153.365</ele>
        <time>2014-09-07T11:21:41Z</time>
      </trkpt>
      <trkpt lat="45.42094" lon="2.99309">
        <ele>1153.292</ele>
        <time>2014-09-07T11:21:47Z</time>
      </trkpt>
      <trkpt lat="45.42084" lon="2.99255">
        <ele>1153.013</ele>
        <time>2014-09-07T11:21:53Z</time>
      </trkpt>
      <trkpt lat="45.42075" lon="2.99211">
        <ele>1152.632</ele>
        <time>2014-09-07T11:21:58Z</time>
      </trkpt>
      <trkpt lat="45.42073" lon="2.99205">
        <ele>1152.535</ele>
        <time>2014-09-07T11:21:59Z</time>
      </trkpt>
      <trkpt lat="45.42069" lon="2.99181">
        <ele>1152.117</ele>
        <time>2014-09-07T11:22:04Z</time>
      </trkpt>
      <trkpt lat="45.42067" lon="2.99177">
        <ele>1152.011</ele>
        <time>2014-09-07T11:22:05Z</time>
      </trkpt>
      <trkpt lat="45.42055" lon="2.99137">
        <ele>1152.566</ele>
        <time>2014-09-07T11:22:11Z</time>
      </trkpt>
      <trkpt lat="45.42053" lon="2.99129">
        <ele>1152.716</ele>
        <time>2014-09-07T11:22:12Z</time>
      </trkpt>
      <trkpt lat="45.42046" lon="2.99087">
        <ele>1153.793</ele>
        <time>2014-09-07T11:22:17Z</time>
      </trkpt>
      <trkpt lat="45.42042" lon="2.99031">
        <ele>1155.476</ele>
        <time>2014-09-07T11:22:23Z</time>
      </trkpt>
      <trkpt lat="45.42034" lon="2.98989">
        <ele>1155.677</ele>
        <time>2014-09-07T11:22:28Z</time>
      </trkpt>
      <trkpt lat="45.42024" lon="2.98942">
        <ele>1155.532</ele>
        <time>2014-09-07T11:22:33Z</time>
      </trkpt>
      <trkpt lat="45.42018" lon="2.98892">
        <ele>1154.861</ele>
        <time>2014-09-07T11:22:38Z</time>
      </trkpt>
      <trkpt lat="45.42018" lon="2.98873">
        <ele>1154.679</ele>
        <time>2014-09-07T11:22:40Z</time>
      </trkpt>
      <trkpt lat="45.42012" lon="2.9883">
        <ele>1153.8</ele>
        <time>2014-09-07T11:22:45Z</time>
      </trkpt>
      <trkpt lat="45.42011" lon="2.98821">
        <ele>1153.643</ele>
        <time>2014-09-07T11:22:46Z</time>
      </trkpt>
      <trkpt lat="45.4201" lon="2.98776">
        <ele>1153.045</ele>
        <time>2014-09-07T11:22:51Z</time>
      </trkpt>
      <trkpt lat="45.42013" lon="2.98712">
        <ele>1151.599</ele>
        <time>2014-09-07T11:22:57Z</time>
      </trkpt>
      <trkpt lat="45.42012" lon="2.98671">
        <ele>1149.6</ele>
        <time>2014-09-07T11:23:01Z</time>
      </trkpt>
      <trkpt lat="45.42017" lon="2.98636">
        <ele>1147.163</ele>
        <time>2014-09-07T11:23:06Z</time>
      </trkpt>
      <trkpt lat="45.4202" lon="2.98624">
        <ele>1145.45</ele>
        <time>2014-09-07T11:23:10Z</time>
      </trkpt>
      <trkpt lat="45.42021" lon="2.98609">
        <ele>1144.854</ele>
        <time>2014-09-07T11:23:13Z</time>
      </trkpt>
      <trkpt lat="45.42023" lon="2.98577">
        <ele>1143.125</ele>
        <time>2014-09-07T11:23:19Z</time>
      </trkpt>
      <trkpt lat="45.42024" lon="2.98552">
        <ele>1141.492</ele>
        <time>2014-09-07T11:23:24Z</time>
      </trkpt>
      <trkpt lat="45.42025" lon="2.98518">
        <ele>1140.192</ele>
        <time>2014-09-07T11:23:28Z</time>
      </trkpt>
      <trkpt lat="45.42021" lon="2.98457">
        <ele>1137.432</ele>
        <time>2014-09-07T11:23:34Z</time>
      </trkpt>
      <trkpt lat="45.42019" lon="2.98438">
        <ele>1136.2</ele>
        <time>2014-09-07T11:23:36Z</time>
      </trkpt>
      <trkpt lat="45.42016" lon="2.98421">
        <ele>1135.508</ele>
        <time>2014-09-07T11:23:38Z</time>
      </trkpt>
      <trkpt lat="45.4201" lon="2.98403">
        <ele>1134.704</ele>
        <time>2014-09-07T11:23:41Z</time>
      </trkpt>
      <trkpt lat="45.42001" lon="2.9838">
        <ele>1133.674</ele>
        <time>2014-09-07T11:23:47Z</time>
      </trkpt>
      <trkpt lat="45.41997" lon="2.98341">
        <ele>1133.452</ele>
        <time>2014-09-07T11:23:53Z</time>
      </trkpt>
      <trkpt lat="45.4199" lon="2.98314">
        <ele>1132.875</ele>
        <time>2014-09-07T11:23:58Z</time>
      </trkpt>
      <trkpt lat="45.41982" lon="2.98294">
        <ele>1131.438</ele>
        <time>2014-09-07T11:24:05Z</time>
      </trkpt>
      <trkpt lat="45.41981" lon="2.98274">
        <ele>1131.612</ele>
        <time>2014-09-07T11:24:11Z</time>
      </trkpt>
      <trkpt lat="45.41981" lon="2.98255">
        <ele>1131.494</ele>
        <time>2014-09-07T11:24:17Z</time>
      </trkpt>
      <trkpt lat="45.41982" lon="2.98221">
        <ele>1132.647</ele>
        <time>2014-09-07T11:24:25Z</time>
      </trkpt>
      <trkpt lat="45.41976" lon="2.98202">
        <ele>1133.635</ele>
        <time>2014-09-07T11:24:30Z</time>
      </trkpt>
      <trkpt lat="45.41964" lon="2.98184">
        <ele>1135.185</ele>
        <time>2014-09-07T11:24:36Z</time>
      </trkpt>
      <trkpt lat="45.41962" lon="2.98165">
        <ele>1136.819</ele>
        <time>2014-09-07T11:24:41Z</time>
      </trkpt>
      <trkpt lat="45.41959" lon="2.98137">
        <ele>1138.657</ele>
        <time>2014-09-07T11:24:47Z</time>
      </trkpt>
      <trkpt lat="45.41953" lon="2.98106">
        <ele>1141.418</ele>
        <time>2014-09-07T11:24:53Z</time>
      </trkpt>
      <trkpt lat="45.41945" lon="2.98071">
        <ele>1143.875</ele>
        <time>2014-09-07T11:24:59Z</time>
      </trkpt>
      <trkpt lat="45.41938" lon="2.98047">
        <ele>1145.526</ele>
        <time>2014-09-07T11:25:03Z</time>
      </trkpt>
      <trkpt lat="45.41933" lon="2.9803">
        <ele>1146.746</ele>
        <time>2014-09-07T11:25:07Z</time>
      </trkpt>
      <trkpt lat="45.41922" lon="2.98001">
        <ele>1148.61</ele>
        <time>2014-09-07T11:25:14Z</time>
      </trkpt>
      <trkpt lat="45.41911" lon="2.97972">
        <ele>1151</ele>
        <time>2014-09-07T11:25:21Z</time>
      </trkpt>
      <trkpt lat="45.41899" lon="2.97954">
        <ele>1151.997</ele>
        <time>2014-09-07T11:25:25Z</time>
      </trkpt>
      <trkpt lat="45.41872" lon="2.97905">
        <ele>1154.422</ele>
        <time>2014-09-07T11:25:32Z</time>
      </trkpt>
      <trkpt lat="45.41837" lon="2.97843">
        <ele>1157.437</ele>
        <time>2014-09-07T11:25:40Z</time>
      </trkpt>
      <trkpt lat="45.41803" lon="2.97788">
        <ele>1160.582</ele>
        <time>2014-09-07T11:25:46Z</time>
      </trkpt>
      <trkpt lat="45.41772" lon="2.97734">
        <ele>1164.144</ele>
        <time>2014-09-07T11:25:51Z</time>
      </trkpt>
      <trkpt lat="45.4174" lon="2.97667">
        <ele>1168.441</ele>
        <time>2014-09-07T11:25:56Z</time>
      </trkpt>
      <trkpt lat="45.41706" lon="2.97593">
        <ele>1174.284</ele>
        <time>2014-09-07T11:26:01Z</time>
      </trkpt>
      <trkpt lat="45.41693" lon="2.9756">
        <ele>1175.516</ele>
        <time>2014-09-07T11:26:03Z</time>
      </trkpt>
      <trkpt lat="45.41683" lon="2.97528">
        <ele>1177.497</ele>
        <time>2014-09-07T11:26:05Z</time>
      </trkpt>
      <trkpt lat="45.4168" lon="2.97468">
        <ele>1180.915</ele>
        <time>2014-09-07T11:26:09Z</time>
      </trkpt>
      <trkpt lat="45.41676" lon="2.97399">
        <ele>1184.373</ele>
        <time>2014-09-07T11:26:13Z</time>
      </trkpt>
      <trkpt lat="45.41674" lon="2.97306">
        <ele>1188.569</ele>
        <time>2014-09-07T11:26:18Z</time>
      </trkpt>
      <trkpt lat="45.41677" lon="2.9724">
        <ele>1190.804</ele>
        <time>2014-09-07T11:26:22Z</time>
      </trkpt>
      <trkpt lat="45.41662" lon="2.97172">
        <ele>1190.284</ele>
        <time>2014-09-07T11:26:26Z</time>
      </trkpt>
      <trkpt lat="45.41616" lon="2.97076">
        <ele>1187.943</ele>
        <time>2014-09-07T11:26:32Z</time>
      </trkpt>
      <trkpt lat="45.41546" lon="2.96952">
        <ele>1189.232</ele>
        <time>2014-09-07T11:26:40Z</time>
      </trkpt>
      <trkpt lat="45.41515" lon="2.96882">
        <ele>1191.749</ele>
        <time>2014-09-07T11:26:44Z</time>
      </trkpt>
      <trkpt lat="45.41476" lon="2.9678">
        <ele>1197.834</ele>
        <time>2014-09-07T11:26:50Z</time>
      </trkpt>
      <trkpt lat="45.41458" lon="2.96735">
        <ele>1200.08</ele>
        <time>2014-09-07T11:26:53Z</time>
      </trkpt>
      <trkpt lat="45.41433" lon="2.96665">
        <ele>1204.984</ele>
        <time>2014-09-07T11:26:57Z</time>
      </trkpt>
      <trkpt lat="45.41405" lon="2.96582">
        <ele>1210.193</ele>
        <time>2014-09-07T11:27:02Z</time>
      </trkpt>
      <trkpt lat="45.41392" lon="2.96539">
        <ele>1212.115</ele>
        <time>2014-09-07T11:27:05Z</time>
      </trkpt>
      <trkpt lat="45.41374" lon="2.96499">
        <ele>1213.851</ele>
        <time>2014-09-07T11:27:09Z</time>
      </trkpt>
      <trkpt lat="45.41367" lon="2.96483">
        <ele>1214.515</ele>
        <time>2014-09-07T11:27:12Z</time>
      </trkpt>
      <trkpt lat="45.41366" lon="2.9648">
        <ele>1214.889</ele>
        <time>2014-09-07T11:27:16Z</time>
      </trkpt>
      <trkpt lat="45.41377" lon="2.9647">
        <ele>1215.516</ele>
        <time>2014-09-07T11:27:33Z</time>
      </trkpt>
      <trkpt lat="45.41404" lon="2.96457">
        <ele>1215.814</ele>
        <time>2014-09-07T11:27:37Z</time>
      </trkpt>
      <trkpt lat="45.41441" lon="2.96434">
        <ele>1216.016</ele>
        <time>2014-09-07T11:27:41Z</time>
      </trkpt>
      <trkpt lat="45.41494" lon="2.96394">
        <ele>1215.719</ele>
        <time>2014-09-07T11:27:47Z</time>
      </trkpt>
      <trkpt lat="45.4154" lon="2.96362">
        <ele>1214.599</ele>
        <time>2014-09-07T11:27:52Z</time>
      </trkpt>
      <trkpt lat="45.41581" lon="2.96356">
        <ele>1214.209</ele>
        <time>2014-09-07T11:27:56Z</time>
      </trkpt>
      <trkpt lat="45.41613" lon="2.96336">
        <ele>1214.485</ele>
        <time>2014-09-07T11:28:00Z</time>
      </trkpt>
      <trkpt lat="45.41623" lon="2.96299">
        <ele>1214.867</ele>
        <time>2014-09-07T11:28:03Z</time>
      </trkpt>
      <trkpt lat="45.41642" lon="2.96199">
        <ele>1216.069</ele>
        <time>2014-09-07T11:28:10Z</time>
      </trkpt>
      <trkpt lat="45.41646" lon="2.96138">
        <ele>1216.726</ele>
        <time>2014-09-07T11:28:14Z</time>
      </trkpt>
      <trkpt lat="45.41636" lon="2.96077">
        <ele>1217.326</ele>
        <time>2014-09-07T11:28:18Z</time>
      </trkpt>
      <trkpt lat="45.41598" lon="2.95952">
        <ele>1215.985</ele>
        <time>2014-09-07T11:28:26Z</time>
      </trkpt>
      <trkpt lat="45.41596" lon="2.95905">
        <ele>1214.379</ele>
        <time>2014-09-07T11:28:29Z</time>
      </trkpt>
      <trkpt lat="45.41606" lon="2.95877">
        <ele>1213.381</ele>
        <time>2014-09-07T11:28:31Z</time>
      </trkpt>
      <trkpt lat="45.41625" lon="2.95803">
        <ele>1211.789</ele>
        <time>2014-09-07T11:28:36Z</time>
      </trkpt>
      <trkpt lat="45.41624" lon="2.95787">
        <ele>1211.525</ele>
        <time>2014-09-07T11:28:37Z</time>
      </trkpt>
      <trkpt lat="45.41615" lon="2.95704">
        <ele>1209.525</ele>
        <time>2014-09-07T11:28:42Z</time>
      </trkpt>
      <trkpt lat="45.41622" lon="2.95642">
        <ele>1207.556</ele>
        <time>2014-09-07T11:28:46Z</time>
      </trkpt>
      <trkpt lat="45.41627" lon="2.95628">
        <ele>1207.037</ele>
        <time>2014-09-07T11:28:47Z</time>
      </trkpt>
      <trkpt lat="45.41657" lon="2.95552">
        <ele>1204.274</ele>
        <time>2014-09-07T11:28:53Z</time>
      </trkpt>
      <trkpt lat="45.41661" lon="2.95542">
        <ele>1203.865</ele>
        <time>2014-09-07T11:28:54Z</time>
      </trkpt>
      <trkpt lat="45.4169" lon="2.95506">
        <ele>1201.705</ele>
        <time>2014-09-07T11:28:59Z</time>
      </trkpt>
      <trkpt lat="45.41699" lon="2.955">
        <ele>1201.706</ele>
        <time>2014-09-07T11:29:00Z</time>
      </trkpt>
      <trkpt lat="45.41754" lon="2.9547">
        <ele>1199.858</ele>
        <time>2014-09-07T11:29:05Z</time>
      </trkpt>
      <trkpt lat="45.41791" lon="2.9546">
        <ele>1198.159</ele>
        <time>2014-09-07T11:29:08Z</time>
      </trkpt>
      <trkpt lat="45.41832" lon="2.9543">
        <ele>1195.156</ele>
        <time>2014-09-07T11:29:12Z</time>
      </trkpt>
      <trkpt lat="45.41843" lon="2.95402">
        <ele>1193.502</ele>
        <time>2014-09-07T11:29:14Z</time>
      </trkpt>
      <trkpt lat="45.41869" lon="2.95318">
        <ele>1190.415</ele>
        <time>2014-09-07T11:29:19Z</time>
      </trkpt>
      <trkpt lat="45.41882" lon="2.95282">
        <ele>1189.133</ele>
        <time>2014-09-07T11:29:21Z</time>
      </trkpt>
      <trkpt lat="45.41902" lon="2.95183">
        <ele>1186.463</ele>
        <time>2014-09-07T11:29:26Z</time>
      </trkpt>
      <trkpt lat="45.41937" lon="2.95096">
        <ele>1181.897</ele>
        <time>2014-09-07T11:29:31Z</time>
      </trkpt>
      <trkpt lat="45.41967" lon="2.95038">
        <ele>1177.999</ele>
        <time>2014-09-07T11:29:35Z</time>
      </trkpt>
      <trkpt lat="45.42" lon="2.95005">
        <ele>1174.248</ele>
        <time>2014-09-07T11:29:39Z</time>
      </trkpt>
      <trkpt lat="45.4204" lon="2.95003">
        <ele>1171.344</ele>
        <time>2014-09-07T11:29:43Z</time>
      </trkpt>
      <trkpt lat="45.4205" lon="2.95006">
        <ele>1170.666</ele>
        <time>2014-09-07T11:29:44Z</time>
      </trkpt>
      <trkpt lat="45.42071" lon="2.95013">
        <ele>1169.439</ele>
        <time>2014-09-07T11:29:46Z</time>
      </trkpt>
      <trkpt lat="45.42111" lon="2.95009">
        <ele>1167.384</ele>
        <time>2014-09-07T11:29:50Z</time>
      </trkpt>
      <trkpt lat="45.42172" lon="2.94998">
        <ele>1163.802</ele>
        <time>2014-09-07T11:29:56Z</time>
      </trkpt>
      <trkpt lat="45.42195" lon="2.94996">
        <ele>1162.766</ele>
        <time>2014-09-07T11:29:58Z</time>
      </trkpt>
      <trkpt lat="45.4223" lon="2.95002">
        <ele>1160.627</ele>
        <time>2014-09-07T11:30:01Z</time>
      </trkpt>
      <trkpt lat="45.42278" lon="2.95">
        <ele>1157.728</ele>
        <time>2014-09-07T11:30:05Z</time>
      </trkpt>
      <trkpt lat="45.42341" lon="2.94996">
        <ele>1153.645</ele>
        <time>2014-09-07T11:30:10Z</time>
      </trkpt>
      <trkpt lat="45.42353" lon="2.94996">
        <ele>1152.751</ele>
        <time>2014-09-07T11:30:11Z</time>
      </trkpt>
      <trkpt lat="45.42417" lon="2.94974">
        <ele>1149.018</ele>
        <time>2014-09-07T11:30:16Z</time>
      </trkpt>
      <trkpt lat="45.42483" lon="2.9495">
        <ele>1144.748</ele>
        <time>2014-09-07T11:30:21Z</time>
      </trkpt>
      <trkpt lat="45.42543" lon="2.94939">
        <ele>1141.052</ele>
        <time>2014-09-07T11:30:25Z</time>
      </trkpt>
      <trkpt lat="45.42602" lon="2.94924">
        <ele>1137.425</ele>
        <time>2014-09-07T11:30:29Z</time>
      </trkpt>
      <trkpt lat="45.42647" lon="2.94904">
        <ele>1134.61</ele>
        <time>2014-09-07T11:30:32Z</time>
      </trkpt>
      <trkpt lat="45.42711" lon="2.94879">
        <ele>1129.006</ele>
        <time>2014-09-07T11:30:37Z</time>
      </trkpt>
      <trkpt lat="45.42723" lon="2.94874">
        <ele>1129.005</ele>
        <time>2014-09-07T11:30:38Z</time>
      </trkpt>
      <trkpt lat="45.42734" lon="2.94868">
        <ele>1127.919</ele>
        <time>2014-09-07T11:30:39Z</time>
      </trkpt>
      <trkpt lat="45.42772" lon="2.94824">
        <ele>1124.331</ele>
        <time>2014-09-07T11:30:43Z</time>
      </trkpt>
      <trkpt lat="45.42779" lon="2.94809">
        <ele>1123.385</ele>
        <time>2014-09-07T11:30:44Z</time>
      </trkpt>
      <trkpt lat="45.42832" lon="2.94715">
        <ele>1117.576</ele>
        <time>2014-09-07T11:30:51Z</time>
      </trkpt>
      <trkpt lat="45.42867" lon="2.947">
        <ele>1113.857</ele>
        <time>2014-09-07T11:30:55Z</time>
      </trkpt>
      <trkpt lat="45.42882" lon="2.94714">
        <ele>1112.2</ele>
        <time>2014-09-07T11:30:57Z</time>
      </trkpt>
      <trkpt lat="45.4289" lon="2.94723">
        <ele>1111.429</ele>
        <time>2014-09-07T11:30:58Z</time>
      </trkpt>
      <trkpt lat="45.42924" lon="2.9476">
        <ele>1109.044</ele>
        <time>2014-09-07T11:31:02Z</time>
      </trkpt>
      <trkpt lat="45.42953" lon="2.94777">
        <ele>1107.885</ele>
        <time>2014-09-07T11:31:05Z</time>
      </trkpt>
      <trkpt lat="45.42983" lon="2.94768">
        <ele>1105.808</ele>
        <time>2014-09-07T11:31:08Z</time>
      </trkpt>
      <trkpt lat="45.42993" lon="2.94757">
        <ele>1104.907</ele>
        <time>2014-09-07T11:31:09Z</time>
      </trkpt>
      <trkpt lat="45.4303" lon="2.94729">
        <ele>1101.931</ele>
        <time>2014-09-07T11:31:13Z</time>
      </trkpt>
      <trkpt lat="45.43076" lon="2.94708">
        <ele>1098.982</ele>
        <time>2014-09-07T11:31:17Z</time>
      </trkpt>
      <trkpt lat="45.43129" lon="2.94677">
        <ele>1095.911</ele>
        <time>2014-09-07T11:31:21Z</time>
      </trkpt>
      <trkpt lat="45.43141" lon="2.94667">
        <ele>1095.037</ele>
        <time>2014-09-07T11:31:22Z</time>
      </trkpt>
      <trkpt lat="45.43176" lon="2.94604">
        <ele>1090.954</ele>
        <time>2014-09-07T11:31:27Z</time>
      </trkpt>
      <trkpt lat="45.43206" lon="2.9459">
        <ele>1088.451</ele>
        <time>2014-09-07T11:31:31Z</time>
      </trkpt>
      <trkpt lat="45.4322" lon="2.94596">
        <ele>1086.849</ele>
        <time>2014-09-07T11:31:33Z</time>
      </trkpt>
      <trkpt lat="45.43274" lon="2.94589">
        <ele>1083.358</ele>
        <time>2014-09-07T11:31:39Z</time>
      </trkpt>
      <trkpt lat="45.43333" lon="2.94554">
        <ele>1080.806</ele>
        <time>2014-09-07T11:31:44Z</time>
      </trkpt>
      <trkpt lat="45.43382" lon="2.94517">
        <ele>1078.249</ele>
        <time>2014-09-07T11:31:48Z</time>
      </trkpt>
      <trkpt lat="45.43435" lon="2.94486">
        <ele>1074.979</ele>
        <time>2014-09-07T11:31:52Z</time>
      </trkpt>
      <trkpt lat="45.43459" lon="2.94476">
        <ele>1074.199</ele>
        <time>2014-09-07T11:31:54Z</time>
      </trkpt>
      <trkpt lat="45.43489" lon="2.94468">
        <ele>1071.313</ele>
        <time>2014-09-07T11:31:57Z</time>
      </trkpt>
      <trkpt lat="45.43522" lon="2.94445">
        <ele>1068.78</ele>
        <time>2014-09-07T11:32:00Z</time>
      </trkpt>
      <trkpt lat="45.43548" lon="2.94395">
        <ele>1065.745</ele>
        <time>2014-09-07T11:32:04Z</time>
      </trkpt>
      <trkpt lat="45.43552" lon="2.94381">
        <ele>1065.144</ele>
        <time>2014-09-07T11:32:05Z</time>
      </trkpt>
      <trkpt lat="45.43581" lon="2.94307">
        <ele>1062.49</ele>
        <time>2014-09-07T11:32:10Z</time>
      </trkpt>
      <trkpt lat="45.43587" lon="2.94233">
        <ele>1059.688</ele>
        <time>2014-09-07T11:32:14Z</time>
      </trkpt>
      <trkpt lat="45.43582" lon="2.94177">
        <ele>1057.156</ele>
        <time>2014-09-07T11:32:17Z</time>
      </trkpt>
      <trkpt lat="45.43574" lon="2.94143">
        <ele>1056.342</ele>
        <time>2014-09-07T11:32:19Z</time>
      </trkpt>
      <trkpt lat="45.43551" lon="2.94066">
        <ele>1052.397</ele>
        <time>2014-09-07T11:32:24Z</time>
      </trkpt>
      <trkpt lat="45.43545" lon="2.9405">
        <ele>1051.678</ele>
        <time>2014-09-07T11:32:25Z</time>
      </trkpt>
      <trkpt lat="45.43529" lon="2.93982">
        <ele>1048.692</ele>
        <time>2014-09-07T11:32:29Z</time>
      </trkpt>
      <trkpt lat="45.43528" lon="2.9397">
        <ele>1048.018</ele>
        <time>2014-09-07T11:32:30Z</time>
      </trkpt>
      <trkpt lat="45.43509" lon="2.93948">
        <ele>1045.737</ele>
        <time>2014-09-07T11:32:33Z</time>
      </trkpt>
      <trkpt lat="45.435" lon="2.93947">
        <ele>1045.07</ele>
        <time>2014-09-07T11:32:34Z</time>
      </trkpt>
      <trkpt lat="45.43473" lon="2.93876">
        <ele>1039.358</ele>
        <time>2014-09-07T11:32:46Z</time>
      </trkpt>
      <trkpt lat="45.43489" lon="2.93846">
        <ele>1037.88</ele>
        <time>2014-09-07T11:32:50Z</time>
      </trkpt>
      <trkpt lat="45.43504" lon="2.93828">
        <ele>1036.385</ele>
        <time>2014-09-07T11:32:54Z</time>
      </trkpt>
      <trkpt lat="45.43525" lon="2.93814">
        <ele>1035.351</ele>
        <time>2014-09-07T11:32:57Z</time>
      </trkpt>
      <trkpt lat="45.43541" lon="2.93801">
        <ele>1034.853</ele>
        <time>2014-09-07T11:32:59Z</time>
      </trkpt>
      <trkpt lat="45.43585" lon="2.93758">
        <ele>1032.577</ele>
        <time>2014-09-07T11:33:04Z</time>
      </trkpt>
      <trkpt lat="45.43611" lon="2.93727">
        <ele>1030.114</ele>
        <time>2014-09-07T11:33:08Z</time>
      </trkpt>
      <trkpt lat="45.43624" lon="2.9372">
        <ele>1029.644</ele>
        <time>2014-09-07T11:33:10Z</time>
      </trkpt>
      <trkpt lat="45.43661" lon="2.93709">
        <ele>1027.676</ele>
        <time>2014-09-07T11:33:14Z</time>
      </trkpt>
      <trkpt lat="45.43705" lon="2.93696">
        <ele>1025.663</ele>
        <time>2014-09-07T11:33:18Z</time>
      </trkpt>
      <trkpt lat="45.43738" lon="2.93681">
        <ele>1023.929</ele>
        <time>2014-09-07T11:33:21Z</time>
      </trkpt>
      <trkpt lat="45.4379" lon="2.93636">
        <ele>1020.684</ele>
        <time>2014-09-07T11:33:26Z</time>
      </trkpt>
      <trkpt lat="45.43855" lon="2.93575">
        <ele>1016.783</ele>
        <time>2014-09-07T11:33:32Z</time>
      </trkpt>
      <trkpt lat="45.43872" lon="2.93553">
        <ele>1015.593</ele>
        <time>2014-09-07T11:33:34Z</time>
      </trkpt>
      <trkpt lat="45.43888" lon="2.93495">
        <ele>1014.363</ele>
        <time>2014-09-07T11:33:38Z</time>
      </trkpt>
      <trkpt lat="45.43887" lon="2.93478">
        <ele>1014.147</ele>
        <time>2014-09-07T11:33:39Z</time>
      </trkpt>
      <trkpt lat="45.43914" lon="2.93407">
        <ele>1013.87</ele>
        <time>2014-09-07T11:33:44Z</time>
      </trkpt>
      <trkpt lat="45.43927" lon="2.934">
        <ele>1013.83</ele>
        <time>2014-09-07T11:33:45Z</time>
      </trkpt>
      <trkpt lat="45.43973" lon="2.93324">
        <ele>1013.254</ele>
        <time>2014-09-07T11:33:51Z</time>
      </trkpt>
      <trkpt lat="45.44006" lon="2.93265">
        <ele>1012.486</ele>
        <time>2014-09-07T11:33:56Z</time>
      </trkpt>
      <trkpt lat="45.44021" lon="2.93222">
        <ele>1012.312</ele>
        <time>2014-09-07T11:33:59Z</time>
      </trkpt>
      <trkpt lat="45.44023" lon="2.93191">
        <ele>1012.008</ele>
        <time>2014-09-07T11:34:02Z</time>
      </trkpt>
      <trkpt lat="45.4401" lon="2.93157">
        <ele>1011.752</ele>
        <time>2014-09-07T11:34:04Z</time>
      </trkpt>
      <trkpt lat="45.44" lon="2.93105">
        <ele>1010.92</ele>
        <time>2014-09-07T11:34:07Z</time>
      </trkpt>
      <trkpt lat="45.44013" lon="2.93057">
        <ele>1009.543</ele>
        <time>2014-09-07T11:34:10Z</time>
      </trkpt>
      <trkpt lat="45.44039" lon="2.9297">
        <ele>1005.995</ele>
        <time>2014-09-07T11:34:16Z</time>
      </trkpt>
      <trkpt lat="45.44047" lon="2.92916">
        <ele>1003.629</ele>
        <time>2014-09-07T11:34:20Z</time>
      </trkpt>
      <trkpt lat="45.44049" lon="2.92905">
        <ele>1002.991</ele>
        <time>2014-09-07T11:34:21Z</time>
      </trkpt>
      <trkpt lat="45.44047" lon="2.92852">
        <ele>1001.458</ele>
        <time>2014-09-07T11:34:25Z</time>
      </trkpt>
      <trkpt lat="45.44061" lon="2.92823">
        <ele>999.853</ele>
        <time>2014-09-07T11:34:29Z</time>
      </trkpt>
      <trkpt lat="45.44077" lon="2.92813">
        <ele>999.508</ele>
        <time>2014-09-07T11:34:31Z</time>
      </trkpt>
      <trkpt lat="45.44124" lon="2.92786">
        <ele>1000.223</ele>
        <time>2014-09-07T11:34:36Z</time>
      </trkpt>
      <trkpt lat="45.44154" lon="2.92757">
        <ele>1001.759</ele>
        <time>2014-09-07T11:34:40Z</time>
      </trkpt>
      <trkpt lat="45.44162" lon="2.92741">
        <ele>1002.405</ele>
        <time>2014-09-07T11:34:42Z</time>
      </trkpt>
      <trkpt lat="45.44174" lon="2.92714">
        <ele>1003.782</ele>
        <time>2014-09-07T11:34:47Z</time>
      </trkpt>
      <trkpt lat="45.44175" lon="2.92694">
        <ele>1004.727</ele>
        <time>2014-09-07T11:34:50Z</time>
      </trkpt>
      <trkpt lat="45.44174" lon="2.92689">
        <ele>1004.725</ele>
        <time>2014-09-07T11:34:51Z</time>
      </trkpt>
      <trkpt lat="45.44167" lon="2.92667">
        <ele>1006.053</ele>
        <time>2014-09-07T11:34:55Z</time>
      </trkpt>
      <trkpt lat="45.44168" lon="2.92632">
        <ele>1007.076</ele>
        <time>2014-09-07T11:35:00Z</time>
      </trkpt>
      <trkpt lat="45.44177" lon="2.92614">
        <ele>1007.261</ele>
        <time>2014-09-07T11:35:03Z</time>
      </trkpt>
      <trkpt lat="45.4421" lon="2.92577">
        <ele>1007.396</ele>
        <time>2014-09-07T11:35:09Z</time>
      </trkpt>
      <trkpt lat="45.44254" lon="2.92525">
        <ele>1007.235</ele>
        <time>2014-09-07T11:35:16Z</time>
      </trkpt>
      <trkpt lat="45.44276" lon="2.92484">
        <ele>1007.278</ele>
        <time>2014-09-07T11:35:19Z</time>
      </trkpt>
      <trkpt lat="45.44323" lon="2.92394">
        <ele>1007.39</ele>
        <time>2014-09-07T11:35:25Z</time>
      </trkpt>
      <trkpt lat="45.44343" lon="2.92351">
        <ele>1007.118</ele>
        <time>2014-09-07T11:35:28Z</time>
      </trkpt>
      <trkpt lat="45.44355" lon="2.92287">
        <ele>1007.03</ele>
        <time>2014-09-07T11:35:32Z</time>
      </trkpt>
      <trkpt lat="45.44349" lon="2.9224">
        <ele>1007.816</ele>
        <time>2014-09-07T11:35:35Z</time>
      </trkpt>
      <trkpt lat="45.44329" lon="2.922">
        <ele>1009.179</ele>
        <time>2014-09-07T11:35:38Z</time>
      </trkpt>
      <trkpt lat="45.443" lon="2.92169">
        <ele>1010.494</ele>
        <time>2014-09-07T11:35:41Z</time>
      </trkpt>
      <trkpt lat="45.44275" lon="2.92129">
        <ele>1012.663</ele>
        <time>2014-09-07T11:35:44Z</time>
      </trkpt>
      <trkpt lat="45.4427" lon="2.92097">
        <ele>1014.038</ele>
        <time>2014-09-07T11:35:46Z</time>
      </trkpt>
      <trkpt lat="45.44255" lon="2.92025">
        <ele>1016.918</ele>
        <time>2014-09-07T11:35:51Z</time>
      </trkpt>
      <trkpt lat="45.44227" lon="2.92">
        <ele>1018.647</ele>
        <time>2014-09-07T11:35:54Z</time>
      </trkpt>
      <trkpt lat="45.44205" lon="2.91985">
        <ele>1019.895</ele>
        <time>2014-09-07T11:35:56Z</time>
      </trkpt>
      <trkpt lat="45.44165" lon="2.91939">
        <ele>1022.652</ele>
        <time>2014-09-07T11:36:00Z</time>
      </trkpt>
      <trkpt lat="45.44115" lon="2.91862">
        <ele>1026.912</ele>
        <time>2014-09-07T11:36:05Z</time>
      </trkpt>
      <trkpt lat="45.44103" lon="2.91849">
        <ele>1026.909</ele>
        <time>2014-09-07T11:36:06Z</time>
      </trkpt>
      <trkpt lat="45.44027" lon="2.91781">
        <ele>1032.674</ele>
        <time>2014-09-07T11:36:12Z</time>
      </trkpt>
      <trkpt lat="45.4395" lon="2.91712">
        <ele>1037.725</ele>
        <time>2014-09-07T11:36:18Z</time>
      </trkpt>
      <trkpt lat="45.43892" lon="2.91651">
        <ele>1041.795</ele>
        <time>2014-09-07T11:36:23Z</time>
      </trkpt>
      <trkpt lat="45.43846" lon="2.9161">
        <ele>1044.619</ele>
        <time>2014-09-07T11:36:27Z</time>
      </trkpt>
      <trkpt lat="45.43831" lon="2.9159">
        <ele>1046.025</ele>
        <time>2014-09-07T11:36:29Z</time>
      </trkpt>
      <trkpt lat="45.4381" lon="2.9157">
        <ele>1047.664</ele>
        <time>2014-09-07T11:36:32Z</time>
      </trkpt>
      <trkpt lat="45.43798" lon="2.91554">
        <ele>1050.435</ele>
        <time>2014-09-07T11:36:35Z</time>
      </trkpt>
      <trkpt lat="45.43805" lon="2.91536">
        <ele>1053.04</ele>
        <time>2014-09-07T11:36:38Z</time>
      </trkpt>
      <trkpt lat="45.43825" lon="2.91542">
        <ele>1054.539</ele>
        <time>2014-09-07T11:36:40Z</time>
      </trkpt>
      <trkpt lat="45.43837" lon="2.91548">
        <ele>1055.242</ele>
        <time>2014-09-07T11:36:41Z</time>
      </trkpt>
      <trkpt lat="45.43889" lon="2.91577">
        <ele>1059.153</ele>
        <time>2014-09-07T11:36:45Z</time>
      </trkpt>
      <trkpt lat="45.43955" lon="2.91621">
        <ele>1066.553</ele>
        <time>2014-09-07T11:36:50Z</time>
      </trkpt>
      <trkpt lat="45.44002" lon="2.9165">
        <ele>1073.456</ele>
        <time>2014-09-07T11:36:54Z</time>
      </trkpt>
      <trkpt lat="45.44033" lon="2.91668">
        <ele>1076.594</ele>
        <time>2014-09-07T11:36:57Z</time>
      </trkpt>
      <trkpt lat="45.44096" lon="2.91701">
        <ele>1085.048</ele>
        <time>2014-09-07T11:37:03Z</time>
      </trkpt>
      <trkpt lat="45.44148" lon="2.91709">
        <ele>1092.238</ele>
        <time>2014-09-07T11:37:08Z</time>
      </trkpt>
      <trkpt lat="45.44197" lon="2.91702">
        <ele>1099.281</ele>
        <time>2014-09-07T11:37:13Z</time>
      </trkpt>
      <trkpt lat="45.44252" lon="2.91679">
        <ele>1104.521</ele>
        <time>2014-09-07T11:37:18Z</time>
      </trkpt>
      <trkpt lat="45.44291" lon="2.91659">
        <ele>1107.084</ele>
        <time>2014-09-07T11:37:22Z</time>
      </trkpt>
      <trkpt lat="45.44324" lon="2.91648">
        <ele>1110.275</ele>
        <time>2014-09-07T11:37:27Z</time>
      </trkpt>
      <trkpt lat="45.44349" lon="2.91617">
        <ele>1112.269</ele>
        <time>2014-09-07T11:37:31Z</time>
      </trkpt>
      <trkpt lat="45.44357" lon="2.91586">
        <ele>1113.838</ele>
        <time>2014-09-07T11:37:35Z</time>
      </trkpt>
      <trkpt lat="45.44352" lon="2.91566">
        <ele>1115.255</ele>
        <time>2014-09-07T11:37:38Z</time>
      </trkpt>
      <trkpt lat="45.44349" lon="2.91559">
        <ele>1115.962</ele>
        <time>2014-09-07T11:37:39Z</time>
      </trkpt>
      <trkpt lat="45.44336" lon="2.91509">
        <ele>1121.459</ele>
        <time>2014-09-07T11:37:45Z</time>
      </trkpt>
      <trkpt lat="45.44332" lon="2.91483">
        <ele>1123.221</ele>
        <time>2014-09-07T11:37:48Z</time>
      </trkpt>
      <trkpt lat="45.44311" lon="2.91436">
        <ele>1127.72</ele>
        <time>2014-09-07T11:37:53Z</time>
      </trkpt>
      <trkpt lat="45.44286" lon="2.914">
        <ele>1130.305</ele>
        <time>2014-09-07T11:37:57Z</time>
      </trkpt>
      <trkpt lat="45.44255" lon="2.91373">
        <ele>1131.745</ele>
        <time>2014-09-07T11:38:01Z</time>
      </trkpt>
      <trkpt lat="45.44204" lon="2.91343">
        <ele>1132.386</ele>
        <time>2014-09-07T11:38:07Z</time>
      </trkpt>
      <trkpt lat="45.44187" lon="2.91319">
        <ele>1131.593</ele>
        <time>2014-09-07T11:38:11Z</time>
      </trkpt>
      <trkpt lat="45.44186" lon="2.91303">
        <ele>1131.682</ele>
        <time>2014-09-07T11:38:13Z</time>
      </trkpt>
      <trkpt lat="45.44183" lon="2.91241">
        <ele>1133.685</ele>
        <time>2014-09-07T11:38:21Z</time>
      </trkpt>
      <trkpt lat="45.44181" lon="2.91215">
        <ele>1134.688</ele>
        <time>2014-09-07T11:38:26Z</time>
      </trkpt>
      <trkpt lat="45.4418" lon="2.91208">
        <ele>1135.009</ele>
        <time>2014-09-07T11:38:28Z</time>
      </trkpt>
      <trkpt lat="45.44172" lon="2.91206">
        <ele>1135.794</ele>
        <time>2014-09-07T11:38:33Z</time>
      </trkpt>
      <trkpt lat="45.44171" lon="2.91207">
        <ele>1135.688</ele>
        <time>2014-09-07T11:38:34Z</time>
      </trkpt>
      <trkpt lat="45.44167" lon="2.91211">
        <ele>1135.175</ele>
        <time>2014-09-07T11:38:39Z</time>
      </trkpt>
      <trkpt lat="45.44175" lon="2.91195">
        <ele>1122.183</ele>
        <time>2014-09-07T13:41:39Z</time>
      </trkpt>
      <trkpt lat="45.44175" lon="2.9121">
        <ele>1120.771</ele>
        <time>2014-09-07T13:41:49Z</time>
      </trkpt>
      <trkpt lat="45.4418" lon="2.91211">
        <ele>1121.33</ele>
        <time>2014-09-07T13:41:53Z</time>
      </trkpt>
      <trkpt lat="45.4418" lon="2.91207">
        <ele>1120.995</ele>
        <time>2014-09-07T13:41:56Z</time>
      </trkpt>
      <trkpt lat="45.44184" lon="2.91201">
        <ele>1121.855</ele>
        <time>2014-09-07T13:42:02Z</time>
      </trkpt>
      <trkpt lat="45.44187" lon="2.91213">
        <ele>1121.865</ele>
        <time>2014-09-07T13:42:06Z</time>
      </trkpt>
      <trkpt lat="45.44188" lon="2.91245">
        <ele>1121.252</ele>
        <time>2014-09-07T13:42:12Z</time>
      </trkpt>
      <trkpt lat="45.44188" lon="2.91257">
        <ele>1120.563</ele>
        <time>2014-09-07T13:42:16Z</time>
      </trkpt>
      <trkpt lat="45.44188" lon="2.91257">
        <ele>1120.173</ele>
        <time>2014-09-07T13:42:18Z</time>
      </trkpt>
      <trkpt lat="45.44187" lon="2.91276">
        <ele>1119.995</ele>
        <time>2014-09-07T13:42:38Z</time>
      </trkpt>
      <trkpt lat="45.4419" lon="2.9132">
        <ele>1119.249</ele>
        <time>2014-09-07T13:42:43Z</time>
      </trkpt>
      <trkpt lat="45.44201" lon="2.91343">
        <ele>1117.856</ele>
        <time>2014-09-07T13:42:47Z</time>
      </trkpt>
      <trkpt lat="45.44212" lon="2.91351">
        <ele>1117.642</ele>
        <time>2014-09-07T13:42:49Z</time>
      </trkpt>
      <trkpt lat="45.4426" lon="2.91377">
        <ele>1118.264</ele>
        <time>2014-09-07T13:42:56Z</time>
      </trkpt>
      <trkpt lat="45.44289" lon="2.91407">
        <ele>1118.161</ele>
        <time>2014-09-07T13:43:01Z</time>
      </trkpt>
      <trkpt lat="45.44301" lon="2.91424">
        <ele>1117.464</ele>
        <time>2014-09-07T13:43:05Z</time>
      </trkpt>
      <trkpt lat="45.44315" lon="2.91446">
        <ele>1116.94</ele>
        <time>2014-09-07T13:43:09Z</time>
      </trkpt>
      <trkpt lat="45.44323" lon="2.91462">
        <ele>1116.35</ele>
        <time>2014-09-07T13:43:11Z</time>
      </trkpt>
      <trkpt lat="45.44335" lon="2.91509">
        <ele>1114.845</ele>
        <time>2014-09-07T13:43:16Z</time>
      </trkpt>
      <trkpt lat="45.44342" lon="2.91547">
        <ele>1111.604</ele>
        <time>2014-09-07T13:43:20Z</time>
      </trkpt>
      <trkpt lat="45.44351" lon="2.91571">
        <ele>1108.733</ele>
        <time>2014-09-07T13:43:23Z</time>
      </trkpt>
      <trkpt lat="45.44352" lon="2.91601">
        <ele>1104.45</ele>
        <time>2014-09-07T13:43:27Z</time>
      </trkpt>
      <trkpt lat="45.44343" lon="2.91616">
        <ele>1102.738</ele>
        <time>2014-09-07T13:43:29Z</time>
      </trkpt>
      <trkpt lat="45.44332" lon="2.9163">
        <ele>1101.377</ele>
        <time>2014-09-07T13:43:31Z</time>
      </trkpt>
      <trkpt lat="45.44306" lon="2.91644">
        <ele>1099.808</ele>
        <time>2014-09-07T13:43:35Z</time>
      </trkpt>
      <trkpt lat="45.44298" lon="2.91644">
        <ele>1099.286</ele>
        <time>2014-09-07T13:43:36Z</time>
      </trkpt>
      <trkpt lat="45.44272" lon="2.91647">
        <ele>1097.975</ele>
        <time>2014-09-07T13:43:39Z</time>
      </trkpt>
      <trkpt lat="45.4424" lon="2.91665">
        <ele>1096.749</ele>
        <time>2014-09-07T13:43:43Z</time>
      </trkpt>
      <trkpt lat="45.44219" lon="2.91685">
        <ele>1095.634</ele>
        <time>2014-09-07T13:43:46Z</time>
      </trkpt>
      <trkpt lat="45.44185" lon="2.91696">
        <ele>1093.027</ele>
        <time>2014-09-07T13:43:50Z</time>
      </trkpt>
      <trkpt lat="45.44137" lon="2.91703">
        <ele>1088.52</ele>
        <time>2014-09-07T13:43:55Z</time>
      </trkpt>
      <trkpt lat="45.44093" lon="2.91695">
        <ele>1083.574</ele>
        <time>2014-09-07T13:43:59Z</time>
      </trkpt>
      <trkpt lat="45.44032" lon="2.91668">
        <ele>1076.603</ele>
        <time>2014-09-07T13:44:04Z</time>
      </trkpt>
      <trkpt lat="45.44019" lon="2.91661">
        <ele>1076.606</ele>
        <time>2014-09-07T13:44:05Z</time>
      </trkpt>
      <trkpt lat="45.43951" lon="2.91622">
        <ele>1068.422</ele>
        <time>2014-09-07T13:44:10Z</time>
      </trkpt>
      <trkpt lat="45.43868" lon="2.91569">
        <ele>1057.531</ele>
        <time>2014-09-07T13:44:16Z</time>
      </trkpt>
      <trkpt lat="45.43833" lon="2.9155">
        <ele>1052.294</ele>
        <time>2014-09-07T13:44:19Z</time>
      </trkpt>
      <trkpt lat="45.43816" lon="2.91542">
        <ele>1049.257</ele>
        <time>2014-09-07T13:44:21Z</time>
      </trkpt>
      <trkpt lat="45.43801" lon="2.91545">
        <ele>1045.599</ele>
        <time>2014-09-07T13:44:24Z</time>
      </trkpt>
      <trkpt lat="45.43799" lon="2.91558">
        <ele>1043.837</ele>
        <time>2014-09-07T13:44:26Z</time>
      </trkpt>
      <trkpt lat="45.43809" lon="2.9157">
        <ele>1042.18</ele>
        <time>2014-09-07T13:44:28Z</time>
      </trkpt>
      <trkpt lat="45.43824" lon="2.91578">
        <ele>1041.354</ele>
        <time>2014-09-07T13:44:30Z</time>
      </trkpt>
      <trkpt lat="45.43842" lon="2.91598">
        <ele>1038.873</ele>
        <time>2014-09-07T13:44:33Z</time>
      </trkpt>
      <trkpt lat="45.43892" lon="2.91655">
        <ele>1032.909</ele>
        <time>2014-09-07T13:44:40Z</time>
      </trkpt>
      <trkpt lat="45.43919" lon="2.91684">
        <ele>1031.368</ele>
        <time>2014-09-07T13:44:43Z</time>
      </trkpt>
      <trkpt lat="45.43962" lon="2.91727">
        <ele>1029.745</ele>
        <time>2014-09-07T13:44:47Z</time>
      </trkpt>
      <trkpt lat="45.44034" lon="2.91792">
        <ele>1025.84</ele>
        <time>2014-09-07T13:44:53Z</time>
      </trkpt>
      <trkpt lat="45.44071" lon="2.91824">
        <ele>1024.442</ele>
        <time>2014-09-07T13:44:56Z</time>
      </trkpt>
      <trkpt lat="45.44118" lon="2.91869">
        <ele>1021.558</ele>
        <time>2014-09-07T13:45:00Z</time>
      </trkpt>
      <trkpt lat="45.44161" lon="2.91937">
        <ele>1017.028</ele>
        <time>2014-09-07T13:45:05Z</time>
      </trkpt>
      <trkpt lat="45.44169" lon="2.91951">
        <ele>1016.035</ele>
        <time>2014-09-07T13:45:06Z</time>
      </trkpt>
      <trkpt lat="45.44208" lon="2.91995">
        <ele>1013.036</ele>
        <time>2014-09-07T13:45:10Z</time>
      </trkpt>
      <trkpt lat="45.4424" lon="2.92018">
        <ele>1011.072</ele>
        <time>2014-09-07T13:45:13Z</time>
      </trkpt>
      <trkpt lat="45.44266" lon="2.92061">
        <ele>1008.045</ele>
        <time>2014-09-07T13:45:17Z</time>
      </trkpt>
      <trkpt lat="45.44267" lon="2.92075">
        <ele>1007.286</ele>
        <time>2014-09-07T13:45:18Z</time>
      </trkpt>
      <trkpt lat="45.44268" lon="2.92103">
        <ele>1005.912</ele>
        <time>2014-09-07T13:45:20Z</time>
      </trkpt>
      <trkpt lat="45.44281" lon="2.92154">
        <ele>1004.172</ele>
        <time>2014-09-07T13:45:24Z</time>
      </trkpt>
      <trkpt lat="45.44296" lon="2.92173">
        <ele>1003.093</ele>
        <time>2014-09-07T13:45:26Z</time>
      </trkpt>
      <trkpt lat="45.44313" lon="2.92189">
        <ele>1001.964</ele>
        <time>2014-09-07T13:45:28Z</time>
      </trkpt>
      <trkpt lat="45.4434" lon="2.92228">
        <ele>999.551</ele>
        <time>2014-09-07T13:45:32Z</time>
      </trkpt>
      <trkpt lat="45.44351" lon="2.9227">
        <ele>997.685</ele>
        <time>2014-09-07T13:45:35Z</time>
      </trkpt>
      <trkpt lat="45.44351" lon="2.92316">
        <ele>996.217</ele>
        <time>2014-09-07T13:45:38Z</time>
      </trkpt>
      <trkpt lat="45.4434" lon="2.92355">
        <ele>995.01</ele>
        <time>2014-09-07T13:45:41Z</time>
      </trkpt>
      <trkpt lat="45.44308" lon="2.92417">
        <ele>993.805</ele>
        <time>2014-09-07T13:45:47Z</time>
      </trkpt>
      <trkpt lat="45.44286" lon="2.92461">
        <ele>993.629</ele>
        <time>2014-09-07T13:45:52Z</time>
      </trkpt>
      <trkpt lat="45.44274" lon="2.92486">
        <ele>993.824</ele>
        <time>2014-09-07T13:45:56Z</time>
      </trkpt>
      <trkpt lat="45.44267" lon="2.92499">
        <ele>993.697</ele>
        <time>2014-09-07T13:46:00Z</time>
      </trkpt>
      <trkpt lat="45.4426" lon="2.92512">
        <ele>993.702</ele>
        <time>2014-09-07T13:46:04Z</time>
      </trkpt>
      <trkpt lat="45.44253" lon="2.92522">
        <ele>993.848</ele>
        <time>2014-09-07T13:46:12Z</time>
      </trkpt>
      <trkpt lat="45.44247" lon="2.92529">
        <ele>994.183</ele>
        <time>2014-09-07T13:46:17Z</time>
      </trkpt>
      <trkpt lat="45.4423" lon="2.92547">
        <ele>994.513</ele>
        <time>2014-09-07T13:46:22Z</time>
      </trkpt>
      <trkpt lat="45.44208" lon="2.92573">
        <ele>994.684</ele>
        <time>2014-09-07T13:46:27Z</time>
      </trkpt>
      <trkpt lat="45.44197" lon="2.92584">
        <ele>994.822</ele>
        <time>2014-09-07T13:46:31Z</time>
      </trkpt>
      <trkpt lat="45.4419" lon="2.92593">
        <ele>994.842</ele>
        <time>2014-09-07T13:46:37Z</time>
      </trkpt>
      <trkpt lat="45.44188" lon="2.92599">
        <ele>994.741</ele>
        <time>2014-09-07T13:46:42Z</time>
      </trkpt>
      <trkpt lat="45.44188" lon="2.92599">
        <ele>994.706</ele>
        <time>2014-09-07T13:46:44Z</time>
      </trkpt>
      <trkpt lat="45.43277" lon="2.93206">
        <ele>1133.418</ele>
        <time>2014-09-07T14:11:38Z</time>
      </trkpt>
      <trkpt lat="45.43234" lon="2.932">
        <ele>1136.623</ele>
        <time>2014-09-07T14:11:42Z</time>
      </trkpt>
      <trkpt lat="45.4316" lon="2.93188">
        <ele>1143.798</ele>
        <time>2014-09-07T14:11:48Z</time>
      </trkpt>
      <trkpt lat="45.43148" lon="2.93186">
        <ele>1143.803</ele>
        <time>2014-09-07T14:11:49Z</time>
      </trkpt>
      <trkpt lat="45.43058" lon="2.93171">
        <ele>1148.55</ele>
        <time>2014-09-07T14:11:56Z</time>
      </trkpt>
      <trkpt lat="45.42969" lon="2.93155">
        <ele>1149.241</ele>
        <time>2014-09-07T14:12:03Z</time>
      </trkpt>
      <trkpt lat="45.42927" lon="2.93167">
        <ele>1152.214</ele>
        <time>2014-09-07T14:12:07Z</time>
      </trkpt>
      <trkpt lat="45.42911" lon="2.93184">
        <ele>1154.799</ele>
        <time>2014-09-07T14:12:09Z</time>
      </trkpt>
      <trkpt lat="45.4286" lon="2.93252">
        <ele>1161.079</ele>
        <time>2014-09-07T14:12:15Z</time>
      </trkpt>
      <trkpt lat="45.42796" lon="2.93319">
        <ele>1165.066</ele>
        <time>2014-09-07T14:12:21Z</time>
      </trkpt>
      <trkpt lat="45.42743" lon="2.9337">
        <ele>1167.11</ele>
        <time>2014-09-07T14:12:26Z</time>
      </trkpt>
      <trkpt lat="45.42723" lon="2.93389">
        <ele>1168.556</ele>
        <time>2014-09-07T14:12:28Z</time>
      </trkpt>
      <trkpt lat="45.42697" lon="2.93442">
        <ele>1172.204</ele>
        <time>2014-09-07T14:12:32Z</time>
      </trkpt>
      <trkpt lat="45.42668" lon="2.93544">
        <ele>1176.331</ele>
        <time>2014-09-07T14:12:38Z</time>
      </trkpt>
      <trkpt lat="45.42646" lon="2.9363">
        <ele>1176.874</ele>
        <time>2014-09-07T14:12:43Z</time>
      </trkpt>
      <trkpt lat="45.42616" lon="2.93744">
        <ele>1179.605</ele>
        <time>2014-09-07T14:12:50Z</time>
      </trkpt>
      <trkpt lat="45.42588" lon="2.93809">
        <ele>1179.512</ele>
        <time>2014-09-07T14:12:54Z</time>
      </trkpt>
      <trkpt lat="45.42572" lon="2.93838">
        <ele>1179.046</ele>
        <time>2014-09-07T14:12:56Z</time>
      </trkpt>
      <trkpt lat="45.42535" lon="2.93878">
        <ele>1179.666</ele>
        <time>2014-09-07T14:13:00Z</time>
      </trkpt>
      <trkpt lat="45.42523" lon="2.93884">
        <ele>1179.97</ele>
        <time>2014-09-07T14:13:01Z</time>
      </trkpt>
      <trkpt lat="45.42454" lon="2.93939">
        <ele>1180.737</ele>
        <time>2014-09-07T14:13:07Z</time>
      </trkpt>
      <trkpt lat="45.42402" lon="2.94001">
        <ele>1180.154</ele>
        <time>2014-09-07T14:13:12Z</time>
      </trkpt>
      <trkpt lat="45.42345" lon="2.94062">
        <ele>1182.357</ele>
        <time>2014-09-07T14:13:17Z</time>
      </trkpt>
      <trkpt lat="45.42283" lon="2.94128">
        <ele>1183.006</ele>
        <time>2014-09-07T14:13:22Z</time>
      </trkpt>
      <trkpt lat="45.42235" lon="2.9419">
        <ele>1182.874</ele>
        <time>2014-09-07T14:13:26Z</time>
      </trkpt>
      <trkpt lat="45.42169" lon="2.94291">
        <ele>1183.116</ele>
        <time>2014-09-07T14:13:32Z</time>
      </trkpt>
      <trkpt lat="45.42114" lon="2.94385">
        <ele>1183.776</ele>
        <time>2014-09-07T14:13:38Z</time>
      </trkpt>
      <trkpt lat="45.42087" lon="2.9445">
        <ele>1183.231</ele>
        <time>2014-09-07T14:13:42Z</time>
      </trkpt>
      <trkpt lat="45.4208" lon="2.945">
        <ele>1181.258</ele>
        <time>2014-09-07T14:13:45Z</time>
      </trkpt>
      <trkpt lat="45.42083" lon="2.94535">
        <ele>1179.509</ele>
        <time>2014-09-07T14:13:47Z</time>
      </trkpt>
      <trkpt lat="45.42085" lon="2.94643">
        <ele>1173.941</ele>
        <time>2014-09-07T14:13:53Z</time>
      </trkpt>
      <trkpt lat="45.42085" lon="2.94661">
        <ele>1173.071</ele>
        <time>2014-09-07T14:13:54Z</time>
      </trkpt>
      <trkpt lat="45.42076" lon="2.94733">
        <ele>1170.491</ele>
        <time>2014-09-07T14:13:58Z</time>
      </trkpt>
      <trkpt lat="45.42055" lon="2.94834">
        <ele>1163.937</ele>
        <time>2014-09-07T14:14:04Z</time>
      </trkpt>
      <trkpt lat="45.42033" lon="2.94925">
        <ele>1158.28</ele>
        <time>2014-09-07T14:14:10Z</time>
      </trkpt>
      <trkpt lat="45.42026" lon="2.94949">
        <ele>1156.71</ele>
        <time>2014-09-07T14:14:12Z</time>
      </trkpt>
      <trkpt lat="45.42002" lon="2.9498">
        <ele>1155.818</ele>
        <time>2014-09-07T14:14:16Z</time>
      </trkpt>
      <trkpt lat="45.41984" lon="2.94992">
        <ele>1156.707</ele>
        <time>2014-09-07T14:14:18Z</time>
      </trkpt>
      <trkpt lat="45.41961" lon="2.95018">
        <ele>1158.209</ele>
        <time>2014-09-07T14:14:21Z</time>
      </trkpt>
      <trkpt lat="45.41946" lon="2.95052">
        <ele>1161.158</ele>
        <time>2014-09-07T14:14:24Z</time>
      </trkpt>
      <trkpt lat="45.41943" lon="2.95064">
        <ele>1162.196</ele>
        <time>2014-09-07T14:14:25Z</time>
      </trkpt>
      <trkpt lat="45.41915" lon="2.95139">
        <ele>1167.769</ele>
        <time>2014-09-07T14:14:31Z</time>
      </trkpt>
      <trkpt lat="45.41903" lon="2.95166">
        <ele>1169.481</ele>
        <time>2014-09-07T14:14:33Z</time>
      </trkpt>
      <trkpt lat="45.41885" lon="2.95248">
        <ele>1173.628</ele>
        <time>2014-09-07T14:14:38Z</time>
      </trkpt>
      <trkpt lat="45.41877" lon="2.95286">
        <ele>1175.516</ele>
        <time>2014-09-07T14:14:40Z</time>
      </trkpt>
      <trkpt lat="45.41838" lon="2.95404">
        <ele>1180.657</ele>
        <time>2014-09-07T14:14:46Z</time>
      </trkpt>
      <trkpt lat="45.41816" lon="2.95446">
        <ele>1183.148</ele>
        <time>2014-09-07T14:14:49Z</time>
      </trkpt>
      <trkpt lat="45.41794" lon="2.95459">
        <ele>1184.384</ele>
        <time>2014-09-07T14:14:51Z</time>
      </trkpt>
      <trkpt lat="45.41781" lon="2.95462">
        <ele>1184.989</ele>
        <time>2014-09-07T14:14:52Z</time>
      </trkpt>
      <trkpt lat="45.4172" lon="2.95483">
        <ele>1188.544</ele>
        <time>2014-09-07T14:14:57Z</time>
      </trkpt>
      <trkpt lat="45.41677" lon="2.95514">
        <ele>1191.214</ele>
        <time>2014-09-07T14:15:01Z</time>
      </trkpt>
      <trkpt lat="45.41651" lon="2.95553">
        <ele>1193.415</ele>
        <time>2014-09-07T14:15:04Z</time>
      </trkpt>
      <trkpt lat="45.41644" lon="2.95572">
        <ele>1194.227</ele>
        <time>2014-09-07T14:15:05Z</time>
      </trkpt>
      <trkpt lat="45.41619" lon="2.95642">
        <ele>1197.025</ele>
        <time>2014-09-07T14:15:09Z</time>
      </trkpt>
      <trkpt lat="45.41615" lon="2.95656">
        <ele>1197.466</ele>
        <time>2014-09-07T14:15:10Z</time>
      </trkpt>
      <trkpt lat="45.41609" lon="2.95698">
        <ele>1197.971</ele>
        <time>2014-09-07T14:15:14Z</time>
      </trkpt>
      <trkpt lat="45.41609" lon="2.95704">
        <ele>1198.076</ele>
        <time>2014-09-07T14:15:15Z</time>
      </trkpt>
      <trkpt lat="45.41611" lon="2.9572">
        <ele>1198.471</ele>
        <time>2014-09-07T14:15:20Z</time>
      </trkpt>
      <trkpt lat="45.41612" lon="2.95735">
        <ele>1198.889</ele>
        <time>2014-09-07T14:15:25Z</time>
      </trkpt>
      <trkpt lat="45.41614" lon="2.95759">
        <ele>1199.326</ele>
        <time>2014-09-07T14:15:29Z</time>
      </trkpt>
      <trkpt lat="45.41619" lon="2.95807">
        <ele>1200.552</ele>
        <time>2014-09-07T14:15:34Z</time>
      </trkpt>
      <trkpt lat="45.41613" lon="2.95851">
        <ele>1201.512</ele>
        <time>2014-09-07T14:15:38Z</time>
      </trkpt>
      <trkpt lat="45.41605" lon="2.95873">
        <ele>1202.176</ele>
        <time>2014-09-07T14:15:40Z</time>
      </trkpt>
      <trkpt lat="45.41596" lon="2.95893">
        <ele>1202.758</ele>
        <time>2014-09-07T14:15:42Z</time>
      </trkpt>
      <trkpt lat="45.41591" lon="2.95938">
        <ele>1204.008</ele>
        <time>2014-09-07T14:15:46Z</time>
      </trkpt>
      <trkpt lat="45.41596" lon="2.95962">
        <ele>1204.715</ele>
        <time>2014-09-07T14:15:48Z</time>
      </trkpt>
      <trkpt lat="45.41615" lon="2.96024">
        <ele>1206.481</ele>
        <time>2014-09-07T14:15:52Z</time>
      </trkpt>
      <trkpt lat="45.41637" lon="2.96103">
        <ele>1209.158</ele>
        <time>2014-09-07T14:15:56Z</time>
      </trkpt>
      <trkpt lat="45.41641" lon="2.96184">
        <ele>1210.608</ele>
        <time>2014-09-07T14:16:00Z</time>
      </trkpt>
      <trkpt lat="45.41638" lon="2.96206">
        <ele>1210.745</ele>
        <time>2014-09-07T14:16:01Z</time>
      </trkpt>
      <trkpt lat="45.41618" lon="2.9631">
        <ele>1209.768</ele>
        <time>2014-09-07T14:16:06Z</time>
      </trkpt>
      <trkpt lat="45.41599" lon="2.96348">
        <ele>1208.473</ele>
        <time>2014-09-07T14:16:09Z</time>
      </trkpt>
      <trkpt lat="45.41581" lon="2.96355">
        <ele>1207.676</ele>
        <time>2014-09-07T14:16:11Z</time>
      </trkpt>
      <trkpt lat="45.41572" lon="2.96355">
        <ele>1207.444</ele>
        <time>2014-09-07T14:16:12Z</time>
      </trkpt>
      <trkpt lat="45.41527" lon="2.96365">
        <ele>1207.036</ele>
        <time>2014-09-07T14:16:17Z</time>
      </trkpt>
      <trkpt lat="45.41488" lon="2.96393">
        <ele>1207.171</ele>
        <time>2014-09-07T14:16:22Z</time>
      </trkpt>
      <trkpt lat="45.4147" lon="2.96396">
        <ele>1207.551</ele>
        <time>2014-09-07T14:16:26Z</time>
      </trkpt>
      <trkpt lat="45.41469" lon="2.96394">
        <ele>1207.52</ele>
        <time>2014-09-07T14:16:29Z</time>
      </trkpt>
      <trkpt lat="45.41463" lon="2.96398">
        <ele>1207.672</ele>
        <time>2014-09-07T14:18:28Z</time>
      </trkpt>
      <trkpt lat="45.41456" lon="2.96413">
        <ele>1207.916</ele>
        <time>2014-09-07T14:18:31Z</time>
      </trkpt>
      <trkpt lat="45.41432" lon="2.96436">
        <ele>1207.944</ele>
        <time>2014-09-07T14:18:35Z</time>
      </trkpt>
      <trkpt lat="45.41382" lon="2.96468">
        <ele>1208.471</ele>
        <time>2014-09-07T14:18:41Z</time>
      </trkpt>
      <trkpt lat="45.41376" lon="2.96471">
        <ele>1208.61</ele>
        <time>2014-09-07T14:18:42Z</time>
      </trkpt>
      <trkpt lat="45.41354" lon="2.96463">
        <ele>1208.749</ele>
        <time>2014-09-07T14:18:46Z</time>
      </trkpt>
      <trkpt lat="45.4134" lon="2.96437">
        <ele>1209.457</ele>
        <time>2014-09-07T14:18:49Z</time>
      </trkpt>
      <trkpt lat="45.41308" lon="2.96355">
        <ele>1213.096</ele>
        <time>2014-09-07T14:18:55Z</time>
      </trkpt>
      <trkpt lat="45.41286" lon="2.96295">
        <ele>1215.637</ele>
        <time>2014-09-07T14:18:59Z</time>
      </trkpt>
      <trkpt lat="45.41264" lon="2.96217">
        <ele>1220.565</ele>
        <time>2014-09-07T14:19:04Z</time>
      </trkpt>
      <trkpt lat="45.41252" lon="2.96124">
        <ele>1226.272</ele>
        <time>2014-09-07T14:19:10Z</time>
      </trkpt>
      <trkpt lat="45.41252" lon="2.9611">
        <ele>1227.241</ele>
        <time>2014-09-07T14:19:11Z</time>
      </trkpt>
      <trkpt lat="45.4126" lon="2.96057">
        <ele>1231.282</ele>
        <time>2014-09-07T14:19:15Z</time>
      </trkpt>
      <trkpt lat="45.41274" lon="2.96017">
        <ele>1233.873</ele>
        <time>2014-09-07T14:19:18Z</time>
      </trkpt>
      <trkpt lat="45.41277" lon="2.95968">
        <ele>1236.31</ele>
        <time>2014-09-07T14:19:22Z</time>
      </trkpt>
      <trkpt lat="45.41275" lon="2.95959">
        <ele>1236.589</ele>
        <time>2014-09-07T14:19:23Z</time>
      </trkpt>
      <trkpt lat="45.41273" lon="2.95953">
        <ele>1236.594</ele>
        <time>2014-09-07T14:19:24Z</time>
      </trkpt>
      <trkpt lat="45.41263" lon="2.95911">
        <ele>1236.247</ele>
        <time>2014-09-07T14:19:30Z</time>
      </trkpt>
      <trkpt lat="45.41258" lon="2.95864">
        <ele>1235.214</ele>
        <time>2014-09-07T14:19:35Z</time>
      </trkpt>
      <trkpt lat="45.41255" lon="2.95842">
        <ele>1234.398</ele>
        <time>2014-09-07T14:19:39Z</time>
      </trkpt>
      <trkpt lat="45.41254" lon="2.95836">
        <ele>1233.777</ele>
        <time>2014-09-07T14:19:43Z</time>
      </trkpt>
      <trkpt lat="45.41254" lon="2.95836">
        <ele>1233.686</ele>
        <time>2014-09-07T14:19:44Z</time>
      </trkpt>
      <trkpt lat="45.41261" lon="2.95843">
        <ele>1233.896</ele>
        <time>2014-09-07T14:20:15Z</time>
      </trkpt>
      <trkpt lat="45.4126" lon="2.95849">
        <ele>1233.864</ele>
        <time>2014-09-07T14:20:16Z</time>
      </trkpt>
      <trkpt lat="45.41262" lon="2.95892">
        <ele>1233.826</ele>
        <time>2014-09-07T14:20:20Z</time>
      </trkpt>
      <trkpt lat="45.41271" lon="2.95943">
        <ele>1234.56</ele>
        <time>2014-09-07T14:20:23Z</time>
      </trkpt>
      <trkpt lat="45.41278" lon="2.95971">
        <ele>1235.339</ele>
        <time>2014-09-07T14:20:25Z</time>
      </trkpt>
      <trkpt lat="45.4128" lon="2.96012">
        <ele>1236.425</ele>
        <time>2014-09-07T14:20:28Z</time>
      </trkpt>
      <trkpt lat="45.41271" lon="2.96043">
        <ele>1236.588</ele>
        <time>2014-09-07T14:20:30Z</time>
      </trkpt>
      <trkpt lat="45.41259" lon="2.96075">
        <ele>1236.031</ele>
        <time>2014-09-07T14:20:32Z</time>
      </trkpt>
      <trkpt lat="45.41254" lon="2.96142">
        <ele>1232.887</ele>
        <time>2014-09-07T14:20:36Z</time>
      </trkpt>
      <trkpt lat="45.41262" lon="2.96207">
        <ele>1229.48</ele>
        <time>2014-09-07T14:20:40Z</time>
      </trkpt>
      <trkpt lat="45.41282" lon="2.96283">
        <ele>1224.031</ele>
        <time>2014-09-07T14:20:45Z</time>
      </trkpt>
      <trkpt lat="45.41312" lon="2.96366">
        <ele>1218.615</ele>
        <time>2014-09-07T14:20:51Z</time>
      </trkpt>
      <trkpt lat="45.41327" lon="2.96405">
        <ele>1215.042</ele>
        <time>2014-09-07T14:20:55Z</time>
      </trkpt>
      <trkpt lat="45.4134" lon="2.96434">
        <ele>1212.382</ele>
        <time>2014-09-07T14:20:59Z</time>
      </trkpt>
      <trkpt lat="45.41354" lon="2.96468">
        <ele>1211.064</ele>
        <time>2014-09-07T14:21:03Z</time>
      </trkpt>
      <trkpt lat="45.41353" lon="2.96492">
        <ele>1210.052</ele>
        <time>2014-09-07T14:21:07Z</time>
      </trkpt>
      <trkpt lat="45.41332" lon="2.96502">
        <ele>1209.495</ele>
        <time>2014-09-07T14:21:10Z</time>
      </trkpt>
      <trkpt lat="45.413" lon="2.96505">
        <ele>1209.015</ele>
        <time>2014-09-07T14:21:13Z</time>
      </trkpt>
      <trkpt lat="45.41288" lon="2.96504">
        <ele>1208.882</ele>
        <time>2014-09-07T14:21:14Z</time>
      </trkpt>
      <trkpt lat="45.41208" lon="2.9649">
        <ele>1206.14</ele>
        <time>2014-09-07T14:21:20Z</time>
      </trkpt>
      <trkpt lat="45.4113" lon="2.96471">
        <ele>1201.786</ele>
        <time>2014-09-07T14:21:26Z</time>
      </trkpt>
      <trkpt lat="45.4107" lon="2.96441">
        <ele>1199.224</ele>
        <time>2014-09-07T14:21:31Z</time>
      </trkpt>
      <trkpt lat="45.41032" lon="2.96402">
        <ele>1196.574</ele>
        <time>2014-09-07T14:21:35Z</time>
      </trkpt>
      <trkpt lat="45.40992" lon="2.96354">
        <ele>1194.303</ele>
        <time>2014-09-07T14:21:39Z</time>
      </trkpt>
      <trkpt lat="45.40923" lon="2.96293">
        <ele>1190.852</ele>
        <time>2014-09-07T14:21:45Z</time>
      </trkpt>
      <trkpt lat="45.40874" lon="2.96265">
        <ele>1187.789</ele>
        <time>2014-09-07T14:21:49Z</time>
      </trkpt>
      <trkpt lat="45.40841" lon="2.96238">
        <ele>1185.194</ele>
        <time>2014-09-07T14:21:52Z</time>
      </trkpt>
      <trkpt lat="45.40793" lon="2.9622">
        <ele>1182.973</ele>
        <time>2014-09-07T14:21:56Z</time>
      </trkpt>
      <trkpt lat="45.4076" lon="2.9623">
        <ele>1180.958</ele>
        <time>2014-09-07T14:21:59Z</time>
      </trkpt>
      <trkpt lat="45.40741" lon="2.96249">
        <ele>1179.716</ele>
        <time>2014-09-07T14:22:01Z</time>
      </trkpt>
      <trkpt lat="45.40733" lon="2.96262">
        <ele>1179.112</ele>
        <time>2014-09-07T14:22:02Z</time>
      </trkpt>
      <trkpt lat="45.40706" lon="2.96318">
        <ele>1176.714</ele>
        <time>2014-09-07T14:22:06Z</time>
      </trkpt>
      <trkpt lat="45.4069" lon="2.96379">
        <ele>1175.378</ele>
        <time>2014-09-07T14:22:10Z</time>
      </trkpt>
      <trkpt lat="45.40673" lon="2.96438">
        <ele>1176.449</ele>
        <time>2014-09-07T14:22:14Z</time>
      </trkpt>
      <trkpt lat="45.40666" lon="2.96498">
        <ele>1178.85</ele>
        <time>2014-09-07T14:22:18Z</time>
      </trkpt>
      <trkpt lat="45.40673" lon="2.96529">
        <ele>1180.03</ele>
        <time>2014-09-07T14:22:20Z</time>
      </trkpt>
      <trkpt lat="45.40708" lon="2.96621">
        <ele>1183.347</ele>
        <time>2014-09-07T14:22:26Z</time>
      </trkpt>
      <trkpt lat="45.40714" lon="2.96637">
        <ele>1183.958</ele>
        <time>2014-09-07T14:22:27Z</time>
      </trkpt>
      <trkpt lat="45.40723" lon="2.96704">
        <ele>1186.502</ele>
        <time>2014-09-07T14:22:31Z</time>
      </trkpt>
      <trkpt lat="45.40722" lon="2.96754">
        <ele>1188.149</ele>
        <time>2014-09-07T14:22:34Z</time>
      </trkpt>
      <trkpt lat="45.40714" lon="2.96792">
        <ele>1189.75</ele>
        <time>2014-09-07T14:22:37Z</time>
      </trkpt>
      <trkpt lat="45.4069" lon="2.96809">
        <ele>1191.277</ele>
        <time>2014-09-07T14:22:40Z</time>
      </trkpt>
      <trkpt lat="45.40681" lon="2.96811">
        <ele>1191.723</ele>
        <time>2014-09-07T14:22:41Z</time>
      </trkpt>
      <trkpt lat="45.40617" lon="2.96813">
        <ele>1193.367</ele>
        <time>2014-09-07T14:22:47Z</time>
      </trkpt>
      <trkpt lat="45.40552" lon="2.96792">
        <ele>1193.25</ele>
        <time>2014-09-07T14:22:53Z</time>
      </trkpt>
      <trkpt lat="45.4049" lon="2.96755">
        <ele>1193.448</ele>
        <time>2014-09-07T14:22:59Z</time>
      </trkpt>
      <trkpt lat="45.40419" lon="2.96707">
        <ele>1193.568</ele>
        <time>2014-09-07T14:23:06Z</time>
      </trkpt>
      <trkpt lat="45.40337" lon="2.9666">
        <ele>1193.524</ele>
        <time>2014-09-07T14:23:14Z</time>
      </trkpt>
      <trkpt lat="45.40292" lon="2.96656">
        <ele>1193.711</ele>
        <time>2014-09-07T14:23:18Z</time>
      </trkpt>
      <trkpt lat="45.40237" lon="2.96666">
        <ele>1193.762</ele>
        <time>2014-09-07T14:23:23Z</time>
      </trkpt>
      <trkpt lat="45.40202" lon="2.96693">
        <ele>1193.776</ele>
        <time>2014-09-07T14:23:27Z</time>
      </trkpt>
      <trkpt lat="45.40193" lon="2.96724">
        <ele>1194.021</ele>
        <time>2014-09-07T14:23:30Z</time>
      </trkpt>
      <trkpt lat="45.40198" lon="2.96765">
        <ele>1194.941</ele>
        <time>2014-09-07T14:23:34Z</time>
      </trkpt>
      <trkpt lat="45.40205" lon="2.96787">
        <ele>1195.511</ele>
        <time>2014-09-07T14:23:36Z</time>
      </trkpt>
      <trkpt lat="45.40238" lon="2.96857">
        <ele>1197.357</ele>
        <time>2014-09-07T14:23:42Z</time>
      </trkpt>
      <trkpt lat="45.40293" lon="2.96938">
        <ele>1199.781</ele>
        <time>2014-09-07T14:23:49Z</time>
      </trkpt>
      <trkpt lat="45.403" lon="2.96949">
        <ele>1199.972</ele>
        <time>2014-09-07T14:23:50Z</time>
      </trkpt>
      <trkpt lat="45.40317" lon="2.96999">
        <ele>1200.866</ele>
        <time>2014-09-07T14:23:54Z</time>
      </trkpt>
      <trkpt lat="45.4032" lon="2.97011">
        <ele>1201.014</ele>
        <time>2014-09-07T14:23:55Z</time>
      </trkpt>
      <trkpt lat="45.40319" lon="2.9706">
        <ele>1202.398</ele>
        <time>2014-09-07T14:23:59Z</time>
      </trkpt>
      <trkpt lat="45.40317" lon="2.97073">
        <ele>1202.868</ele>
        <time>2014-09-07T14:24:00Z</time>
      </trkpt>
      <trkpt lat="45.40304" lon="2.97109">
        <ele>1204.12</ele>
        <time>2014-09-07T14:24:03Z</time>
      </trkpt>
      <trkpt lat="45.40278" lon="2.97128">
        <ele>1206.12</ele>
        <time>2014-09-07T14:24:06Z</time>
      </trkpt>
      <trkpt lat="45.40185" lon="2.97163">
        <ele>1211.681</ele>
        <time>2014-09-07T14:24:15Z</time>
      </trkpt>
      <trkpt lat="45.40152" lon="2.97194">
        <ele>1214.125</ele>
        <time>2014-09-07T14:24:19Z</time>
      </trkpt>
      <trkpt lat="45.40144" lon="2.97233">
        <ele>1215.865</ele>
        <time>2014-09-07T14:24:22Z</time>
      </trkpt>
      <trkpt lat="45.40136" lon="2.97271">
        <ele>1217.355</ele>
        <time>2014-09-07T14:24:25Z</time>
      </trkpt>
      <trkpt lat="45.40114" lon="2.97296">
        <ele>1218.309</ele>
        <time>2014-09-07T14:24:28Z</time>
      </trkpt>
      <trkpt lat="45.40057" lon="2.9734">
        <ele>1219.784</ele>
        <time>2014-09-07T14:24:34Z</time>
      </trkpt>
      <trkpt lat="45.40009" lon="2.97351">
        <ele>1219.03</ele>
        <time>2014-09-07T14:24:38Z</time>
      </trkpt>
      <trkpt lat="45.39984" lon="2.97353">
        <ele>1218.302</ele>
        <time>2014-09-07T14:24:40Z</time>
      </trkpt>
      <trkpt lat="45.39912" lon="2.97384">
        <ele>1216.247</ele>
        <time>2014-09-07T14:24:46Z</time>
      </trkpt>
      <trkpt lat="45.39888" lon="2.97395">
        <ele>1215.657</ele>
        <time>2014-09-07T14:24:48Z</time>
      </trkpt>
      <trkpt lat="45.39848" lon="2.97431">
        <ele>1213.958</ele>
        <time>2014-09-07T14:24:52Z</time>
      </trkpt>
      <trkpt lat="45.39753" lon="2.97579">
        <ele>1209.854</ele>
        <time>2014-09-07T14:25:04Z</time>
      </trkpt>
      <trkpt lat="45.39716" lon="2.97635">
        <ele>1208.072</ele>
        <time>2014-09-07T14:25:09Z</time>
      </trkpt>
      <trkpt lat="45.3968" lon="2.97658">
        <ele>1206.846</ele>
        <time>2014-09-07T14:25:13Z</time>
      </trkpt>
      <trkpt lat="45.3967" lon="2.97658">
        <ele>1206.468</ele>
        <time>2014-09-07T14:25:14Z</time>
      </trkpt>
      <trkpt lat="45.39589" lon="2.97662">
        <ele>1204.699</ele>
        <time>2014-09-07T14:25:22Z</time>
      </trkpt>
      <trkpt lat="45.39579" lon="2.97665">
        <ele>1204.592</ele>
        <time>2014-09-07T14:25:23Z</time>
      </trkpt>
      <trkpt lat="45.39528" lon="2.97696">
        <ele>1203.603</ele>
        <time>2014-09-07T14:25:28Z</time>
      </trkpt>
      <trkpt lat="45.39466" lon="2.97735">
        <ele>1202.056</ele>
        <time>2014-09-07T14:25:34Z</time>
      </trkpt>
      <trkpt lat="45.39412" lon="2.97754">
        <ele>1200.021</ele>
        <time>2014-09-07T14:25:39Z</time>
      </trkpt>
      <trkpt lat="45.39362" lon="2.97785">
        <ele>1197.894</ele>
        <time>2014-09-07T14:25:44Z</time>
      </trkpt>
      <trkpt lat="45.39284" lon="2.97815">
        <ele>1194.041</ele>
        <time>2014-09-07T14:25:51Z</time>
      </trkpt>
      <trkpt lat="45.39263" lon="2.97822">
        <ele>1192.894</ele>
        <time>2014-09-07T14:25:53Z</time>
      </trkpt>
      <trkpt lat="45.39228" lon="2.97853">
        <ele>1190.281</ele>
        <time>2014-09-07T14:25:57Z</time>
      </trkpt>
      <trkpt lat="45.39218" lon="2.97878">
        <ele>1188.827</ele>
        <time>2014-09-07T14:25:59Z</time>
      </trkpt>
      <trkpt lat="45.39178" lon="2.98005">
        <ele>1183.874</ele>
        <time>2014-09-07T14:26:08Z</time>
      </trkpt>
      <trkpt lat="45.39136" lon="2.98107">
        <ele>1179.949</ele>
        <time>2014-09-07T14:26:15Z</time>
      </trkpt>
      <trkpt lat="45.39101" lon="2.98156">
        <ele>1177.224</ele>
        <time>2014-09-07T14:26:19Z</time>
      </trkpt>
      <trkpt lat="45.3904" lon="2.98225">
        <ele>1173.334</ele>
        <time>2014-09-07T14:26:25Z</time>
      </trkpt>
      <trkpt lat="45.39029" lon="2.98235">
        <ele>1172.568</ele>
        <time>2014-09-07T14:26:26Z</time>
      </trkpt>
      <trkpt lat="45.38984" lon="2.98253">
        <ele>1169.453</ele>
        <time>2014-09-07T14:26:30Z</time>
      </trkpt>
      <trkpt lat="45.38962" lon="2.98255">
        <ele>1167.832</ele>
        <time>2014-09-07T14:26:32Z</time>
      </trkpt>
      <trkpt lat="45.38926" lon="2.98278">
        <ele>1165.793</ele>
        <time>2014-09-07T14:26:36Z</time>
      </trkpt>
      <trkpt lat="45.38914" lon="2.98315">
        <ele>1163.983</ele>
        <time>2014-09-07T14:26:39Z</time>
      </trkpt>
      <trkpt lat="45.38912" lon="2.98328">
        <ele>1163.356</ele>
        <time>2014-09-07T14:26:40Z</time>
      </trkpt>
      <trkpt lat="45.38903" lon="2.98416">
        <ele>1159.52</ele>
        <time>2014-09-07T14:26:47Z</time>
      </trkpt>
      <trkpt lat="45.38894" lon="2.98486">
        <ele>1157.029</ele>
        <time>2014-09-07T14:26:52Z</time>
      </trkpt>
      <trkpt lat="45.38898" lon="2.98541">
        <ele>1154.786</ele>
        <time>2014-09-07T14:26:56Z</time>
      </trkpt>
      <trkpt lat="45.38902" lon="2.98595">
        <ele>1153.21</ele>
        <time>2014-09-07T14:27:00Z</time>
      </trkpt>
      <trkpt lat="45.38898" lon="2.98608">
        <ele>1152.588</ele>
        <time>2014-09-07T14:27:01Z</time>
      </trkpt>
      <trkpt lat="45.38863" lon="2.98715">
        <ele>1148.096</ele>
        <time>2014-09-07T14:27:10Z</time>
      </trkpt>
      <trkpt lat="45.38837" lon="2.98798">
        <ele>1144.45</ele>
        <time>2014-09-07T14:27:17Z</time>
      </trkpt>
      <trkpt lat="45.38832" lon="2.98852">
        <ele>1142.162</ele>
        <time>2014-09-07T14:27:21Z</time>
      </trkpt>
      <trkpt lat="45.3883" lon="2.98939">
        <ele>1138.839</ele>
        <time>2014-09-07T14:27:28Z</time>
      </trkpt>
      <trkpt lat="45.3883" lon="2.98974">
        <ele>1137.313</ele>
        <time>2014-09-07T14:27:31Z</time>
      </trkpt>
      <trkpt lat="45.38841" lon="2.99015">
        <ele>1135.456</ele>
        <time>2014-09-07T14:27:35Z</time>
      </trkpt>
      <trkpt lat="45.38845" lon="2.99022">
        <ele>1135.06</ele>
        <time>2014-09-07T14:27:36Z</time>
      </trkpt>
      <trkpt lat="45.38891" lon="2.99096">
        <ele>1130.757</ele>
        <time>2014-09-07T14:27:45Z</time>
      </trkpt>
      <trkpt lat="45.38909" lon="2.99137">
        <ele>1128.973</ele>
        <time>2014-09-07T14:27:50Z</time>
      </trkpt>
      <trkpt lat="45.38937" lon="2.992">
        <ele>1126.217</ele>
        <time>2014-09-07T14:27:57Z</time>
      </trkpt>
      <trkpt lat="45.38964" lon="2.99251">
        <ele>1123.938</ele>
        <time>2014-09-07T14:28:02Z</time>
      </trkpt>
      <trkpt lat="45.39005" lon="2.99332">
        <ele>1120.078</ele>
        <time>2014-09-07T14:28:09Z</time>
      </trkpt>
      <trkpt lat="45.39029" lon="2.99389">
        <ele>1117.588</ele>
        <time>2014-09-07T14:28:14Z</time>
      </trkpt>
      <trkpt lat="45.39046" lon="2.9942">
        <ele>1115.086</ele>
        <time>2014-09-07T14:28:18Z</time>
      </trkpt>
      <trkpt lat="45.39053" lon="2.99435">
        <ele>1113.309</ele>
        <time>2014-09-07T14:28:22Z</time>
      </trkpt>
      <trkpt lat="45.39054" lon="2.99442">
        <ele>1111.995</ele>
        <time>2014-09-07T14:28:27Z</time>
      </trkpt>
      <trkpt lat="45.39056" lon="2.99452">
        <ele>1111.499</ele>
        <time>2014-09-07T14:28:44Z</time>
      </trkpt>
      <trkpt lat="45.39058" lon="2.99466">
        <ele>1111.562</ele>
        <time>2014-09-07T14:28:49Z</time>
      </trkpt>
      <trkpt lat="45.3906" lon="2.99496">
        <ele>1111.445</ele>
        <time>2014-09-07T14:28:52Z</time>
      </trkpt>
      <trkpt lat="45.39066" lon="2.99556">
        <ele>1109.589</ele>
        <time>2014-09-07T14:28:58Z</time>
      </trkpt>
      <trkpt lat="45.39082" lon="2.99611">
        <ele>1107.338</ele>
        <time>2014-09-07T14:29:04Z</time>
      </trkpt>
      <trkpt lat="45.39096" lon="2.99669">
        <ele>1105.459</ele>
        <time>2014-09-07T14:29:10Z</time>
      </trkpt>
      <trkpt lat="45.39102" lon="2.99714">
        <ele>1103.613</ele>
        <time>2014-09-07T14:29:15Z</time>
      </trkpt>
      <trkpt lat="45.39103" lon="2.99752">
        <ele>1102.043</ele>
        <time>2014-09-07T14:29:19Z</time>
      </trkpt>
      <trkpt lat="45.39092" lon="2.99812">
        <ele>1100.191</ele>
        <time>2014-09-07T14:29:24Z</time>
      </trkpt>
      <trkpt lat="45.39089" lon="2.99825">
        <ele>1099.812</ele>
        <time>2014-09-07T14:29:25Z</time>
      </trkpt>
      <trkpt lat="45.39087" lon="2.99878">
        <ele>1097.969</ele>
        <time>2014-09-07T14:29:29Z</time>
      </trkpt>
      <trkpt lat="45.39094" lon="2.99948">
        <ele>1095.955</ele>
        <time>2014-09-07T14:29:34Z</time>
      </trkpt>
      <trkpt lat="45.3911" lon="2.9999">
        <ele>1093.855</ele>
        <time>2014-09-07T14:29:38Z</time>
      </trkpt>
      <trkpt lat="45.39117" lon="2.99997">
        <ele>1093.438</ele>
        <time>2014-09-07T14:29:39Z</time>
      </trkpt>
      <trkpt lat="45.3915" lon="3.00027">
        <ele>1090.999</ele>
        <time>2014-09-07T14:29:44Z</time>
      </trkpt>
      <trkpt lat="45.39182" lon="3.00072">
        <ele>1089.404</ele>
        <time>2014-09-07T14:29:49Z</time>
      </trkpt>
      <trkpt lat="45.39228" lon="3.00149">
        <ele>1086.323</ele>
        <time>2014-09-07T14:29:56Z</time>
      </trkpt>
      <trkpt lat="45.39267" lon="3.00211">
        <ele>1082.784</ele>
        <time>2014-09-07T14:30:02Z</time>
      </trkpt>
      <trkpt lat="45.3928" lon="3.00231">
        <ele>1081.696</ele>
        <time>2014-09-07T14:30:04Z</time>
      </trkpt>
      <trkpt lat="45.39287" lon="3.00263">
        <ele>1080.006</ele>
        <time>2014-09-07T14:30:07Z</time>
      </trkpt>
      <trkpt lat="45.39281" lon="3.00303">
        <ele>1078.776</ele>
        <time>2014-09-07T14:30:10Z</time>
      </trkpt>
      <trkpt lat="45.39268" lon="3.00362">
        <ele>1076.237</ele>
        <time>2014-09-07T14:30:15Z</time>
      </trkpt>
      <trkpt lat="45.39261" lon="3.00392">
        <ele>1074.113</ele>
        <time>2014-09-07T14:30:19Z</time>
      </trkpt>
      <trkpt lat="45.39255" lon="3.00432">
        <ele>1072.718</ele>
        <time>2014-09-07T14:30:25Z</time>
      </trkpt>
      <trkpt lat="45.3925" lon="3.00474">
        <ele>1071.813</ele>
        <time>2014-09-07T14:30:29Z</time>
      </trkpt>
      <trkpt lat="45.39245" lon="3.00528">
        <ele>1070.585</ele>
        <time>2014-09-07T14:30:33Z</time>
      </trkpt>
      <trkpt lat="45.39244" lon="3.00605">
        <ele>1068.362</ele>
        <time>2014-09-07T14:30:38Z</time>
      </trkpt>
      <trkpt lat="45.39244" lon="3.00635">
        <ele>1067.332</ele>
        <time>2014-09-07T14:30:40Z</time>
      </trkpt>
      <trkpt lat="45.39232" lon="3.00687">
        <ele>1064.921</ele>
        <time>2014-09-07T14:30:44Z</time>
      </trkpt>
      <trkpt lat="45.39231" lon="3.00741">
        <ele>1062.253</ele>
        <time>2014-09-07T14:30:49Z</time>
      </trkpt>
      <trkpt lat="45.3925" lon="3.00757">
        <ele>1060.469</ele>
        <time>2014-09-07T14:30:52Z</time>
      </trkpt>
      <trkpt lat="45.39266" lon="3.0078">
        <ele>1059.03</ele>
        <time>2014-09-07T14:30:55Z</time>
      </trkpt>
      <trkpt lat="45.39283" lon="3.00808">
        <ele>1057.806</ele>
        <time>2014-09-07T14:30:58Z</time>
      </trkpt>
      <trkpt lat="45.39323" lon="3.00849">
        <ele>1055.664</ele>
        <time>2014-09-07T14:31:03Z</time>
      </trkpt>
      <trkpt lat="45.39345" lon="3.00895">
        <ele>1053.734</ele>
        <time>2014-09-07T14:31:07Z</time>
      </trkpt>
      <trkpt lat="45.39349" lon="3.0094">
        <ele>1052.25</ele>
        <time>2014-09-07T14:31:10Z</time>
      </trkpt>
      <trkpt lat="45.39363" lon="3.01008">
        <ele>1049.743</ele>
        <time>2014-09-07T14:31:15Z</time>
      </trkpt>
      <trkpt lat="45.3937" lon="3.01019">
        <ele>1049.162</ele>
        <time>2014-09-07T14:31:16Z</time>
      </trkpt>
      <trkpt lat="45.39392" lon="3.01048">
        <ele>1047.325</ele>
        <time>2014-09-07T14:31:19Z</time>
      </trkpt>
      <trkpt lat="45.39409" lon="3.01095">
        <ele>1044.906</ele>
        <time>2014-09-07T14:31:23Z</time>
      </trkpt>
      <trkpt lat="45.39423" lon="3.01135">
        <ele>1043.126</ele>
        <time>2014-09-07T14:31:26Z</time>
      </trkpt>
      <trkpt lat="45.39446" lon="3.01168">
        <ele>1041.33</ele>
        <time>2014-09-07T14:31:29Z</time>
      </trkpt>
      <trkpt lat="45.39464" lon="3.01188">
        <ele>1040.376</ele>
        <time>2014-09-07T14:31:31Z</time>
      </trkpt>
      <trkpt lat="45.39489" lon="3.01235">
        <ele>1038.149</ele>
        <time>2014-09-07T14:31:35Z</time>
      </trkpt>
      <trkpt lat="45.39516" lon="3.01285">
        <ele>1036.329</ele>
        <time>2014-09-07T14:31:39Z</time>
      </trkpt>
      <trkpt lat="45.39523" lon="3.01298">
        <ele>1035.635</ele>
        <time>2014-09-07T14:31:40Z</time>
      </trkpt>
      <trkpt lat="45.39541" lon="3.01353">
        <ele>1033.394</ele>
        <time>2014-09-07T14:31:44Z</time>
      </trkpt>
      <trkpt lat="45.3954" lon="3.01365">
        <ele>1032.876</ele>
        <time>2014-09-07T14:31:45Z</time>
      </trkpt>
      <trkpt lat="45.3955" lon="3.01462">
        <ele>1029.589</ele>
        <time>2014-09-07T14:31:51Z</time>
      </trkpt>
      <trkpt lat="45.39558" lon="3.01538">
        <ele>1026.411</ele>
        <time>2014-09-07T14:31:56Z</time>
      </trkpt>
      <trkpt lat="45.3958" lon="3.01587">
        <ele>1023.57</ele>
        <time>2014-09-07T14:32:00Z</time>
      </trkpt>
      <trkpt lat="45.39599" lon="3.01598">
        <ele>1022.865</ele>
        <time>2014-09-07T14:32:02Z</time>
      </trkpt>
      <trkpt lat="45.39609" lon="3.016">
        <ele>1022.031</ele>
        <time>2014-09-07T14:32:03Z</time>
      </trkpt>
      <trkpt lat="45.39659" lon="3.01619">
        <ele>1018.56</ele>
        <time>2014-09-07T14:32:08Z</time>
      </trkpt>
      <trkpt lat="45.39666" lon="3.01628">
        <ele>1017.826</ele>
        <time>2014-09-07T14:32:09Z</time>
      </trkpt>
      <trkpt lat="45.39682" lon="3.01645">
        <ele>1016.489</ele>
        <time>2014-09-07T14:32:11Z</time>
      </trkpt>
      <trkpt lat="45.39725" lon="3.01671">
        <ele>1013.48</ele>
        <time>2014-09-07T14:32:16Z</time>
      </trkpt>
      <trkpt lat="45.39764" lon="3.01684">
        <ele>1011.445</ele>
        <time>2014-09-07T14:32:20Z</time>
      </trkpt>
      <trkpt lat="45.39782" lon="3.01687">
        <ele>1010.415</ele>
        <time>2014-09-07T14:32:22Z</time>
      </trkpt>
      <trkpt lat="45.39805" lon="3.01702">
        <ele>1008.728</ele>
        <time>2014-09-07T14:32:25Z</time>
      </trkpt>
      <trkpt lat="45.39819" lon="3.01737">
        <ele>1007.685</ele>
        <time>2014-09-07T14:32:28Z</time>
      </trkpt>
      <trkpt lat="45.39839" lon="3.01767">
        <ele>1006.171</ele>
        <time>2014-09-07T14:32:31Z</time>
      </trkpt>
      <trkpt lat="45.39865" lon="3.01784">
        <ele>1004.88</ele>
        <time>2014-09-07T14:32:34Z</time>
      </trkpt>
      <trkpt lat="45.39911" lon="3.01808">
        <ele>1002.626</ele>
        <time>2014-09-07T14:32:39Z</time>
      </trkpt>
      <trkpt lat="45.39964" lon="3.01843">
        <ele>1000.234</ele>
        <time>2014-09-07T14:32:44Z</time>
      </trkpt>
      <trkpt lat="45.40024" lon="3.01865">
        <ele>997.464</ele>
        <time>2014-09-07T14:32:49Z</time>
      </trkpt>
      <trkpt lat="45.40084" lon="3.01888">
        <ele>995.095</ele>
        <time>2014-09-07T14:32:54Z</time>
      </trkpt>
      <trkpt lat="45.40143" lon="3.01912">
        <ele>991.773</ele>
        <time>2014-09-07T14:32:59Z</time>
      </trkpt>
      <trkpt lat="45.4019" lon="3.01906">
        <ele>988.849</ele>
        <time>2014-09-07T14:33:03Z</time>
      </trkpt>
      <trkpt lat="45.40269" lon="3.01866">
        <ele>984.26</ele>
        <time>2014-09-07T14:33:10Z</time>
      </trkpt>
      <trkpt lat="45.4031" lon="3.01837">
        <ele>981.87</ele>
        <time>2014-09-07T14:33:14Z</time>
      </trkpt>
      <trkpt lat="45.40353" lon="3.01824">
        <ele>980.012</ele>
        <time>2014-09-07T14:33:18Z</time>
      </trkpt>
      <trkpt lat="45.40364" lon="3.01821">
        <ele>979.268</ele>
        <time>2014-09-07T14:33:19Z</time>
      </trkpt>
      <trkpt lat="45.40397" lon="3.01801">
        <ele>976.345</ele>
        <time>2014-09-07T14:33:23Z</time>
      </trkpt>
      <trkpt lat="45.40418" lon="3.01783">
        <ele>973.195</ele>
        <time>2014-09-07T14:33:28Z</time>
      </trkpt>
      <trkpt lat="45.40426" lon="3.01772">
        <ele>971.565</ele>
        <time>2014-09-07T14:33:33Z</time>
      </trkpt>
      <trkpt lat="45.40436" lon="3.0175">
        <ele>971.285</ele>
        <time>2014-09-07T14:33:37Z</time>
      </trkpt>
      <trkpt lat="45.40458" lon="3.01715">
        <ele>970.911</ele>
        <time>2014-09-07T14:33:41Z</time>
      </trkpt>
      <trkpt lat="45.4047" lon="3.01694">
        <ele>970.668</ele>
        <time>2014-09-07T14:33:43Z</time>
      </trkpt>
      <trkpt lat="45.40516" lon="3.01636">
        <ele>968.877</ele>
        <time>2014-09-07T14:33:49Z</time>
      </trkpt>
      <trkpt lat="45.40523" lon="3.01626">
        <ele>968.497</ele>
        <time>2014-09-07T14:33:50Z</time>
      </trkpt>
      <trkpt lat="45.40551" lon="3.01562">
        <ele>966.151</ele>
        <time>2014-09-07T14:33:55Z</time>
      </trkpt>
      <trkpt lat="45.40575" lon="3.01491">
        <ele>963.057</ele>
        <time>2014-09-07T14:34:00Z</time>
      </trkpt>
      <trkpt lat="45.40593" lon="3.0139">
        <ele>958.636</ele>
        <time>2014-09-07T14:34:07Z</time>
      </trkpt>
      <trkpt lat="45.40599" lon="3.01308">
        <ele>955.885</ele>
        <time>2014-09-07T14:34:13Z</time>
      </trkpt>
      <trkpt lat="45.406" lon="3.01295">
        <ele>955.373</ele>
        <time>2014-09-07T14:34:14Z</time>
      </trkpt>
      <trkpt lat="45.40612" lon="3.01272">
        <ele>953.593</ele>
        <time>2014-09-07T14:34:17Z</time>
      </trkpt>
      <trkpt lat="45.40625" lon="3.01266">
        <ele>952.834</ele>
        <time>2014-09-07T14:34:19Z</time>
      </trkpt>
      <trkpt lat="45.40652" lon="3.01277">
        <ele>952.103</ele>
        <time>2014-09-07T14:34:22Z</time>
      </trkpt>
      <trkpt lat="45.40668" lon="3.01302">
        <ele>951.963</ele>
        <time>2014-09-07T14:34:25Z</time>
      </trkpt>
      <trkpt lat="45.40672" lon="3.01324">
        <ele>951.858</ele>
        <time>2014-09-07T14:34:27Z</time>
      </trkpt>
      <trkpt lat="45.40672" lon="3.01391">
        <ele>950.904</ele>
        <time>2014-09-07T14:34:32Z</time>
      </trkpt>
      <trkpt lat="45.40668" lon="3.01464">
        <ele>948.894</ele>
        <time>2014-09-07T14:34:37Z</time>
      </trkpt>
      <trkpt lat="45.40666" lon="3.01509">
        <ele>947.234</ele>
        <time>2014-09-07T14:34:40Z</time>
      </trkpt>
      <trkpt lat="45.40649" lon="3.01594">
        <ele>943.753</ele>
        <time>2014-09-07T14:34:46Z</time>
      </trkpt>
      <trkpt lat="45.40645" lon="3.01638">
        <ele>942.163</ele>
        <time>2014-09-07T14:34:49Z</time>
      </trkpt>
      <trkpt lat="45.40629" lon="3.01696">
        <ele>940.12</ele>
        <time>2014-09-07T14:34:53Z</time>
      </trkpt>
      <trkpt lat="45.40612" lon="3.01758">
        <ele>937.853</ele>
        <time>2014-09-07T14:34:57Z</time>
      </trkpt>
      <trkpt lat="45.40609" lon="3.01774">
        <ele>937.174</ele>
        <time>2014-09-07T14:34:58Z</time>
      </trkpt>
      <trkpt lat="45.40579" lon="3.01841">
        <ele>934.649</ele>
        <time>2014-09-07T14:35:03Z</time>
      </trkpt>
      <trkpt lat="45.40518" lon="3.0196">
        <ele>929.032</ele>
        <time>2014-09-07T14:35:12Z</time>
      </trkpt>
      <trkpt lat="45.40495" lon="3.02008">
        <ele>926.36</ele>
        <time>2014-09-07T14:35:16Z</time>
      </trkpt>
      <trkpt lat="45.40489" lon="3.02057">
        <ele>923.816</ele>
        <time>2014-09-07T14:35:20Z</time>
      </trkpt>
      <trkpt lat="45.40501" lon="3.0208">
        <ele>922.715</ele>
        <time>2014-09-07T14:35:22Z</time>
      </trkpt>
      <trkpt lat="45.40544" lon="3.0215">
        <ele>920.239</ele>
        <time>2014-09-07T14:35:28Z</time>
      </trkpt>
      <trkpt lat="45.40559" lon="3.0221">
        <ele>918.4</ele>
        <time>2014-09-07T14:35:32Z</time>
      </trkpt>
      <trkpt lat="45.40572" lon="3.02308">
        <ele>914.683</ele>
        <time>2014-09-07T14:35:38Z</time>
      </trkpt>
      <trkpt lat="45.40593" lon="3.02387">
        <ele>911.538</ele>
        <time>2014-09-07T14:35:43Z</time>
      </trkpt>
      <trkpt lat="45.40619" lon="3.02442">
        <ele>909.056</ele>
        <time>2014-09-07T14:35:47Z</time>
      </trkpt>
      <trkpt lat="45.40643" lon="3.02476">
        <ele>907.697</ele>
        <time>2014-09-07T14:35:50Z</time>
      </trkpt>
      <trkpt lat="45.4067" lon="3.02505">
        <ele>905.902</ele>
        <time>2014-09-07T14:35:53Z</time>
      </trkpt>
      <trkpt lat="45.40713" lon="3.02565">
        <ele>901.683</ele>
        <time>2014-09-07T14:35:59Z</time>
      </trkpt>
      <trkpt lat="45.40758" lon="3.02601">
        <ele>898.976</ele>
        <time>2014-09-07T14:36:04Z</time>
      </trkpt>
      <trkpt lat="45.40783" lon="3.02634">
        <ele>896.382</ele>
        <time>2014-09-07T14:36:08Z</time>
      </trkpt>
      <trkpt lat="45.40781" lon="3.02649">
        <ele>895.143</ele>
        <time>2014-09-07T14:36:10Z</time>
      </trkpt>
      <trkpt lat="45.40777" lon="3.02665">
        <ele>893.991</ele>
        <time>2014-09-07T14:36:12Z</time>
      </trkpt>
      <trkpt lat="45.40783" lon="3.027">
        <ele>892.941</ele>
        <time>2014-09-07T14:36:16Z</time>
      </trkpt>
      <trkpt lat="45.40787" lon="3.02706">
        <ele>892.678</ele>
        <time>2014-09-07T14:36:17Z</time>
      </trkpt>
      <trkpt lat="45.40804" lon="3.02747">
        <ele>891.093</ele>
        <time>2014-09-07T14:36:22Z</time>
      </trkpt>
      <trkpt lat="45.40815" lon="3.028">
        <ele>889.817</ele>
        <time>2014-09-07T14:36:26Z</time>
      </trkpt>
      <trkpt lat="45.40833" lon="3.02861">
        <ele>888.188</ele>
        <time>2014-09-07T14:36:30Z</time>
      </trkpt>
      <trkpt lat="45.4087" lon="3.0293">
        <ele>885.439</ele>
        <time>2014-09-07T14:36:35Z</time>
      </trkpt>
      <trkpt lat="45.40887" lon="3.02952">
        <ele>884.053</ele>
        <time>2014-09-07T14:36:37Z</time>
      </trkpt>
      <trkpt lat="45.4091" lon="3.03008">
        <ele>881.922</ele>
        <time>2014-09-07T14:36:41Z</time>
      </trkpt>
      <trkpt lat="45.40918" lon="3.03038">
        <ele>880.503</ele>
        <time>2014-09-07T14:36:43Z</time>
      </trkpt>
      <trkpt lat="45.4092" lon="3.031">
        <ele>877.927</ele>
        <time>2014-09-07T14:36:47Z</time>
      </trkpt>
      <trkpt lat="45.40917" lon="3.03114">
        <ele>877.258</ele>
        <time>2014-09-07T14:36:48Z</time>
      </trkpt>
      <trkpt lat="45.40895" lon="3.03186">
        <ele>874.174</ele>
        <time>2014-09-07T14:36:53Z</time>
      </trkpt>
      <trkpt lat="45.4086" lon="3.0322">
        <ele>871.855</ele>
        <time>2014-09-07T14:36:57Z</time>
      </trkpt>
      <trkpt lat="45.40839" lon="3.03229">
        <ele>870.589</ele>
        <time>2014-09-07T14:36:59Z</time>
      </trkpt>
      <trkpt lat="45.40814" lon="3.03256">
        <ele>868.79</ele>
        <time>2014-09-07T14:37:02Z</time>
      </trkpt>
      <trkpt lat="45.40803" lon="3.03283">
        <ele>867.471</ele>
        <time>2014-09-07T14:37:04Z</time>
      </trkpt>
      <trkpt lat="45.40797" lon="3.03347">
        <ele>864.785</ele>
        <time>2014-09-07T14:37:09Z</time>
      </trkpt>
      <trkpt lat="45.40809" lon="3.03363">
        <ele>863.439</ele>
        <time>2014-09-07T14:37:11Z</time>
      </trkpt>
      <trkpt lat="45.40817" lon="3.03369">
        <ele>862.844</ele>
        <time>2014-09-07T14:37:12Z</time>
      </trkpt>
      <trkpt lat="45.40858" lon="3.03405">
        <ele>860.632</ele>
        <time>2014-09-07T14:37:17Z</time>
      </trkpt>
      <trkpt lat="45.40872" lon="3.03425">
        <ele>859.776</ele>
        <time>2014-09-07T14:37:19Z</time>
      </trkpt>
      <trkpt lat="45.40888" lon="3.03474">
        <ele>857.602</ele>
        <time>2014-09-07T14:37:23Z</time>
      </trkpt>
      <trkpt lat="45.40899" lon="3.03571">
        <ele>853.75</ele>
        <time>2014-09-07T14:37:30Z</time>
      </trkpt>
      <trkpt lat="45.40901" lon="3.03629">
        <ele>852.137</ele>
        <time>2014-09-07T14:37:34Z</time>
      </trkpt>
      <trkpt lat="45.40902" lon="3.03684">
        <ele>849.777</ele>
        <time>2014-09-07T14:37:38Z</time>
      </trkpt>
      <trkpt lat="45.40918" lon="3.03766">
        <ele>846.412</ele>
        <time>2014-09-07T14:37:44Z</time>
      </trkpt>
      <trkpt lat="45.40924" lon="3.03807">
        <ele>843.742</ele>
        <time>2014-09-07T14:37:48Z</time>
      </trkpt>
      <trkpt lat="45.4093" lon="3.03826">
        <ele>841.685</ele>
        <time>2014-09-07T14:37:52Z</time>
      </trkpt>
      <trkpt lat="45.4093" lon="3.03829">
        <ele>840.818</ele>
        <time>2014-09-07T14:37:56Z</time>
      </trkpt>
      <trkpt lat="45.40921" lon="3.03838">
        <ele>839.804</ele>
        <time>2014-09-07T14:38:29Z</time>
      </trkpt>
      <trkpt lat="45.40917" lon="3.03856">
        <ele>839.068</ele>
        <time>2014-09-07T14:38:34Z</time>
      </trkpt>
      <trkpt lat="45.40917" lon="3.03862">
        <ele>838.942</ele>
        <time>2014-09-07T14:38:35Z</time>
      </trkpt>
      <trkpt lat="45.40912" lon="3.03899">
        <ele>838.583</ele>
        <time>2014-09-07T14:38:39Z</time>
      </trkpt>
      <trkpt lat="45.40907" lon="3.03938">
        <ele>838.148</ele>
        <time>2014-09-07T14:38:42Z</time>
      </trkpt>
      <trkpt lat="45.40909" lon="3.03995">
        <ele>836.829</ele>
        <time>2014-09-07T14:38:46Z</time>
      </trkpt>
      <trkpt lat="45.40914" lon="3.04022">
        <ele>836.36</ele>
        <time>2014-09-07T14:38:48Z</time>
      </trkpt>
      <trkpt lat="45.40912" lon="3.04079">
        <ele>834.192</ele>
        <time>2014-09-07T14:38:52Z</time>
      </trkpt>
      <trkpt lat="45.40908" lon="3.04095">
        <ele>833.649</ele>
        <time>2014-09-07T14:38:53Z</time>
      </trkpt>
      <trkpt lat="45.4088" lon="3.04181">
        <ele>830.387</ele>
        <time>2014-09-07T14:38:59Z</time>
      </trkpt>
      <trkpt lat="45.40858" lon="3.04271">
        <ele>826.796</ele>
        <time>2014-09-07T14:39:05Z</time>
      </trkpt>
      <trkpt lat="45.4085" lon="3.04297">
        <ele>825.495</ele>
        <time>2014-09-07T14:39:07Z</time>
      </trkpt>
      <trkpt lat="45.40851" lon="3.04353">
        <ele>823.095</ele>
        <time>2014-09-07T14:39:11Z</time>
      </trkpt>
      <trkpt lat="45.40855" lon="3.04366">
        <ele>823.083</ele>
        <time>2014-09-07T14:39:12Z</time>
      </trkpt>
      <trkpt lat="45.40864" lon="3.04393">
        <ele>821.786</ele>
        <time>2014-09-07T14:39:14Z</time>
      </trkpt>
      <trkpt lat="45.40883" lon="3.04444">
        <ele>819.302</ele>
        <time>2014-09-07T14:39:18Z</time>
      </trkpt>
      <trkpt lat="45.40888" lon="3.04495">
        <ele>816.759</ele>
        <time>2014-09-07T14:39:22Z</time>
      </trkpt>
      <trkpt lat="45.40887" lon="3.04509">
        <ele>816.193</ele>
        <time>2014-09-07T14:39:23Z</time>
      </trkpt>
      <trkpt lat="45.4087" lon="3.04667">
        <ele>810.392</ele>
        <time>2014-09-07T14:39:34Z</time>
      </trkpt>
      <trkpt lat="45.40859" lon="3.04756">
        <ele>807.72</ele>
        <time>2014-09-07T14:39:40Z</time>
      </trkpt>
      <trkpt lat="45.40848" lon="3.04863">
        <ele>803.729</ele>
        <time>2014-09-07T14:39:47Z</time>
      </trkpt>
      <trkpt lat="45.40833" lon="3.04931">
        <ele>800.723</ele>
        <time>2014-09-07T14:39:52Z</time>
      </trkpt>
      <trkpt lat="45.40831" lon="3.04945">
        <ele>800.134</ele>
        <time>2014-09-07T14:39:53Z</time>
      </trkpt>
      <trkpt lat="45.40829" lon="3.05001">
        <ele>797.939</ele>
        <time>2014-09-07T14:39:57Z</time>
      </trkpt>
      <trkpt lat="45.40841" lon="3.05073">
        <ele>795.211</ele>
        <time>2014-09-07T14:40:02Z</time>
      </trkpt>
      <trkpt lat="45.40868" lon="3.05154">
        <ele>792.731</ele>
        <time>2014-09-07T14:40:07Z</time>
      </trkpt>
      <trkpt lat="45.40897" lon="3.05212">
        <ele>790.225</ele>
        <time>2014-09-07T14:40:11Z</time>
      </trkpt>
      <trkpt lat="45.40955" lon="3.05313">
        <ele>785.438</ele>
        <time>2014-09-07T14:40:18Z</time>
      </trkpt>
      <trkpt lat="45.40963" lon="3.05325">
        <ele>784.656</ele>
        <time>2014-09-07T14:40:19Z</time>
      </trkpt>
      <trkpt lat="45.41016" lon="3.05375">
        <ele>781.134</ele>
        <time>2014-09-07T14:40:24Z</time>
      </trkpt>
      <trkpt lat="45.41055" lon="3.05415">
        <ele>778.86</ele>
        <time>2014-09-07T14:40:28Z</time>
      </trkpt>
      <trkpt lat="45.41077" lon="3.05448">
        <ele>776.551</ele>
        <time>2014-09-07T14:40:31Z</time>
      </trkpt>
      <trkpt lat="45.41101" lon="3.05518">
        <ele>773.331</ele>
        <time>2014-09-07T14:40:36Z</time>
      </trkpt>
      <trkpt lat="45.41125" lon="3.05567">
        <ele>770.863</ele>
        <time>2014-09-07T14:40:40Z</time>
      </trkpt>
      <trkpt lat="45.41155" lon="3.05629">
        <ele>767.412</ele>
        <time>2014-09-07T14:40:45Z</time>
      </trkpt>
      <trkpt lat="45.41161" lon="3.05675">
        <ele>765.333</ele>
        <time>2014-09-07T14:40:48Z</time>
      </trkpt>
      <trkpt lat="45.41158" lon="3.05789">
        <ele>762.102</ele>
        <time>2014-09-07T14:40:55Z</time>
      </trkpt>
      <trkpt lat="45.41132" lon="3.05847">
        <ele>760.077</ele>
        <time>2014-09-07T14:40:59Z</time>
      </trkpt>
      <trkpt lat="45.41125" lon="3.05859">
        <ele>759.618</ele>
        <time>2014-09-07T14:41:00Z</time>
      </trkpt>
      <trkpt lat="45.41077" lon="3.05905">
        <ele>757.337</ele>
        <time>2014-09-07T14:41:05Z</time>
      </trkpt>
      <trkpt lat="45.40994" lon="3.05967">
        <ele>753.543</ele>
        <time>2014-09-07T14:41:13Z</time>
      </trkpt>
      <trkpt lat="45.40985" lon="3.05978">
        <ele>753.129</ele>
        <time>2014-09-07T14:41:14Z</time>
      </trkpt>
      <trkpt lat="45.40961" lon="3.06032">
        <ele>751.478</ele>
        <time>2014-09-07T14:41:18Z</time>
      </trkpt>
      <trkpt lat="45.40955" lon="3.06078">
        <ele>750.6</ele>
        <time>2014-09-07T14:41:21Z</time>
      </trkpt>
      <trkpt lat="45.40955" lon="3.06094">
        <ele>750.091</ele>
        <time>2014-09-07T14:41:22Z</time>
      </trkpt>
      <trkpt lat="45.40966" lon="3.06201">
        <ele>747.261</ele>
        <time>2014-09-07T14:41:29Z</time>
      </trkpt>
      <trkpt lat="45.40968" lon="3.06269">
        <ele>744.973</ele>
        <time>2014-09-07T14:41:34Z</time>
      </trkpt>
      <trkpt lat="45.40988" lon="3.06337">
        <ele>743.317</ele>
        <time>2014-09-07T14:41:39Z</time>
      </trkpt>
      <trkpt lat="45.4102" lon="3.06383">
        <ele>742.477</ele>
        <time>2014-09-07T14:41:43Z</time>
      </trkpt>
      <trkpt lat="45.41069" lon="3.06454">
        <ele>741.302</ele>
        <time>2014-09-07T14:41:50Z</time>
      </trkpt>
      <trkpt lat="45.41095" lon="3.0651">
        <ele>740.483</ele>
        <time>2014-09-07T14:41:55Z</time>
      </trkpt>
      <trkpt lat="45.411" lon="3.06557">
        <ele>740.124</ele>
        <time>2014-09-07T14:41:59Z</time>
      </trkpt>
      <trkpt lat="45.41104" lon="3.0663">
        <ele>739.508</ele>
        <time>2014-09-07T14:42:04Z</time>
      </trkpt>
      <trkpt lat="45.41107" lon="3.06699">
        <ele>738.694</ele>
        <time>2014-09-07T14:42:09Z</time>
      </trkpt>
      <trkpt lat="45.41111" lon="3.06725">
        <ele>738.506</ele>
        <time>2014-09-07T14:42:11Z</time>
      </trkpt>
      <trkpt lat="45.41136" lon="3.06788">
        <ele>737.166</ele>
        <time>2014-09-07T14:42:16Z</time>
      </trkpt>
      <trkpt lat="45.41154" lon="3.06846">
        <ele>735.804</ele>
        <time>2014-09-07T14:42:20Z</time>
      </trkpt>
      <trkpt lat="45.41164" lon="3.06904">
        <ele>734.302</ele>
        <time>2014-09-07T14:42:24Z</time>
      </trkpt>
      <trkpt lat="45.41168" lon="3.06939">
        <ele>733.349</ele>
        <time>2014-09-07T14:42:26Z</time>
      </trkpt>
      <trkpt lat="45.41194" lon="3.07">
        <ele>731.469</ele>
        <time>2014-09-07T14:42:30Z</time>
      </trkpt>
      <trkpt lat="45.412" lon="3.07012">
        <ele>731.086</ele>
        <time>2014-09-07T14:42:31Z</time>
      </trkpt>
      <trkpt lat="45.41236" lon="3.07078">
        <ele>729.674</ele>
        <time>2014-09-07T14:42:37Z</time>
      </trkpt>
      <trkpt lat="45.4125" lon="3.07126">
        <ele>728.331</ele>
        <time>2014-09-07T14:42:41Z</time>
      </trkpt>
      <trkpt lat="45.41238" lon="3.07163">
        <ele>727.265</ele>
        <time>2014-09-07T14:42:44Z</time>
      </trkpt>
      <trkpt lat="45.41233" lon="3.07175">
        <ele>726.986</ele>
        <time>2014-09-07T14:42:45Z</time>
      </trkpt>
      <trkpt lat="45.41203" lon="3.07225">
        <ele>725.802</ele>
        <time>2014-09-07T14:42:50Z</time>
      </trkpt>
      <trkpt lat="45.4117" lon="3.0727">
        <ele>724.469</ele>
        <time>2014-09-07T14:42:55Z</time>
      </trkpt>
      <trkpt lat="45.41181" lon="3.07317">
        <ele>723.831</ele>
        <time>2014-09-07T14:42:58Z</time>
      </trkpt>
      <trkpt lat="45.41187" lon="3.07329">
        <ele>723.783</ele>
        <time>2014-09-07T14:42:59Z</time>
      </trkpt>
      <trkpt lat="45.41227" lon="3.07417">
        <ele>723.365</ele>
        <time>2014-09-07T14:43:06Z</time>
      </trkpt>
      <trkpt lat="45.41233" lon="3.07444">
        <ele>723.063</ele>
        <time>2014-09-07T14:43:08Z</time>
      </trkpt>
      <trkpt lat="45.41237" lon="3.075">
        <ele>722.369</ele>
        <time>2014-09-07T14:43:12Z</time>
      </trkpt>
      <trkpt lat="45.41232" lon="3.0761">
        <ele>720.099</ele>
        <time>2014-09-07T14:43:19Z</time>
      </trkpt>
      <trkpt lat="45.4124" lon="3.07671">
        <ele>718.596</ele>
        <time>2014-09-07T14:43:23Z</time>
      </trkpt>
      <trkpt lat="45.4126" lon="3.07747">
        <ele>716.909</ele>
        <time>2014-09-07T14:43:28Z</time>
      </trkpt>
      <trkpt lat="45.41293" lon="3.07809">
        <ele>714.584</ele>
        <time>2014-09-07T14:43:33Z</time>
      </trkpt>
      <trkpt lat="45.41321" lon="3.07823">
        <ele>713.451</ele>
        <time>2014-09-07T14:43:36Z</time>
      </trkpt>
      <trkpt lat="45.41342" lon="3.07822">
        <ele>712.784</ele>
        <time>2014-09-07T14:43:38Z</time>
      </trkpt>
      <trkpt lat="45.41396" lon="3.07803">
        <ele>711.601</ele>
        <time>2014-09-07T14:43:43Z</time>
      </trkpt>
      <trkpt lat="45.41407" lon="3.07797">
        <ele>711.372</ele>
        <time>2014-09-07T14:43:44Z</time>
      </trkpt>
      <trkpt lat="45.41441" lon="3.07759">
        <ele>710.314</ele>
        <time>2014-09-07T14:43:48Z</time>
      </trkpt>
      <trkpt lat="45.41483" lon="3.07732">
        <ele>709.161</ele>
        <time>2014-09-07T14:43:53Z</time>
      </trkpt>
      <trkpt lat="45.4151" lon="3.07745">
        <ele>708.342</ele>
        <time>2014-09-07T14:43:56Z</time>
      </trkpt>
      <trkpt lat="45.4153" lon="3.07774">
        <ele>707.526</ele>
        <time>2014-09-07T14:43:59Z</time>
      </trkpt>
      <trkpt lat="45.41556" lon="3.07814">
        <ele>706.586</ele>
        <time>2014-09-07T14:44:03Z</time>
      </trkpt>
      <trkpt lat="45.41582" lon="3.07831">
        <ele>705.988</ele>
        <time>2014-09-07T14:44:06Z</time>
      </trkpt>
      <trkpt lat="45.41608" lon="3.0783">
        <ele>705.69</ele>
        <time>2014-09-07T14:44:09Z</time>
      </trkpt>
      <trkpt lat="45.41626" lon="3.07828">
        <ele>705.31</ele>
        <time>2014-09-07T14:44:11Z</time>
      </trkpt>
      <trkpt lat="45.4167" lon="3.0784">
        <ele>704.316</ele>
        <time>2014-09-07T14:44:16Z</time>
      </trkpt>
      <trkpt lat="45.41709" lon="3.07874">
        <ele>703.175</ele>
        <time>2014-09-07T14:44:21Z</time>
      </trkpt>
      <trkpt lat="45.41715" lon="3.07908">
        <ele>702.804</ele>
        <time>2014-09-07T14:44:24Z</time>
      </trkpt>
      <trkpt lat="45.41715" lon="3.07937">
        <ele>702.651</ele>
        <time>2014-09-07T14:44:26Z</time>
      </trkpt>
      <trkpt lat="45.41712" lon="3.08017">
        <ele>702.153</ele>
        <time>2014-09-07T14:44:31Z</time>
      </trkpt>
      <trkpt lat="45.41698" lon="3.08076">
        <ele>701.311</ele>
        <time>2014-09-07T14:44:35Z</time>
      </trkpt>
      <trkpt lat="45.41693" lon="3.08089">
        <ele>701.092</ele>
        <time>2014-09-07T14:44:36Z</time>
      </trkpt>
      <trkpt lat="45.41689" lon="3.08147">
        <ele>700.343</ele>
        <time>2014-09-07T14:44:40Z</time>
      </trkpt>
      <trkpt lat="45.41696" lon="3.08176">
        <ele>700.085</ele>
        <time>2014-09-07T14:44:42Z</time>
      </trkpt>
      <trkpt lat="45.41696" lon="3.08247">
        <ele>698.254</ele>
        <time>2014-09-07T14:44:47Z</time>
      </trkpt>
      <trkpt lat="45.41692" lon="3.08261">
        <ele>697.735</ele>
        <time>2014-09-07T14:44:48Z</time>
      </trkpt>
      <trkpt lat="45.41681" lon="3.0834">
        <ele>695.625</ele>
        <time>2014-09-07T14:44:53Z</time>
      </trkpt>
      <trkpt lat="45.41662" lon="3.08408">
        <ele>694.16</ele>
        <time>2014-09-07T14:44:57Z</time>
      </trkpt>
      <trkpt lat="45.41634" lon="3.08445">
        <ele>692.751</ele>
        <time>2014-09-07T14:45:00Z</time>
      </trkpt>
      <trkpt lat="45.41599" lon="3.08494">
        <ele>691.14</ele>
        <time>2014-09-07T14:45:04Z</time>
      </trkpt>
      <trkpt lat="45.41585" lon="3.08546">
        <ele>690.084</ele>
        <time>2014-09-07T14:45:08Z</time>
      </trkpt>
      <trkpt lat="45.41597" lon="3.08595">
        <ele>689.003</ele>
        <time>2014-09-07T14:45:12Z</time>
      </trkpt>
      <trkpt lat="45.41602" lon="3.08608">
        <ele>688.88</ele>
        <time>2014-09-07T14:45:13Z</time>
      </trkpt>
      <trkpt lat="45.41637" lon="3.08674">
        <ele>688.144</ele>
        <time>2014-09-07T14:45:18Z</time>
      </trkpt>
      <trkpt lat="45.41655" lon="3.08709">
        <ele>687.236</ele>
        <time>2014-09-07T14:45:21Z</time>
      </trkpt>
      <trkpt lat="45.41666" lon="3.08763">
        <ele>685.87</ele>
        <time>2014-09-07T14:45:25Z</time>
      </trkpt>
      <trkpt lat="45.41661" lon="3.08807">
        <ele>685.278</ele>
        <time>2014-09-07T14:45:28Z</time>
      </trkpt>
      <trkpt lat="45.41641" lon="3.08898">
        <ele>684.506</ele>
        <time>2014-09-07T14:45:34Z</time>
      </trkpt>
      <trkpt lat="45.41626" lon="3.08989">
        <ele>682.758</ele>
        <time>2014-09-07T14:45:40Z</time>
      </trkpt>
      <trkpt lat="45.41621" lon="3.09038">
        <ele>681.563</ele>
        <time>2014-09-07T14:45:43Z</time>
      </trkpt>
      <trkpt lat="45.41599" lon="3.09095">
        <ele>679.045</ele>
        <time>2014-09-07T14:45:47Z</time>
      </trkpt>
      <trkpt lat="45.41588" lon="3.09143">
        <ele>676.846</ele>
        <time>2014-09-07T14:45:50Z</time>
      </trkpt>
      <trkpt lat="45.41588" lon="3.09191">
        <ele>675.039</ele>
        <time>2014-09-07T14:45:53Z</time>
      </trkpt>
      <trkpt lat="45.41593" lon="3.0924">
        <ele>673.303</ele>
        <time>2014-09-07T14:45:56Z</time>
      </trkpt>
      <trkpt lat="45.41588" lon="3.09303">
        <ele>671.672</ele>
        <time>2014-09-07T14:46:00Z</time>
      </trkpt>
      <trkpt lat="45.41571" lon="3.0939">
        <ele>669.457</ele>
        <time>2014-09-07T14:46:06Z</time>
      </trkpt>
      <trkpt lat="45.41567" lon="3.09428">
        <ele>669.045</ele>
        <time>2014-09-07T14:46:09Z</time>
      </trkpt>
      <trkpt lat="45.41551" lon="3.09464">
        <ele>668.803</ele>
        <time>2014-09-07T14:46:13Z</time>
      </trkpt>
      <trkpt lat="45.4154" lon="3.09477">
        <ele>668.569</ele>
        <time>2014-09-07T14:46:15Z</time>
      </trkpt>
      <trkpt lat="45.41524" lon="3.09517">
        <ele>668.048</ele>
        <time>2014-09-07T14:46:19Z</time>
      </trkpt>
      <trkpt lat="45.41519" lon="3.09543">
        <ele>667.675</ele>
        <time>2014-09-07T14:46:21Z</time>
      </trkpt>
      <trkpt lat="45.41503" lon="3.09656">
        <ele>666.252</ele>
        <time>2014-09-07T14:46:29Z</time>
      </trkpt>
      <trkpt lat="45.41489" lon="3.09744">
        <ele>664.938</ele>
        <time>2014-09-07T14:46:35Z</time>
      </trkpt>
      <trkpt lat="45.41479" lon="3.098">
        <ele>664.38</ele>
        <time>2014-09-07T14:46:38Z</time>
      </trkpt>
      <trkpt lat="45.41457" lon="3.09872">
        <ele>663.503</ele>
        <time>2014-09-07T14:46:42Z</time>
      </trkpt>
      <trkpt lat="45.41429" lon="3.09929">
        <ele>661.88</ele>
        <time>2014-09-07T14:46:46Z</time>
      </trkpt>
      <trkpt lat="45.41406" lon="3.09981">
        <ele>660.649</ele>
        <time>2014-09-07T14:46:50Z</time>
      </trkpt>
      <trkpt lat="45.41402" lon="3.09994">
        <ele>660.265</ele>
        <time>2014-09-07T14:46:51Z</time>
      </trkpt>
      <trkpt lat="45.414" lon="3.10045">
        <ele>658.807</ele>
        <time>2014-09-07T14:46:55Z</time>
      </trkpt>
      <trkpt lat="45.41404" lon="3.10058">
        <ele>658.358</ele>
        <time>2014-09-07T14:46:56Z</time>
      </trkpt>
      <trkpt lat="45.41434" lon="3.10141">
        <ele>656.425</ele>
        <time>2014-09-07T14:47:02Z</time>
      </trkpt>
      <trkpt lat="45.41452" lon="3.10202">
        <ele>655.228</ele>
        <time>2014-09-07T14:47:06Z</time>
      </trkpt>
      <trkpt lat="45.4146" lon="3.10266">
        <ele>653.946</ele>
        <time>2014-09-07T14:47:10Z</time>
      </trkpt>
      <trkpt lat="45.4147" lon="3.10359">
        <ele>652.148</ele>
        <time>2014-09-07T14:47:16Z</time>
      </trkpt>
      <trkpt lat="45.41476" lon="3.10456">
        <ele>650.116</ele>
        <time>2014-09-07T14:47:22Z</time>
      </trkpt>
      <trkpt lat="45.41474" lon="3.10502">
        <ele>648.901</ele>
        <time>2014-09-07T14:47:25Z</time>
      </trkpt>
      <trkpt lat="45.41455" lon="3.10575">
        <ele>647.193</ele>
        <time>2014-09-07T14:47:30Z</time>
      </trkpt>
      <trkpt lat="45.4145" lon="3.10588">
        <ele>646.896</ele>
        <time>2014-09-07T14:47:31Z</time>
      </trkpt>
      <trkpt lat="45.41415" lon="3.10641">
        <ele>645.369</ele>
        <time>2014-09-07T14:47:36Z</time>
      </trkpt>
      <trkpt lat="45.41356" lon="3.10696">
        <ele>643.795</ele>
        <time>2014-09-07T14:47:43Z</time>
      </trkpt>
      <trkpt lat="45.41317" lon="3.10708">
        <ele>642.858</ele>
        <time>2014-09-07T14:47:47Z</time>
      </trkpt>
      <trkpt lat="45.41306" lon="3.10708">
        <ele>642.577</ele>
        <time>2014-09-07T14:47:48Z</time>
      </trkpt>
      <trkpt lat="45.41275" lon="3.10704">
        <ele>641.524</ele>
        <time>2014-09-07T14:47:52Z</time>
      </trkpt>
      <trkpt lat="45.41264" lon="3.10701">
        <ele>640.905</ele>
        <time>2014-09-07T14:47:55Z</time>
      </trkpt>
      <trkpt lat="45.41261" lon="3.10701">
        <ele>640.655</ele>
        <time>2014-09-07T14:47:59Z</time>
      </trkpt>
      <trkpt lat="45.41249" lon="3.10703">
        <ele>640.27</ele>
        <time>2014-09-07T14:59:24Z</time>
      </trkpt>
      <trkpt lat="45.41245" lon="3.10707">
        <ele>640.244</ele>
        <time>2014-09-07T14:59:25Z</time>
      </trkpt>
      <trkpt lat="45.41228" lon="3.10733">
        <ele>639.902</ele>
        <time>2014-09-07T14:59:29Z</time>
      </trkpt>
      <trkpt lat="45.41209" lon="3.10784">
        <ele>639.279</ele>
        <time>2014-09-07T14:59:34Z</time>
      </trkpt>
      <trkpt lat="45.41197" lon="3.10848">
        <ele>638.444</ele>
        <time>2014-09-07T14:59:39Z</time>
      </trkpt>
      <trkpt lat="45.41174" lon="3.10962">
        <ele>636.966</ele>
        <time>2014-09-07T14:59:47Z</time>
      </trkpt>
      <trkpt lat="45.41169" lon="3.10975">
        <ele>636.846</ele>
        <time>2014-09-07T14:59:48Z</time>
      </trkpt>
      <trkpt lat="45.41148" lon="3.11007">
        <ele>636.508</ele>
        <time>2014-09-07T14:59:51Z</time>
      </trkpt>
      <trkpt lat="45.41133" lon="3.11027">
        <ele>636.234</ele>
        <time>2014-09-07T14:59:53Z</time>
      </trkpt>
      <trkpt lat="45.41107" lon="3.11075">
        <ele>635.415</ele>
        <time>2014-09-07T14:59:57Z</time>
      </trkpt>
      <trkpt lat="45.41087" lon="3.11129">
        <ele>634.768</ele>
        <time>2014-09-07T15:00:01Z</time>
      </trkpt>
      <trkpt lat="45.41057" lon="3.11168">
        <ele>634.691</ele>
        <time>2014-09-07T15:00:05Z</time>
      </trkpt>
      <trkpt lat="45.41048" lon="3.11173">
        <ele>634.67</ele>
        <time>2014-09-07T15:00:06Z</time>
      </trkpt>
      <trkpt lat="45.40982" lon="3.11185">
        <ele>634.802</ele>
        <time>2014-09-07T15:00:12Z</time>
      </trkpt>
      <trkpt lat="45.40948" lon="3.11215">
        <ele>634.812</ele>
        <time>2014-09-07T15:00:16Z</time>
      </trkpt>
      <trkpt lat="45.40856" lon="3.11318">
        <ele>635.559</ele>
        <time>2014-09-07T15:00:26Z</time>
      </trkpt>
      <trkpt lat="45.40808" lon="3.11371">
        <ele>635.361</ele>
        <time>2014-09-07T15:00:31Z</time>
      </trkpt>
      <trkpt lat="45.40767" lon="3.11442">
        <ele>634.676</ele>
        <time>2014-09-07T15:00:36Z</time>
      </trkpt>
      <trkpt lat="45.40708" lon="3.11543">
        <ele>632.847</ele>
        <time>2014-09-07T15:00:42Z</time>
      </trkpt>
      <trkpt lat="45.40665" lon="3.11632">
        <ele>630.871</ele>
        <time>2014-09-07T15:00:47Z</time>
      </trkpt>
      <trkpt lat="45.40625" lon="3.11692">
        <ele>629.676</ele>
        <time>2014-09-07T15:00:51Z</time>
      </trkpt>
      <trkpt lat="45.40615" lon="3.11707">
        <ele>629.417</ele>
        <time>2014-09-07T15:00:52Z</time>
      </trkpt>
      <trkpt lat="45.40588" lon="3.11776">
        <ele>628.517</ele>
        <time>2014-09-07T15:00:56Z</time>
      </trkpt>
      <trkpt lat="45.40553" lon="3.11906">
        <ele>626.49</ele>
        <time>2014-09-07T15:01:03Z</time>
      </trkpt>
      <trkpt lat="45.40531" lon="3.11999">
        <ele>624.46</ele>
        <time>2014-09-07T15:01:08Z</time>
      </trkpt>
      <trkpt lat="45.40499" lon="3.12124">
        <ele>620.245</ele>
        <time>2014-09-07T15:01:15Z</time>
      </trkpt>
      <trkpt lat="45.40496" lon="3.12193">
        <ele>618.349</ele>
        <time>2014-09-07T15:01:19Z</time>
      </trkpt>
      <trkpt lat="45.40506" lon="3.12236">
        <ele>617.529</ele>
        <time>2014-09-07T15:01:22Z</time>
      </trkpt>
      <trkpt lat="45.40514" lon="3.12278">
        <ele>617.479</ele>
        <time>2014-09-07T15:01:25Z</time>
      </trkpt>
      <trkpt lat="45.40514" lon="3.1239">
        <ele>618.868</ele>
        <time>2014-09-07T15:01:33Z</time>
      </trkpt>
      <trkpt lat="45.40499" lon="3.12474">
        <ele>619.87</ele>
        <time>2014-09-07T15:01:39Z</time>
      </trkpt>
      <trkpt lat="45.40501" lon="3.12512">
        <ele>619.487</ele>
        <time>2014-09-07T15:01:42Z</time>
      </trkpt>
      <trkpt lat="45.40505" lon="3.12522">
        <ele>619.503</ele>
        <time>2014-09-07T15:01:43Z</time>
      </trkpt>
      <trkpt lat="45.40512" lon="3.12541">
        <ele>619.517</ele>
        <time>2014-09-07T15:01:45Z</time>
      </trkpt>
      <trkpt lat="45.40512" lon="3.12599">
        <ele>621.27</ele>
        <time>2014-09-07T15:01:50Z</time>
      </trkpt>
      <trkpt lat="45.40514" lon="3.12612">
        <ele>621.853</ele>
        <time>2014-09-07T15:01:51Z</time>
      </trkpt>
      <trkpt lat="45.40528" lon="3.12671">
        <ele>624.914</ele>
        <time>2014-09-07T15:01:55Z</time>
      </trkpt>
      <trkpt lat="45.40549" lon="3.12714">
        <ele>626.523</ele>
        <time>2014-09-07T15:01:58Z</time>
      </trkpt>
      <trkpt lat="45.40574" lon="3.12751">
        <ele>628.825</ele>
        <time>2014-09-07T15:02:01Z</time>
      </trkpt>
      <trkpt lat="45.4059" lon="3.1277">
        <ele>630.102</ele>
        <time>2014-09-07T15:02:03Z</time>
      </trkpt>
      <trkpt lat="45.40602" lon="3.12798">
        <ele>631.638</ele>
        <time>2014-09-07T15:02:06Z</time>
      </trkpt>
      <trkpt lat="45.40594" lon="3.12822">
        <ele>632.891</ele>
        <time>2014-09-07T15:02:09Z</time>
      </trkpt>
      <trkpt lat="45.4058" lon="3.12844">
        <ele>633.95</ele>
        <time>2014-09-07T15:02:12Z</time>
      </trkpt>
      <trkpt lat="45.40553" lon="3.12857">
        <ele>634.259</ele>
        <time>2014-09-07T15:02:15Z</time>
      </trkpt>
      <trkpt lat="45.40531" lon="3.12855">
        <ele>634.202</ele>
        <time>2014-09-07T15:02:17Z</time>
      </trkpt>
      <trkpt lat="45.40479" lon="3.12843">
        <ele>632.682</ele>
        <time>2014-09-07T15:02:21Z</time>
      </trkpt>
      <trkpt lat="45.40437" lon="3.12851">
        <ele>630.805</ele>
        <time>2014-09-07T15:02:25Z</time>
      </trkpt>
      <trkpt lat="45.40417" lon="3.12881">
        <ele>628.396</ele>
        <time>2014-09-07T15:02:28Z</time>
      </trkpt>
      <trkpt lat="45.40393" lon="3.1293">
        <ele>626.215</ele>
        <time>2014-09-07T15:02:32Z</time>
      </trkpt>
      <trkpt lat="45.40385" lon="3.12939">
        <ele>626.04</ele>
        <time>2014-09-07T15:02:33Z</time>
      </trkpt>
      <trkpt lat="45.40311" lon="3.13023">
        <ele>628.494</ele>
        <time>2014-09-07T15:02:42Z</time>
      </trkpt>
      <trkpt lat="45.40277" lon="3.13065">
        <ele>630.33</ele>
        <time>2014-09-07T15:02:47Z</time>
      </trkpt>
      <trkpt lat="45.40271" lon="3.13071">
        <ele>630.626</ele>
        <time>2014-09-07T15:02:48Z</time>
      </trkpt>
      <trkpt lat="45.40257" lon="3.13073">
        <ele>631.201</ele>
        <time>2014-09-07T15:02:52Z</time>
      </trkpt>
      <trkpt lat="45.4025" lon="3.1306">
        <ele>631.107</ele>
        <time>2014-09-07T15:02:54Z</time>
      </trkpt>
      <trkpt lat="45.40236" lon="3.1302">
        <ele>630.674</ele>
        <time>2014-09-07T15:02:58Z</time>
      </trkpt>
      <trkpt lat="45.40221" lon="3.12996">
        <ele>630.57</ele>
        <time>2014-09-07T15:03:02Z</time>
      </trkpt>
      <trkpt lat="45.40212" lon="3.12982">
        <ele>631.067</ele>
        <time>2014-09-07T15:03:06Z</time>
      </trkpt>
      <trkpt lat="45.4021" lon="3.12977">
        <ele>631.557</ele>
        <time>2014-09-07T15:03:09Z</time>
      </trkpt>
      <trkpt lat="45.40206" lon="3.12967">
        <ele>630.233</ele>
        <time>2014-09-07T15:07:29Z</time>
      </trkpt>
      <trkpt lat="45.40208" lon="3.12951">
        <ele>630.637</ele>
        <time>2014-09-07T15:07:32Z</time>
      </trkpt>
      <trkpt lat="45.40218" lon="3.12955">
        <ele>631.16</ele>
        <time>2014-09-07T15:07:35Z</time>
      </trkpt>
      <trkpt lat="45.40223" lon="3.12972">
        <ele>631.634</ele>
        <time>2014-09-07T15:07:37Z</time>
      </trkpt>
      <trkpt lat="45.40238" lon="3.13027">
        <ele>630.698</ele>
        <time>2014-09-07T15:07:41Z</time>
      </trkpt>
      <trkpt lat="45.40259" lon="3.13074">
        <ele>629.089</ele>
        <time>2014-09-07T15:07:45Z</time>
      </trkpt>
      <trkpt lat="45.40265" lon="3.1309">
        <ele>629.061</ele>
        <time>2014-09-07T15:07:47Z</time>
      </trkpt>
      <trkpt lat="45.40277" lon="3.13116">
        <ele>631.144</ele>
        <time>2014-09-07T15:07:52Z</time>
      </trkpt>
      <trkpt lat="45.40277" lon="3.13124">
        <ele>631.929</ele>
        <time>2014-09-07T15:07:53Z</time>
      </trkpt>
      <trkpt lat="45.40277" lon="3.13172">
        <ele>635.986</ele>
        <time>2014-09-07T15:07:57Z</time>
      </trkpt>
      <trkpt lat="45.40268" lon="3.13247">
        <ele>642.088</ele>
        <time>2014-09-07T15:08:02Z</time>
      </trkpt>
      <trkpt lat="45.40268" lon="3.13281">
        <ele>644.342</ele>
        <time>2014-09-07T15:08:04Z</time>
      </trkpt>
      <trkpt lat="45.4028" lon="3.13341">
        <ele>647.357</ele>
        <time>2014-09-07T15:08:08Z</time>
      </trkpt>
      <trkpt lat="45.40286" lon="3.13394">
        <ele>649.395</ele>
        <time>2014-09-07T15:08:11Z</time>
      </trkpt>
      <trkpt lat="45.40287" lon="3.13513">
        <ele>657.286</ele>
        <time>2014-09-07T15:08:17Z</time>
      </trkpt>
      <trkpt lat="45.40288" lon="3.13534">
        <ele>657.282</ele>
        <time>2014-09-07T15:08:18Z</time>
      </trkpt>
      <trkpt lat="45.40296" lon="3.13637">
        <ele>665.147</ele>
        <time>2014-09-07T15:08:23Z</time>
      </trkpt>
      <trkpt lat="45.40302" lon="3.137">
        <ele>668.846</ele>
        <time>2014-09-07T15:08:27Z</time>
      </trkpt>
      <trkpt lat="45.4031" lon="3.13783">
        <ele>669.55</ele>
        <time>2014-09-07T15:08:32Z</time>
      </trkpt>
      <trkpt lat="45.40316" lon="3.13883">
        <ele>666.751</ele>
        <time>2014-09-07T15:08:37Z</time>
      </trkpt>
      <trkpt lat="45.40315" lon="3.1396">
        <ele>664.106</ele>
        <time>2014-09-07T15:08:41Z</time>
      </trkpt>
      <trkpt lat="45.40319" lon="3.14012">
        <ele>663.285</ele>
        <time>2014-09-07T15:08:44Z</time>
      </trkpt>
      <trkpt lat="45.40314" lon="3.14071">
        <ele>662.956</ele>
        <time>2014-09-07T15:08:48Z</time>
      </trkpt>
      <trkpt lat="45.40318" lon="3.1409">
        <ele>663.148</ele>
        <time>2014-09-07T15:08:50Z</time>
      </trkpt>
      <trkpt lat="45.40316" lon="3.14114">
        <ele>663.982</ele>
        <time>2014-09-07T15:08:53Z</time>
      </trkpt>
      <trkpt lat="45.40305" lon="3.14132">
        <ele>665.072</ele>
        <time>2014-09-07T15:08:55Z</time>
      </trkpt>
      <trkpt lat="45.40288" lon="3.14192">
        <ele>669.551</ele>
        <time>2014-09-07T15:09:00Z</time>
      </trkpt>
      <trkpt lat="45.40295" lon="3.14208">
        <ele>671.103</ele>
        <time>2014-09-07T15:09:02Z</time>
      </trkpt>
      <trkpt lat="45.40308" lon="3.14217">
        <ele>672.397</ele>
        <time>2014-09-07T15:09:04Z</time>
      </trkpt>
      <trkpt lat="45.40335" lon="3.14235">
        <ele>674.371</ele>
        <time>2014-09-07T15:09:07Z</time>
      </trkpt>
      <trkpt lat="45.4035" lon="3.1425">
        <ele>675.009</ele>
        <time>2014-09-07T15:09:09Z</time>
      </trkpt>
      <trkpt lat="45.4037" lon="3.14289">
        <ele>676.91</ele>
        <time>2014-09-07T15:09:13Z</time>
      </trkpt>
      <trkpt lat="45.40375" lon="3.14326">
        <ele>678.062</ele>
        <time>2014-09-07T15:09:16Z</time>
      </trkpt>
      <trkpt lat="45.40373" lon="3.14343">
        <ele>678.953</ele>
        <time>2014-09-07T15:09:18Z</time>
      </trkpt>
      <trkpt lat="45.40372" lon="3.14359">
        <ele>680.369</ele>
        <time>2014-09-07T15:09:21Z</time>
      </trkpt>
      <trkpt lat="45.40375" lon="3.14364">
        <ele>680.741</ele>
        <time>2014-09-07T15:09:22Z</time>
      </trkpt>
      <trkpt lat="45.40384" lon="3.14381">
        <ele>681.676</ele>
        <time>2014-09-07T15:09:25Z</time>
      </trkpt>
      <trkpt lat="45.40395" lon="3.14423">
        <ele>682.9</ele>
        <time>2014-09-07T15:09:30Z</time>
      </trkpt>
      <trkpt lat="45.40403" lon="3.14465">
        <ele>683.669</ele>
        <time>2014-09-07T15:09:34Z</time>
      </trkpt>
      <trkpt lat="45.4041" lon="3.14493">
        <ele>684.307</ele>
        <time>2014-09-07T15:09:37Z</time>
      </trkpt>
      <trkpt lat="45.40413" lon="3.14527">
        <ele>684.616</ele>
        <time>2014-09-07T15:09:41Z</time>
      </trkpt>
      <trkpt lat="45.40412" lon="3.14548">
        <ele>684.487</ele>
        <time>2014-09-07T15:09:44Z</time>
      </trkpt>
      <trkpt lat="45.40408" lon="3.14578">
        <ele>684.526</ele>
        <time>2014-09-07T15:09:48Z</time>
      </trkpt>
      <trkpt lat="45.40412" lon="3.146">
        <ele>684.651</ele>
        <time>2014-09-07T15:09:52Z</time>
      </trkpt>
      <trkpt lat="45.40435" lon="3.14658">
        <ele>684.75</ele>
        <time>2014-09-07T15:09:58Z</time>
      </trkpt>
      <trkpt lat="45.40443" lon="3.1468">
        <ele>684.844</ele>
        <time>2014-09-07T15:10:00Z</time>
      </trkpt>
      <trkpt lat="45.40459" lon="3.14734">
        <ele>685.82</ele>
        <time>2014-09-07T15:10:05Z</time>
      </trkpt>
      <trkpt lat="45.40464" lon="3.14745">
        <ele>686.07</ele>
        <time>2014-09-07T15:10:07Z</time>
      </trkpt>
      <trkpt lat="45.40487" lon="3.14754">
        <ele>686.997</ele>
        <time>2014-09-07T15:10:12Z</time>
      </trkpt>
      <trkpt lat="45.40499" lon="3.14747">
        <ele>687.751</ele>
        <time>2014-09-07T15:10:15Z</time>
      </trkpt>
      <trkpt lat="45.40515" lon="3.14741">
        <ele>689.388</ele>
        <time>2014-09-07T15:10:21Z</time>
      </trkpt>
      <trkpt lat="45.4053" lon="3.14763">
        <ele>689.805</ele>
        <time>2014-09-07T15:10:25Z</time>
      </trkpt>
      <trkpt lat="45.40558" lon="3.14811">
        <ele>687.743</ele>
        <time>2014-09-07T15:10:30Z</time>
      </trkpt>
      <trkpt lat="45.40584" lon="3.14842">
        <ele>685.34</ele>
        <time>2014-09-07T15:10:33Z</time>
      </trkpt>
      <trkpt lat="45.40623" lon="3.14882">
        <ele>684.051</ele>
        <time>2014-09-07T15:10:37Z</time>
      </trkpt>
      <trkpt lat="45.40638" lon="3.14896">
        <ele>684.156</ele>
        <time>2014-09-07T15:10:39Z</time>
      </trkpt>
      <trkpt lat="45.40659" lon="3.1491">
        <ele>685.152</ele>
        <time>2014-09-07T15:10:42Z</time>
      </trkpt>
      <trkpt lat="45.40683" lon="3.1493">
        <ele>685.995</ele>
        <time>2014-09-07T15:10:46Z</time>
      </trkpt>
      <trkpt lat="45.40701" lon="3.1495">
        <ele>685.788</ele>
        <time>2014-09-07T15:10:50Z</time>
      </trkpt>
      <trkpt lat="45.40703" lon="3.14954">
        <ele>685.497</ele>
        <time>2014-09-07T15:10:51Z</time>
      </trkpt>
      <trkpt lat="45.40724" lon="3.14994">
        <ele>684.43</ele>
        <time>2014-09-07T15:10:57Z</time>
      </trkpt>
      <trkpt lat="45.40732" lon="3.15015">
        <ele>684.856</ele>
        <time>2014-09-07T15:10:59Z</time>
      </trkpt>
      <trkpt lat="45.4075" lon="3.15043">
        <ele>685.839</ele>
        <time>2014-09-07T15:11:03Z</time>
      </trkpt>
      <trkpt lat="45.40752" lon="3.15045">
        <ele>685.93</ele>
        <time>2014-09-07T15:11:06Z</time>
      </trkpt>
      <trkpt lat="45.40757" lon="3.15048">
        <ele>684.736</ele>
        <time>2014-09-07T15:11:30Z</time>
      </trkpt>
      <trkpt lat="45.40765" lon="3.15059">
        <ele>684.411</ele>
        <time>2014-09-07T15:11:33Z</time>
      </trkpt>
      <trkpt lat="45.40782" lon="3.15086">
        <ele>683.205</ele>
        <time>2014-09-07T15:11:38Z</time>
      </trkpt>
      <trkpt lat="45.40792" lon="3.15104">
        <ele>682.404</ele>
        <time>2014-09-07T15:11:41Z</time>
      </trkpt>
      <trkpt lat="45.40797" lon="3.15118">
        <ele>681.576</ele>
        <time>2014-09-07T15:11:43Z</time>
      </trkpt>
      <trkpt lat="45.40804" lon="3.15164">
        <ele>680.383</ele>
        <time>2014-09-07T15:11:47Z</time>
      </trkpt>
      <trkpt lat="45.40804" lon="3.15189">
        <ele>679.834</ele>
        <time>2014-09-07T15:11:49Z</time>
      </trkpt>
      <trkpt lat="45.40805" lon="3.15213">
        <ele>679.478</ele>
        <time>2014-09-07T15:11:51Z</time>
      </trkpt>
      <trkpt lat="45.40819" lon="3.15267">
        <ele>678.923</ele>
        <time>2014-09-07T15:11:56Z</time>
      </trkpt>
      <trkpt lat="45.40832" lon="3.15305">
        <ele>677.708</ele>
        <time>2014-09-07T15:12:00Z</time>
      </trkpt>
      <trkpt lat="45.40836" lon="3.15325">
        <ele>676.685</ele>
        <time>2014-09-07T15:12:02Z</time>
      </trkpt>
      <trkpt lat="45.40846" lon="3.1538">
        <ele>675.534</ele>
        <time>2014-09-07T15:12:07Z</time>
      </trkpt>
      <trkpt lat="45.4086" lon="3.15418">
        <ele>674.647</ele>
        <time>2014-09-07T15:12:12Z</time>
      </trkpt>
      <trkpt lat="45.40866" lon="3.15432">
        <ele>674.435</ele>
        <time>2014-09-07T15:12:14Z</time>
      </trkpt>
      <trkpt lat="45.40874" lon="3.15459">
        <ele>675.296</ele>
        <time>2014-09-07T15:12:20Z</time>
      </trkpt>
      <trkpt lat="45.40878" lon="3.15479">
        <ele>676.638</ele>
        <time>2014-09-07T15:12:25Z</time>
      </trkpt>
      <trkpt lat="45.40886" lon="3.15505">
        <ele>678.828</ele>
        <time>2014-09-07T15:12:31Z</time>
      </trkpt>
      <trkpt lat="45.40896" lon="3.15525">
        <ele>682.075</ele>
        <time>2014-09-07T15:12:37Z</time>
      </trkpt>
      <trkpt lat="45.40901" lon="3.15536">
        <ele>684.234</ele>
        <time>2014-09-07T15:12:41Z</time>
      </trkpt>
      <trkpt lat="45.40919" lon="3.15537">
        <ele>687.709</ele>
        <time>2014-09-07T15:12:47Z</time>
      </trkpt>
      <trkpt lat="45.40939" lon="3.15527">
        <ele>690.967</ele>
        <time>2014-09-07T15:12:53Z</time>
      </trkpt>
      <trkpt lat="45.40956" lon="3.15519">
        <ele>693.972</ele>
        <time>2014-09-07T15:12:59Z</time>
      </trkpt>
      <trkpt lat="45.40962" lon="3.15533">
        <ele>696.468</ele>
        <time>2014-09-07T15:13:03Z</time>
      </trkpt>
      <trkpt lat="45.40955" lon="3.15548">
        <ele>698.026</ele>
        <time>2014-09-07T15:13:06Z</time>
      </trkpt>
      <trkpt lat="45.40952" lon="3.15565">
        <ele>698.619</ele>
        <time>2014-09-07T15:13:09Z</time>
      </trkpt>
      <trkpt lat="45.40954" lon="3.15571">
        <ele>698.757</ele>
        <time>2014-09-07T15:13:10Z</time>
      </trkpt>
      <trkpt lat="45.40956" lon="3.15606">
        <ele>698.264</ele>
        <time>2014-09-07T15:13:15Z</time>
      </trkpt>
      <trkpt lat="45.40949" lon="3.15615">
        <ele>697.661</ele>
        <time>2014-09-07T15:13:17Z</time>
      </trkpt>
      <trkpt lat="45.40934" lon="3.15646">
        <ele>695.112</ele>
        <time>2014-09-07T15:13:22Z</time>
      </trkpt>
      <trkpt lat="45.40937" lon="3.15681">
        <ele>692.303</ele>
        <time>2014-09-07T15:13:26Z</time>
      </trkpt>
      <trkpt lat="45.40939" lon="3.15689">
        <ele>691.658</ele>
        <time>2014-09-07T15:13:27Z</time>
      </trkpt>
      <trkpt lat="45.40942" lon="3.15708">
        <ele>690.594</ele>
        <time>2014-09-07T15:13:29Z</time>
      </trkpt>
      <trkpt lat="45.40961" lon="3.15791">
        <ele>687.294</ele>
        <time>2014-09-07T15:13:37Z</time>
      </trkpt>
      <trkpt lat="45.40968" lon="3.15825">
        <ele>685.829</ele>
        <time>2014-09-07T15:13:41Z</time>
      </trkpt>
      <trkpt lat="45.40964" lon="3.15864">
        <ele>684.107</ele>
        <time>2014-09-07T15:13:46Z</time>
      </trkpt>
      <trkpt lat="45.40958" lon="3.15918">
        <ele>680.393</ele>
        <time>2014-09-07T15:13:52Z</time>
      </trkpt>
      <trkpt lat="45.40959" lon="3.15946">
        <ele>679.161</ele>
        <time>2014-09-07T15:13:55Z</time>
      </trkpt>
      <trkpt lat="45.40961" lon="3.15997">
        <ele>678.401</ele>
        <time>2014-09-07T15:14:01Z</time>
      </trkpt>
      <trkpt lat="45.40964" lon="3.16049">
        <ele>678.228</ele>
        <time>2014-09-07T15:14:05Z</time>
      </trkpt>
      <trkpt lat="45.40966" lon="3.16063">
        <ele>677.912</ele>
        <time>2014-09-07T15:14:06Z</time>
      </trkpt>
      <trkpt lat="45.40981" lon="3.16118">
        <ele>675.654</ele>
        <time>2014-09-07T15:14:10Z</time>
      </trkpt>
      <trkpt lat="45.41009" lon="3.16173">
        <ele>674.618</ele>
        <time>2014-09-07T15:14:14Z</time>
      </trkpt>
      <trkpt lat="45.41034" lon="3.16206">
        <ele>674.642</ele>
        <time>2014-09-07T15:14:17Z</time>
      </trkpt>
      <trkpt lat="45.41047" lon="3.16244">
        <ele>674.594</ele>
        <time>2014-09-07T15:14:20Z</time>
      </trkpt>
      <trkpt lat="45.41047" lon="3.16306">
        <ele>673.792</ele>
        <time>2014-09-07T15:14:24Z</time>
      </trkpt>
      <trkpt lat="45.41051" lon="3.16335">
        <ele>673.588</ele>
        <time>2014-09-07T15:14:26Z</time>
      </trkpt>
      <trkpt lat="45.41078" lon="3.164">
        <ele>672.211</ele>
        <time>2014-09-07T15:14:32Z</time>
      </trkpt>
      <trkpt lat="45.41094" lon="3.16433">
        <ele>669.44</ele>
        <time>2014-09-07T15:14:35Z</time>
      </trkpt>
      <trkpt lat="45.41106" lon="3.16453">
        <ele>668.244</ele>
        <time>2014-09-07T15:14:37Z</time>
      </trkpt>
      <trkpt lat="45.41119" lon="3.16472">
        <ele>666.313</ele>
        <time>2014-09-07T15:14:39Z</time>
      </trkpt>
      <trkpt lat="45.41141" lon="3.16526">
        <ele>663.154</ele>
        <time>2014-09-07T15:14:44Z</time>
      </trkpt>
      <trkpt lat="45.4116" lon="3.16597">
        <ele>661.322</ele>
        <time>2014-09-07T15:14:50Z</time>
      </trkpt>
      <trkpt lat="45.41177" lon="3.16666">
        <ele>659</ele>
        <time>2014-09-07T15:14:55Z</time>
      </trkpt>
      <trkpt lat="45.41198" lon="3.16767">
        <ele>654.362</ele>
        <time>2014-09-07T15:15:02Z</time>
      </trkpt>
      <trkpt lat="45.41201" lon="3.16782">
        <ele>654.358</ele>
        <time>2014-09-07T15:15:03Z</time>
      </trkpt>
      <trkpt lat="45.41213" lon="3.16847">
        <ele>649.961</ele>
        <time>2014-09-07T15:15:08Z</time>
      </trkpt>
      <trkpt lat="45.41222" lon="3.16906">
        <ele>645.781</ele>
        <time>2014-09-07T15:15:13Z</time>
      </trkpt>
      <trkpt lat="45.41226" lon="3.16918">
        <ele>645.421</ele>
        <time>2014-09-07T15:15:14Z</time>
      </trkpt>
      <trkpt lat="45.41249" lon="3.16976">
        <ele>644.826</ele>
        <time>2014-09-07T15:15:19Z</time>
      </trkpt>
      <trkpt lat="45.41283" lon="3.17037">
        <ele>643.28</ele>
        <time>2014-09-07T15:15:24Z</time>
      </trkpt>
      <trkpt lat="45.41302" lon="3.1708">
        <ele>641.724</ele>
        <time>2014-09-07T15:15:27Z</time>
      </trkpt>
      <trkpt lat="45.41314" lon="3.17144">
        <ele>639.484</ele>
        <time>2014-09-07T15:15:31Z</time>
      </trkpt>
      <trkpt lat="45.41312" lon="3.17262">
        <ele>633.059</ele>
        <time>2014-09-07T15:15:38Z</time>
      </trkpt>
      <trkpt lat="45.41312" lon="3.17278">
        <ele>632.092</ele>
        <time>2014-09-07T15:15:39Z</time>
      </trkpt>
      <trkpt lat="45.41317" lon="3.17351">
        <ele>627.099</ele>
        <time>2014-09-07T15:15:44Z</time>
      </trkpt>
      <trkpt lat="45.41308" lon="3.17429">
        <ele>622.976</ele>
        <time>2014-09-07T15:15:49Z</time>
      </trkpt>
      <trkpt lat="45.413" lon="3.17493">
        <ele>620.615</ele>
        <time>2014-09-07T15:15:53Z</time>
      </trkpt>
      <trkpt lat="45.41285" lon="3.17569">
        <ele>617.475</ele>
        <time>2014-09-07T15:15:58Z</time>
      </trkpt>
      <trkpt lat="45.41283" lon="3.17585">
        <ele>617.045</ele>
        <time>2014-09-07T15:15:59Z</time>
      </trkpt>
      <trkpt lat="45.41283" lon="3.17643">
        <ele>615.607</ele>
        <time>2014-09-07T15:16:03Z</time>
      </trkpt>
      <trkpt lat="45.41286" lon="3.1767">
        <ele>614.479</ele>
        <time>2014-09-07T15:16:06Z</time>
      </trkpt>
      <trkpt lat="45.41288" lon="3.17687">
        <ele>613.519</ele>
        <time>2014-09-07T15:16:09Z</time>
      </trkpt>
      <trkpt lat="45.41278" lon="3.17718">
        <ele>611.863</ele>
        <time>2014-09-07T15:16:14Z</time>
      </trkpt>
      <trkpt lat="45.4125" lon="3.17769">
        <ele>609.721</ele>
        <time>2014-09-07T15:16:20Z</time>
      </trkpt>
      <trkpt lat="45.41233" lon="3.17803">
        <ele>607.538</ele>
        <time>2014-09-07T15:16:24Z</time>
      </trkpt>
      <trkpt lat="45.41211" lon="3.17836">
        <ele>603.776</ele>
        <time>2014-09-07T15:16:29Z</time>
      </trkpt>
      <trkpt lat="45.41207" lon="3.17843">
        <ele>602.928</ele>
        <time>2014-09-07T15:16:30Z</time>
      </trkpt>
      <trkpt lat="45.41197" lon="3.17873">
        <ele>600.515</ele>
        <time>2014-09-07T15:16:34Z</time>
      </trkpt>
      <trkpt lat="45.41199" lon="3.17881">
        <ele>600.228</ele>
        <time>2014-09-07T15:16:35Z</time>
      </trkpt>
      <trkpt lat="45.41203" lon="3.17891">
        <ele>600.03</ele>
        <time>2014-09-07T15:16:36Z</time>
      </trkpt>
      <trkpt lat="45.41217" lon="3.17923">
        <ele>600.441</ele>
        <time>2014-09-07T15:16:39Z</time>
      </trkpt>
      <trkpt lat="45.41222" lon="3.17967">
        <ele>601.661</ele>
        <time>2014-09-07T15:16:43Z</time>
      </trkpt>
      <trkpt lat="45.41219" lon="3.17977">
        <ele>601.657</ele>
        <time>2014-09-07T15:16:44Z</time>
      </trkpt>
      <trkpt lat="45.41211" lon="3.17998">
        <ele>602.574</ele>
        <time>2014-09-07T15:16:46Z</time>
      </trkpt>
      <trkpt lat="45.41209" lon="3.18045">
        <ele>604.417</ele>
        <time>2014-09-07T15:16:50Z</time>
      </trkpt>
      <trkpt lat="45.41211" lon="3.18056">
        <ele>604.92</ele>
        <time>2014-09-07T15:16:51Z</time>
      </trkpt>
      <trkpt lat="45.41215" lon="3.18089">
        <ele>606.175</ele>
        <time>2014-09-07T15:16:54Z</time>
      </trkpt>
      <trkpt lat="45.41213" lon="3.18121">
        <ele>607.31</ele>
        <time>2014-09-07T15:16:58Z</time>
      </trkpt>
      <trkpt lat="45.41213" lon="3.18125">
        <ele>607.479</ele>
        <time>2014-09-07T15:16:59Z</time>
      </trkpt>
      <trkpt lat="45.41228" lon="3.18134">
        <ele>607.318</ele>
        <time>2014-09-07T15:17:03Z</time>
      </trkpt>
      <trkpt lat="45.41235" lon="3.18137">
        <ele>607.187</ele>
        <time>2014-09-07T15:17:04Z</time>
      </trkpt>
      <trkpt lat="45.41266" lon="3.18166">
        <ele>605.725</ele>
        <time>2014-09-07T15:17:08Z</time>
      </trkpt>
      <trkpt lat="45.41273" lon="3.18175">
        <ele>605.723</ele>
        <time>2014-09-07T15:17:09Z</time>
      </trkpt>
      <trkpt lat="45.41285" lon="3.18215">
        <ele>604.11</ele>
        <time>2014-09-07T15:17:13Z</time>
      </trkpt>
      <trkpt lat="45.41282" lon="3.18227">
        <ele>603.778</ele>
        <time>2014-09-07T15:17:14Z</time>
      </trkpt>
      <trkpt lat="45.41276" lon="3.18266">
        <ele>602.921</ele>
        <time>2014-09-07T15:17:17Z</time>
      </trkpt>
      <trkpt lat="45.41278" lon="3.18307">
        <ele>600.968</ele>
        <time>2014-09-07T15:17:21Z</time>
      </trkpt>
      <trkpt lat="45.41281" lon="3.18318">
        <ele>600.212</ele>
        <time>2014-09-07T15:17:22Z</time>
      </trkpt>
      <trkpt lat="45.413" lon="3.18343">
        <ele>596.269</ele>
        <time>2014-09-07T15:17:26Z</time>
      </trkpt>
      <trkpt lat="45.41316" lon="3.18333">
        <ele>593.346</ele>
        <time>2014-09-07T15:17:29Z</time>
      </trkpt>
      <trkpt lat="45.41334" lon="3.18326">
        <ele>590.569</ele>
        <time>2014-09-07T15:17:32Z</time>
      </trkpt>
      <trkpt lat="45.41338" lon="3.18326">
        <ele>589.829</ele>
        <time>2014-09-07T15:17:33Z</time>
      </trkpt>
      <trkpt lat="45.41354" lon="3.18324">
        <ele>586.035</ele>
        <time>2014-09-07T15:17:41Z</time>
      </trkpt>
      <trkpt lat="45.41376" lon="3.18323">
        <ele>584.371</ele>
        <time>2014-09-07T15:17:45Z</time>
      </trkpt>
      <trkpt lat="45.41405" lon="3.18324">
        <ele>582.388</ele>
        <time>2014-09-07T15:17:48Z</time>
      </trkpt>
      <trkpt lat="45.41474" lon="3.18328">
        <ele>575.983</ele>
        <time>2014-09-07T15:17:54Z</time>
      </trkpt>
      <trkpt lat="45.41535" lon="3.18328">
        <ele>571.665</ele>
        <time>2014-09-07T15:17:59Z</time>
      </trkpt>
      <trkpt lat="45.41638" lon="3.18332">
        <ele>565.147</ele>
        <time>2014-09-07T15:18:07Z</time>
      </trkpt>
      <trkpt lat="45.41719" lon="3.18335">
        <ele>559.156</ele>
        <time>2014-09-07T15:18:13Z</time>
      </trkpt>
      <trkpt lat="45.41843" lon="3.18339">
        <ele>549.704</ele>
        <time>2014-09-07T15:18:22Z</time>
      </trkpt>
      <trkpt lat="45.41884" lon="3.18342">
        <ele>547.324</ele>
        <time>2014-09-07T15:18:25Z</time>
      </trkpt>
      <trkpt lat="45.41925" lon="3.18342">
        <ele>543.056</ele>
        <time>2014-09-07T15:18:29Z</time>
      </trkpt>
      <trkpt lat="45.41943" lon="3.1834">
        <ele>540.449</ele>
        <time>2014-09-07T15:18:32Z</time>
      </trkpt>
      <trkpt lat="45.41953" lon="3.18325">
        <ele>537.63</ele>
        <time>2014-09-07T15:18:36Z</time>
      </trkpt>
      <trkpt lat="45.41954" lon="3.18293">
        <ele>536.144</ele>
        <time>2014-09-07T15:18:39Z</time>
      </trkpt>
      <trkpt lat="45.41969" lon="3.18255">
        <ele>534.93</ele>
        <time>2014-09-07T15:18:42Z</time>
      </trkpt>
      <trkpt lat="45.41985" lon="3.18229">
        <ele>534.082</ele>
        <time>2014-09-07T15:18:44Z</time>
      </trkpt>
      <trkpt lat="45.42036" lon="3.1816">
        <ele>530.525</ele>
        <time>2014-09-07T15:18:49Z</time>
      </trkpt>
      <trkpt lat="45.42046" lon="3.18144">
        <ele>530.515</ele>
        <time>2014-09-07T15:18:50Z</time>
      </trkpt>
      <trkpt lat="45.42054" lon="3.18128">
        <ele>529.6</ele>
        <time>2014-09-07T15:18:51Z</time>
      </trkpt>
      <trkpt lat="45.42076" lon="3.18054">
        <ele>525.171</ele>
        <time>2014-09-07T15:18:55Z</time>
      </trkpt>
      <trkpt lat="45.42102" lon="3.17989">
        <ele>520.286</ele>
        <time>2014-09-07T15:18:59Z</time>
      </trkpt>
      <trkpt lat="45.42126" lon="3.17927">
        <ele>515.917</ele>
        <time>2014-09-07T15:19:03Z</time>
      </trkpt>
      <trkpt lat="45.42135" lon="3.17898">
        <ele>513.832</ele>
        <time>2014-09-07T15:19:05Z</time>
      </trkpt>
      <trkpt lat="45.42156" lon="3.17864">
        <ele>509.519</ele>
        <time>2014-09-07T15:19:09Z</time>
      </trkpt>
      <trkpt lat="45.4217" lon="3.1786">
        <ele>506.788</ele>
        <time>2014-09-07T15:19:12Z</time>
      </trkpt>
      <trkpt lat="45.42181" lon="3.17875">
        <ele>505.535</ele>
        <time>2014-09-07T15:19:15Z</time>
      </trkpt>
      <trkpt lat="45.42202" lon="3.17937">
        <ele>504.891</ele>
        <time>2014-09-07T15:19:20Z</time>
      </trkpt>
      <trkpt lat="45.42229" lon="3.18016">
        <ele>505.081</ele>
        <time>2014-09-07T15:19:25Z</time>
      </trkpt>
      <trkpt lat="45.42261" lon="3.181">
        <ele>504.699</ele>
        <time>2014-09-07T15:19:30Z</time>
      </trkpt>
      <trkpt lat="45.42298" lon="3.18155">
        <ele>504.129</ele>
        <time>2014-09-07T15:19:34Z</time>
      </trkpt>
      <trkpt lat="45.42366" lon="3.18226">
        <ele>502.891</ele>
        <time>2014-09-07T15:19:40Z</time>
      </trkpt>
      <trkpt lat="45.42445" lon="3.18314">
        <ele>501.605</ele>
        <time>2014-09-07T15:19:47Z</time>
      </trkpt>
      <trkpt lat="45.42455" lon="3.18329">
        <ele>501.523</ele>
        <time>2014-09-07T15:19:48Z</time>
      </trkpt>
      <trkpt lat="45.42495" lon="3.18417">
        <ele>500.721</ele>
        <time>2014-09-07T15:19:53Z</time>
      </trkpt>
      <trkpt lat="45.42563" lon="3.18592">
        <ele>498.804</ele>
        <time>2014-09-07T15:20:02Z</time>
      </trkpt>
      <trkpt lat="45.42651" lon="3.18816">
        <ele>496.51</ele>
        <time>2014-09-07T15:20:13Z</time>
      </trkpt>
      <trkpt lat="45.42719" lon="3.18985">
        <ele>494.215</ele>
        <time>2014-09-07T15:20:22Z</time>
      </trkpt>
      <trkpt lat="45.42791" lon="3.19159">
        <ele>493.052</ele>
        <time>2014-09-07T15:20:32Z</time>
      </trkpt>
      <trkpt lat="45.42837" lon="3.19236">
        <ele>491.956</ele>
        <time>2014-09-07T15:20:37Z</time>
      </trkpt>
      <trkpt lat="45.4287" lon="3.19285">
        <ele>490.054</ele>
        <time>2014-09-07T15:20:41Z</time>
      </trkpt>
      <trkpt lat="45.42883" lon="3.19305">
        <ele>488.966</ele>
        <time>2014-09-07T15:20:43Z</time>
      </trkpt>
      <trkpt lat="45.42889" lon="3.19335">
        <ele>487.393</ele>
        <time>2014-09-07T15:20:46Z</time>
      </trkpt>
      <trkpt lat="45.42886" lon="3.19345">
        <ele>486.954</ele>
        <time>2014-09-07T15:20:47Z</time>
      </trkpt>
      <trkpt lat="45.42868" lon="3.19411">
        <ele>486.941</ele>
        <time>2014-09-07T15:20:51Z</time>
      </trkpt>
      <trkpt lat="45.4285" lon="3.19481">
        <ele>488.033</ele>
        <time>2014-09-07T15:20:54Z</time>
      </trkpt>
      <trkpt lat="45.42826" lon="3.19572">
        <ele>488.627</ele>
        <time>2014-09-07T15:20:58Z</time>
      </trkpt>
      <trkpt lat="45.42818" lon="3.19608">
        <ele>488.266</ele>
        <time>2014-09-07T15:21:00Z</time>
      </trkpt>
      <trkpt lat="45.42816" lon="3.19645">
        <ele>487.049</ele>
        <time>2014-09-07T15:21:03Z</time>
      </trkpt>
      <trkpt lat="45.42827" lon="3.19669">
        <ele>486.31</ele>
        <time>2014-09-07T15:21:05Z</time>
      </trkpt>
      <trkpt lat="45.42863" lon="3.19741">
        <ele>485.8</ele>
        <time>2014-09-07T15:21:09Z</time>
      </trkpt>
      <trkpt lat="45.42924" lon="3.19862">
        <ele>484.77</ele>
        <time>2014-09-07T15:21:15Z</time>
      </trkpt>
      <trkpt lat="45.42987" lon="3.1999">
        <ele>482.189</ele>
        <time>2014-09-07T15:21:22Z</time>
      </trkpt>
      <trkpt lat="45.43021" lon="3.2005">
        <ele>480.225</ele>
        <time>2014-09-07T15:21:26Z</time>
      </trkpt>
      <trkpt lat="45.43086" lon="3.20151">
        <ele>478.068</ele>
        <time>2014-09-07T15:21:33Z</time>
      </trkpt>
      <trkpt lat="45.43118" lon="3.20203">
        <ele>476.808</ele>
        <time>2014-09-07T15:21:37Z</time>
      </trkpt>
      <trkpt lat="45.43164" lon="3.20264">
        <ele>475.097</ele>
        <time>2014-09-07T15:21:43Z</time>
      </trkpt>
      <trkpt lat="45.43222" lon="3.20328">
        <ele>474.357</ele>
        <time>2014-09-07T15:21:49Z</time>
      </trkpt>
      <trkpt lat="45.43295" lon="3.20408">
        <ele>473.45</ele>
        <time>2014-09-07T15:21:56Z</time>
      </trkpt>
      <trkpt lat="45.43357" lon="3.20485">
        <ele>472.26</ele>
        <time>2014-09-07T15:22:02Z</time>
      </trkpt>
      <trkpt lat="45.43383" lon="3.20519">
        <ele>471.475</ele>
        <time>2014-09-07T15:22:05Z</time>
      </trkpt>
      <trkpt lat="45.43391" lon="3.2053">
        <ele>471.171</ele>
        <time>2014-09-07T15:22:06Z</time>
      </trkpt>
      <trkpt lat="45.43409" lon="3.20582">
        <ele>470.379</ele>
        <time>2014-09-07T15:22:10Z</time>
      </trkpt>
      <trkpt lat="45.43431" lon="3.207">
        <ele>471.581</ele>
        <time>2014-09-07T15:22:16Z</time>
      </trkpt>
      <trkpt lat="45.43452" lon="3.20763">
        <ele>472.298</ele>
        <time>2014-09-07T15:22:19Z</time>
      </trkpt>
      <trkpt lat="45.43497" lon="3.20871">
        <ele>472.51</ele>
        <time>2014-09-07T15:22:24Z</time>
      </trkpt>
      <trkpt lat="45.43512" lon="3.20907">
        <ele>472.26</ele>
        <time>2014-09-07T15:22:26Z</time>
      </trkpt>
      <trkpt lat="45.43527" lon="3.20973">
        <ele>471.133</ele>
        <time>2014-09-07T15:22:30Z</time>
      </trkpt>
      <trkpt lat="45.43548" lon="3.21006">
        <ele>470.802</ele>
        <time>2014-09-07T15:22:33Z</time>
      </trkpt>
      <trkpt lat="45.43583" lon="3.21045">
        <ele>471.12</ele>
        <time>2014-09-07T15:22:36Z</time>
      </trkpt>
      <trkpt lat="45.43627" lon="3.21109">
        <ele>472.105</ele>
        <time>2014-09-07T15:22:40Z</time>
      </trkpt>
      <trkpt lat="45.43646" lon="3.21141">
        <ele>472.75</ele>
        <time>2014-09-07T15:22:42Z</time>
      </trkpt>
      <trkpt lat="45.43667" lon="3.21212">
        <ele>474.744</ele>
        <time>2014-09-07T15:22:46Z</time>
      </trkpt>
      <trkpt lat="45.4368" lon="3.21293">
        <ele>477.792</ele>
        <time>2014-09-07T15:22:50Z</time>
      </trkpt>
      <trkpt lat="45.4369" lon="3.21345">
        <ele>479.157</ele>
        <time>2014-09-07T15:22:53Z</time>
      </trkpt>
      <trkpt lat="45.43686" lon="3.21408">
        <ele>479.105</ele>
        <time>2014-09-07T15:22:58Z</time>
      </trkpt>
      <trkpt lat="45.43684" lon="3.21419">
        <ele>479.166</ele>
        <time>2014-09-07T15:22:59Z</time>
      </trkpt>
      <trkpt lat="45.43669" lon="3.21466">
        <ele>480.461</ele>
        <time>2014-09-07T15:23:04Z</time>
      </trkpt>
      <trkpt lat="45.43665" lon="3.21479">
        <ele>481.606</ele>
        <time>2014-09-07T15:23:07Z</time>
      </trkpt>
      <trkpt lat="45.43663" lon="3.21491">
        <ele>482.729</ele>
        <time>2014-09-07T15:23:12Z</time>
      </trkpt>
      <trkpt lat="45.43662" lon="3.21491">
        <ele>482.905</ele>
        <time>2014-09-07T15:23:14Z</time>
      </trkpt>
      <trkpt lat="45.43661" lon="3.21504">
        <ele>482.943</ele>
        <time>2014-09-07T15:23:31Z</time>
      </trkpt>
      <trkpt lat="45.43662" lon="3.2154">
        <ele>484.35</ele>
        <time>2014-09-07T15:23:37Z</time>
      </trkpt>
      <trkpt lat="45.43663" lon="3.21577">
        <ele>485.427</ele>
        <time>2014-09-07T15:23:41Z</time>
      </trkpt>
      <trkpt lat="45.43665" lon="3.21628">
        <ele>486.988</ele>
        <time>2014-09-07T15:23:44Z</time>
      </trkpt>
      <trkpt lat="45.43669" lon="3.21668">
        <ele>488.687</ele>
        <time>2014-09-07T15:23:47Z</time>
      </trkpt>
      <trkpt lat="45.4367" lon="3.21679">
        <ele>489.39</ele>
        <time>2014-09-07T15:23:48Z</time>
      </trkpt>
      <trkpt lat="45.43685" lon="3.21717">
        <ele>491.42</ele>
        <time>2014-09-07T15:23:52Z</time>
      </trkpt>
      <trkpt lat="45.43716" lon="3.21758">
        <ele>492.566</ele>
        <time>2014-09-07T15:23:57Z</time>
      </trkpt>
      <trkpt lat="45.43727" lon="3.21773">
        <ele>492.281</ele>
        <time>2014-09-07T15:23:59Z</time>
      </trkpt>
      <trkpt lat="45.43751" lon="3.21781">
        <ele>490.134</ele>
        <time>2014-09-07T15:24:03Z</time>
      </trkpt>
      <trkpt lat="45.43779" lon="3.21777">
        <ele>487.639</ele>
        <time>2014-09-07T15:24:07Z</time>
      </trkpt>
      <trkpt lat="45.4381" lon="3.21789">
        <ele>485.89</ele>
        <time>2014-09-07T15:24:11Z</time>
      </trkpt>
      <trkpt lat="45.43856" lon="3.21814">
        <ele>483.946</ele>
        <time>2014-09-07T15:24:16Z</time>
      </trkpt>
      <trkpt lat="45.43899" lon="3.21835">
        <ele>482.792</ele>
        <time>2014-09-07T15:24:20Z</time>
      </trkpt>
      <trkpt lat="45.43942" lon="3.21877">
        <ele>481.485</ele>
        <time>2014-09-07T15:24:24Z</time>
      </trkpt>
      <trkpt lat="45.43987" lon="3.21946">
        <ele>480.161</ele>
        <time>2014-09-07T15:24:29Z</time>
      </trkpt>
      <trkpt lat="45.44019" lon="3.22036">
        <ele>479.396</ele>
        <time>2014-09-07T15:24:34Z</time>
      </trkpt>
      <trkpt lat="45.44055" lon="3.22101">
        <ele>479.377</ele>
        <time>2014-09-07T15:24:38Z</time>
      </trkpt>
      <trkpt lat="45.44089" lon="3.22145">
        <ele>479.346</ele>
        <time>2014-09-07T15:24:41Z</time>
      </trkpt>
      <trkpt lat="45.44174" lon="3.22247">
        <ele>478.21</ele>
        <time>2014-09-07T15:24:48Z</time>
      </trkpt>
      <trkpt lat="45.44255" lon="3.22347">
        <ele>476.54</ele>
        <time>2014-09-07T15:24:55Z</time>
      </trkpt>
      <trkpt lat="45.44308" lon="3.22387">
        <ele>476.259</ele>
        <time>2014-09-07T15:24:59Z</time>
      </trkpt>
      <trkpt lat="45.44401" lon="3.22446">
        <ele>476.452</ele>
        <time>2014-09-07T15:25:06Z</time>
      </trkpt>
      <trkpt lat="45.44466" lon="3.22495">
        <ele>476.129</ele>
        <time>2014-09-07T15:25:11Z</time>
      </trkpt>
      <trkpt lat="45.44528" lon="3.22548">
        <ele>476.193</ele>
        <time>2014-09-07T15:25:16Z</time>
      </trkpt>
      <trkpt lat="45.44608" lon="3.22595">
        <ele>475.793</ele>
        <time>2014-09-07T15:25:22Z</time>
      </trkpt>
      <trkpt lat="45.44648" lon="3.22613">
        <ele>475.437</ele>
        <time>2014-09-07T15:25:25Z</time>
      </trkpt>
      <trkpt lat="45.44692" lon="3.22655">
        <ele>475.359</ele>
        <time>2014-09-07T15:25:29Z</time>
      </trkpt>
      <trkpt lat="45.4474" lon="3.22732">
        <ele>475.588</ele>
        <time>2014-09-07T15:25:34Z</time>
      </trkpt>
      <trkpt lat="45.44809" lon="3.22855">
        <ele>475.867</ele>
        <time>2014-09-07T15:25:41Z</time>
      </trkpt>
      <trkpt lat="45.44881" lon="3.22987">
        <ele>469.791</ele>
        <time>2014-09-07T15:25:49Z</time>
      </trkpt>
      <trkpt lat="45.44941" lon="3.23081">
        <ele>465.178</ele>
        <time>2014-09-07T15:25:55Z</time>
      </trkpt>
      <trkpt lat="45.4498" lon="3.23114">
        <ele>462.778</ele>
        <time>2014-09-07T15:25:58Z</time>
      </trkpt>
      <trkpt lat="45.45008" lon="3.2313">
        <ele>462.009</ele>
        <time>2014-09-07T15:26:00Z</time>
      </trkpt>
      <trkpt lat="45.45084" lon="3.23183">
        <ele>457.668</ele>
        <time>2014-09-07T15:26:06Z</time>
      </trkpt>
      <trkpt lat="45.45128" lon="3.23228">
        <ele>455.08</ele>
        <time>2014-09-07T15:26:10Z</time>
      </trkpt>
      <trkpt lat="45.45176" lon="3.23252">
        <ele>452.915</ele>
        <time>2014-09-07T15:26:14Z</time>
      </trkpt>
      <trkpt lat="45.45223" lon="3.2327">
        <ele>450.997</ele>
        <time>2014-09-07T15:26:18Z</time>
      </trkpt>
      <trkpt lat="45.45233" lon="3.23281">
        <ele>450.654</ele>
        <time>2014-09-07T15:26:19Z</time>
      </trkpt>
      <trkpt lat="45.45286" lon="3.23343">
        <ele>449.594</ele>
        <time>2014-09-07T15:26:24Z</time>
      </trkpt>
      <trkpt lat="45.45318" lon="3.23373">
        <ele>449.691</ele>
        <time>2014-09-07T15:26:27Z</time>
      </trkpt>
      <trkpt lat="45.45365" lon="3.23392">
        <ele>449.152</ele>
        <time>2014-09-07T15:26:31Z</time>
      </trkpt>
      <trkpt lat="45.45389" lon="3.23392">
        <ele>448.432</ele>
        <time>2014-09-07T15:26:33Z</time>
      </trkpt>
      <trkpt lat="45.45433" lon="3.23408">
        <ele>445.803</ele>
        <time>2014-09-07T15:26:37Z</time>
      </trkpt>
      <trkpt lat="45.4545" lon="3.23426">
        <ele>444.058</ele>
        <time>2014-09-07T15:26:39Z</time>
      </trkpt>
      <trkpt lat="45.45508" lon="3.23495">
        <ele>438.28</ele>
        <time>2014-09-07T15:26:47Z</time>
      </trkpt>
      <trkpt lat="45.45549" lon="3.23539">
        <ele>436.659</ele>
        <time>2014-09-07T15:26:53Z</time>
      </trkpt>
      <trkpt lat="45.45569" lon="3.23559">
        <ele>435.205</ele>
        <time>2014-09-07T15:26:58Z</time>
      </trkpt>
      <trkpt lat="45.45573" lon="3.23562">
        <ele>434.491</ele>
        <time>2014-09-07T15:27:01Z</time>
      </trkpt>
      <trkpt lat="45.45573" lon="3.23562">
        <ele>434.415</ele>
        <time>2014-09-07T15:27:02Z</time>
      </trkpt>
      <trkpt lat="45.45576" lon="3.23564">
        <ele>433.703</ele>
        <time>2014-09-07T15:27:24Z</time>
      </trkpt>
      <trkpt lat="45.4559" lon="3.23587">
        <ele>433.708</ele>
        <time>2014-09-07T15:27:28Z</time>
      </trkpt>
      <trkpt lat="45.45604" lon="3.2362">
        <ele>433.719</ele>
        <time>2014-09-07T15:27:31Z</time>
      </trkpt>
      <trkpt lat="45.45632" lon="3.23684">
        <ele>433.823</ele>
        <time>2014-09-07T15:27:36Z</time>
      </trkpt>
      <trkpt lat="45.45658" lon="3.23729">
        <ele>433.592</ele>
        <time>2014-09-07T15:27:40Z</time>
      </trkpt>
      <trkpt lat="45.45697" lon="3.23766">
        <ele>433.212</ele>
        <time>2014-09-07T15:27:45Z</time>
      </trkpt>
      <trkpt lat="45.45729" lon="3.23789">
        <ele>432.491</ele>
        <time>2014-09-07T15:27:50Z</time>
      </trkpt>
      <trkpt lat="45.4574" lon="3.23795">
        <ele>431.739</ele>
        <time>2014-09-07T15:27:54Z</time>
      </trkpt>
      <trkpt lat="45.45742" lon="3.23795">
        <ele>431.263</ele>
        <time>2014-09-07T15:27:58Z</time>
      </trkpt>
      <trkpt lat="45.45747" lon="3.23799">
        <ele>431.267</ele>
        <time>2014-09-07T15:28:05Z</time>
      </trkpt>
      <trkpt lat="45.45756" lon="3.23807">
        <ele>431.257</ele>
        <time>2014-09-07T15:28:10Z</time>
      </trkpt>
      <trkpt lat="45.45773" lon="3.23803">
        <ele>431.425</ele>
        <time>2014-09-07T15:28:13Z</time>
      </trkpt>
      <trkpt lat="45.45828" lon="3.23799">
        <ele>431.743</ele>
        <time>2014-09-07T15:28:18Z</time>
      </trkpt>
      <trkpt lat="45.45848" lon="3.238">
        <ele>431.562</ele>
        <time>2014-09-07T15:28:20Z</time>
      </trkpt>
      <trkpt lat="45.45894" lon="3.23823">
        <ele>430.658</ele>
        <time>2014-09-07T15:28:25Z</time>
      </trkpt>
      <trkpt lat="45.45922" lon="3.23856">
        <ele>429.707</ele>
        <time>2014-09-07T15:28:29Z</time>
      </trkpt>
      <trkpt lat="45.45931" lon="3.23879">
        <ele>429.283</ele>
        <time>2014-09-07T15:28:32Z</time>
      </trkpt>
      <trkpt lat="45.45931" lon="3.23892">
        <ele>428.598</ele>
        <time>2014-09-07T15:28:35Z</time>
      </trkpt>
      <trkpt lat="45.45931" lon="3.23893">
        <ele>428.381</ele>
        <time>2014-09-07T15:28:37Z</time>
      </trkpt>
      <trkpt lat="45.45929" lon="3.23903">
        <ele>427.685</ele>
        <time>2014-09-07T15:30:42Z</time>
      </trkpt>
      <trkpt lat="45.45923" lon="3.23928">
        <ele>427.579</ele>
        <time>2014-09-07T15:30:46Z</time>
      </trkpt>
      <trkpt lat="45.45923" lon="3.23948">
        <ele>427.623</ele>
        <time>2014-09-07T15:30:48Z</time>
      </trkpt>
      <trkpt lat="45.45901" lon="3.23993">
        <ele>427.907</ele>
        <time>2014-09-07T15:30:52Z</time>
      </trkpt>
      <trkpt lat="45.45894" lon="3.24003">
        <ele>427.96</ele>
        <time>2014-09-07T15:30:53Z</time>
      </trkpt>
      <trkpt lat="45.45866" lon="3.24041">
        <ele>428.147</ele>
        <time>2014-09-07T15:30:57Z</time>
      </trkpt>
      <trkpt lat="45.4583" lon="3.24067">
        <ele>428.106</ele>
        <time>2014-09-07T15:31:02Z</time>
      </trkpt>
      <trkpt lat="45.45807" lon="3.24078">
        <ele>428.197</ele>
        <time>2014-09-07T15:31:05Z</time>
      </trkpt>
      <trkpt lat="45.45749" lon="3.24094">
        <ele>430.231</ele>
        <time>2014-09-07T15:31:12Z</time>
      </trkpt>
      <trkpt lat="45.45699" lon="3.24105">
        <ele>432.79</ele>
        <time>2014-09-07T15:31:18Z</time>
      </trkpt>
      <trkpt lat="45.45659" lon="3.24127">
        <ele>437.431</ele>
        <time>2014-09-07T15:31:23Z</time>
      </trkpt>
      <trkpt lat="45.45617" lon="3.24144">
        <ele>441.076</ele>
        <time>2014-09-07T15:31:28Z</time>
      </trkpt>
    </trkseg>
  </trk>
</gpx>